GFSSW_con_sbcape_000.txt.gz
CAPE
21 45 98 99 96 70 55 58 63 63 53 33 14 19 36 34 22 18 18 0 0 0 0 0 0 0 0 0 0 0 0 0 0 0 0 0 0 0 0 0 0 0 0 0 0
22 69 127 131 124 96 87 65 50 40 47 27 7 18 40 39 13 19 5 0 126 219 0 0 0 0 0 0 0 0 0 0 0 0 0 0 0 0 0 0 0 0 0 0 0
64 89 118 143 153 167 137 104 75 51 22 20 24 55 82 72 37 8 38 32 309 221 0 0 0 0 0 0 0 0 0 0 0 0 0 0 0 0 0 0 0 0 0 0 0
93 194 250 263 191 248 213 148 110 115 79 89 107 158 130 69 12 0 44 90 325 149 0 0 0 0 0 0 0 0 0 0 0 0 0 0 0 0 0 0 0 0 0 0 0
122 80 104 166 179 155 203 169 113 122 124 92 191 246 103 86 10 13 104 230 106 124 0 0 0 0 0 0 0 0 0 0 0 0 0 0 0 0 0 0 0 0 0 0 0
90 163 153 123 84 101 140 64 85 185 203 243 169 249 80 44 0 1 70 84 14 57 0 0 0 0 0 0 0 0 0 0 0 0 0 0 0 0 0 0 0 0 0 0 0
126 95 63 89 99 63 30 17 122 203 201 206 185 181 113 7 0 10 125 85 49 0 0 0 0 1 0 0 0 0 0 0 0 0 0 0 0 0 0 0 0 0 0 0 0
85 57 44 50 35 35 26 56 162 180 183 139 8 151 27 0 177 137 64 141 4 0 0 0 0 0 0 0 0 0 0 0 0 0 0 0 0 0 0 0 0 0 0 0 0
43 38 6 11 42 47 31 84 106 139 145 43 0 43 0 39 149 139 169 65 10 11 6 1 0 0 0 0 0 0 0 0 0 0 0 0 0 0 0 0 0 0 0 0 0
10 0 0 26 90 76 74 125 93 65 11 0 0 3 3 0 106 93 127 66 10 4 0 0 0 0 0 0 0 0 0 0 0 0 0 0 0 0 0 0 0 0 0 0 0
58 21 23 68 45 53 67 76 50 29 1 47 7 0 3 158 162 222 110 30 0 1 0 0 0 0 0 0 0 0 0 0 0 0 0 0 0 0 0 0 0 0 0 0 0
26 45 18 38 50 76 66 53 22 1 62 24 49 62 4 0 4 2 6 0 1 76 0 0 0 0 0 0 0 0 0 0 0 0 0 0 0 0 0 0 0 0 0 0 0
3 12 5 1 8 49 34 7 9 2 30 69 73 45 27 21 8 5 0 0 8 62 2 0 0 0 0 0 0 0 0 0 0 0 0 0 0 0 0 0 0 0 0 0 0
0 9 8 3 3 16 27 2 0 1 8 58 27 5 47 14 5 13 0 0 0 8 0 0 0 0 0 0 0 0 0 0 0 0 0 0 0 0 0 0 0 0 0 0 0
0 1 0 2 0 2 2 0 0 3 6 40 32 52 8 0 4 0 0 0 0 0 0 0 0 0 0 0 0 0 0 0 0 0 0 0 0 0 0 0 0 0 0 0 0
2 0 0 0 0 0 0 0 6 57 5 33 10 32 9 24 2 0 16 3 0 0 0 0 0 0 0 0 0 0 0 0 0 0 0 0 0 0 0 0 0 0 0 0 0
0 0 0 0 0 0 0 0 30 11 5 31 15 33 1 8 11 1 0 0 0 0 0 0 0 0 0 0 0 0 0 0 0 0 0 0 0 0 0 0 0 0 0 0 0
0 0 0 0 0 0 0 1 1 9 16 22 36 35 9 0 1 7 0 0 0 0 0 0 0 0 0 0 0 0 0 0 0 0 0 0 0 0 0 0 0 0 0 0 0
0 0 0 0 0 0 0 1 8 6 5 15 26 11 25 2 1 13 0 0 0 0 0 0 0 0 0 0 0 0 0 0 0 0 0 0 0 0 0 0 0 0 0 0 0
0 0 0 0 0 0 21 0 0 0 2 0 6 8 10 0 0 2 15 0 0 0 0 0 0 0 0 0 0 0 0 0 0 0 0 0 0 0 0 0 0 0 0 0 0
0 0 0 0 0 19 0 1 0 0 0 0 0 4 2 0 3 1 0 0 0 0 0 0 0 0 0 0 0 0 0 0 0 0 0 0 0 0 0 0 0 0 0 0 0
0 0 0 0 0 0 0 0 0 0 0 0 0 0 0 0 0 0 0 0 0 0 0 0 0 0 0 0 0 0 0 0 0 0 0 0 0 0 0 0 0 0 0 0 0
0 0 0 0 0 0 0 0 0 0 0 0 0 0 0 0 0 0 0 0 0 0 0 0 0 0 0 0 0 0 0 0 0 0 0 0 0 0 0 0 0 0 0 0 0
0 0 0 0 0 0 0 0 0 0 0 0 0 0 0 0 0 0 0 0 0 0 0 0 0 0 0 0 0 0 0 0 0 0 0 0 0 0 0 0 0 0 0 0 0
0 0 0 0 0 0 0 0 0 0 0 0 0 0 0 0 0 0 0 0 0 0 0 0 0 0 0 0 0 0 0 0 0 0 0 0 0 0 0 0 0 0 0 0 0
0 0 0 0 0 0 0 0 0 0 0 0 0 0 0 0 0 0 0 0 0 0 0 0 0 0 0 0 0 0 0 0 0 0 0 0 0 0 0 0 0 0 0 0 0
0 0 0 0 0 0 0 0 0 0 0 0 0 0 0 0 0 0 0 0 0 0 0 0 0 0 0 0 0 0 0 0 0 0 0 0 0 0 0 0 0 0 0 0 0

GFSSW_con_sbcape_003.txt.gz
CAPE
11 28 32 59 50 54 47 63 42 40 60 56 36 10 16 26 28 23 5 0 0 0 0 0 0 0 0 0 0 0 0 0 0 0 0 0 0 0 0 0 0 0 0 0 0
6 38 52 66 127 106 90 74 70 62 51 48 24 1 6 54 25 12 0 0 94 198 0 0 0 0 0 0 0 0 0 0 0 0 0 0 0 0 0 0 0 0 0 0 0
5 4 65 98 136 136 131 109 99 82 51 33 25 2 35 66 15 1 0 1 87 296 2 0 0 0 0 0 0 0 0 0 0 0 0 0 0 0 0 0 0 0 0 0 0
42 0 12 63 152 245 224 205 113 82 37 3 4 23 104 55 0 0 0 0 82 182 91 0 0 0 0 0 0 0 0 0 0 0 0 0 0 0 0 0 0 0 0 0 0
58 11 1 38 123 253 237 270 226 100 60 28 21 96 66 41 0 0 0 6 56 128 74 0 0 0 0 0 0 0 0 0 0 0 0 0 0 0 0 0 0 0 0 0 0
57 44 59 106 126 101 114 245 217 91 59 69 88 138 46 27 0 0 10 0 46 86 74 0 0 0 0 0 0 0 0 0 0 0 0 0 0 0 0 0 0 0 0 0 0
69 59 58 60 121 209 210 181 143 100 169 190 205 101 23 3 0 0 0 58 60 83 10 0 0 0 0 0 0 0 0 0 0 0 0 0 0 0 0 0 0 0 0 0 0
52 38 21 49 116 159 184 172 173 252 213 202 198 80 29 0 0 0 0 9 88 79 22 0 0 0 0 0 0 0 0 0 0 0 0 0 0 0 0 0 0 0 0 0 0
25 13 0 0 6 53 76 94 224 255 213 167 71 46 17 12 2 1 0 71 65 54 11 11 0 0 0 0 0 0 0 0 0 0 0 0 0 0 0 0 0 0 0 0 0
41 53 8 1 42 104 61 147 72 72 101 0 0 48 0 1 16 38 52 78 32 2 10 1 0 0 0 0 0 0 0 0 0 0 0 0 0 0 0 0 0 0 0 0 0
60 64 61 57 70 81 71 95 8 42 8 0 0 0 1 6 22 82 80 117 10 1 1 4 0 0 0 0 0 0 0 0 0 0 0 0 0 0 0 0 0 0 0 0 0
37 34 41 12 88 97 68 39 35 2 0 0 0 6 79 103 64 62 88 60 30 8 3 0 0 0 0 0 0 0 0 0 0 0 0 0 0 0 0 0 0 0 0 0 0
39 19 13 3 21 89 60 26 1 0 37 42 0 72 100 69 105 28 7 21 33 51 26 0 0 0 0 0 0 0 0 0 0 0 0 0 0 0 0 0 0 0 0 0 0
37 19 9 8 8 30 62 8 1 5 4 18 63 69 91 34 12 21 0 11 16 86 2 0 0 0 0 0 0 0 0 0 0 0 0 0 0 0 0 0 0 0 0 0 0
11 4 1 1 6 59 54 3 8 18 0 1 16 33 65 11 11 2 0 0 46 48 0 0 0 0 0 0 0 0 0 0 0 0 0 0 0 0 0 0 0 0 0 0 0
1 0 0 4 1 9 0 1 39 18 6 5 19 42 5 14 0 0 0 0 0 0 0 0 0 0 0 0 0 0 0 0 0 0 0 0 0 0 0 0 0 0 0 0 0
2 3 2 0 0 0 0 23 21 15 11 11 28 14 4 2 0 0 0 0 0 0 0 0 0 0 0 0 0 0 0 0 0 0 0 0 0 0 0 0 0 0 0 0 0
0 0 0 0 0 0 2 14 8 13 18 34 12 28 12 3 17 2 1 0 0 0 0 0 0 0 0 0 0 0 0 0 0 0 0 0 0 0 0 0 0 0 0 0 0
0 0 0 0 0 0 5 2 25 16 19 37 32 12 31 46 21 0 0 5 1 0 0 0 0 0 0 0 0 0 0 0 0 0 0 0 0 0 0 0 0 0 0 0 0
0 0 0 0 0 0 0 13 15 5 8 27 10 13 6 18 1 56 70 0 1 0 0 0 0 0 0 0 0 0 0 0 0 0 0 0 0 0 0 0 0 0 0 0 0
0 0 0 0 0 0 0 0 0 0 0 0 6 16 1 4 9 4 0 0 0 0 0 0 0 0 0 0 0 0 0 0 0 0 0 0 0 0 0 0 0 0 0 0 0
0 0 0 0 0 0 0 0 0 0 0 0 0 0 0 2 3 0 0 0 0 0 0 0 0 0 0 0 0 0 0 0 0 0 0 0 0 0 0 0 0 0 0 0 0
0 0 0 0 0 0 0 0 0 0 0 0 0 0 0 0 0 0 0 0 0 0 0 0 0 0 0 0 0 0 0 0 0 0 0 0 0 0 0 0 0 0 0 0 0
0 0 0 0 0 0 0 0 0 0 0 0 0 0 0 0 0 0 0 0 0 0 0 0 0 0 0 0 0 0 0 0 0 0 0 0 0 0 0 0 0 0 0 0 0
0 0 0 0 0 0 0 0 0 0 0 0 0 0 0 0 0 0 0 0 0 0 0 0 0 0 0 0 0 0 0 0 0 0 0 0 0 0 0 0 0 0 0 0 0
0 0 0 0 0 0 0 0 0 0 0 0 0 0 0 0 0 0 0 0 0 0 0 0 0 0 0 0 0 0 0 0 0 0 0 0 0 0 0 0 0 0 0 0 0
0 0 0 0 0 0 0 0 0 0 0 0 0 0 0 0 0 0 0 0 0 0 0 0 0 0 0 0 0 0 0 0 0 0 0 0 0 0 0 0 0 0 0 0 0

GFSSW_con_sbcape_006.txt.gz
CAPE
4 8 10 16 21 50 62 51 65 65 76 56 46 26 22 9 24 29 10 0 0 54 103 0 0 0 0 0 0 0 0 0 0 0 0 0 0 0 0 0 0 0 0 0 0
1 4 13 29 38 80 96 74 71 82 90 88 65 36 33 37 17 18 0 0 0 245 8 0 0 0 0 0 0 0 0 0 0 0 0 0 0 0 0 0 0 0 0 0 0
3 2 1 17 60 61 106 99 91 87 99 100 68 43 61 48 12 0 0 0 0 163 105 0 0 0 0 0 0 0 0 0 0 0 0 0 0 0 0 0 0 0 0 0 0
1 0 0 17 56 53 106 116 127 87 94 110 85 53 94 63 0 0 0 0 0 40 67 5 0 0 0 0 0 0 0 0 0 0 0 0 0 0 0 0 0 0 0 0 0
3 16 21 13 12 24 148 151 154 175 124 106 93 112 59 23 0 0 0 0 0 89 90 9 0 0 0 0 0 0 0 0 0 0 0 0 0 0 0 0 0 0 0 0 0
46 82 50 42 33 12 61 126 232 233 166 144 132 159 52 10 0 0 0 0 0 66 134 12 0 0 0 0 0 0 0 0 0 0 0 0 0 0 0 0 0 0 0 0 0
42 54 60 46 37 54 118 129 198 227 213 163 170 84 48 0 0 0 0 1 5 37 66 7 1 1 0 0 0 0 0 0 0 0 0 0 0 0 0 0 0 0 0 0 0
45 45 48 31 44 92 156 285 235 267 199 238 236 70 8 0 0 0 0 0 7 43 98 79 19 0 0 0 0 0 0 0 0 0 0 0 0 0 0 0 0 0 0 0 0
57 47 31 0 0 35 101 162 239 291 322 277 121 27 0 83 0 0 0 0 6 24 104 56 16 0 0 0 0 0 0 0 0 0 0 0 0 0 0 0 0 0 0 0 0
50 67 82 25 15 50 125 165 150 223 204 144 55 56 0 0 0 0 0 0 58 32 114 81 14 0 0 0 0 0 0 0 0 0 0 0 0 0 0 0 0 0 0 0 0
37 45 40 72 71 93 66 94 1 4 67 15 0 9 2 2 31 30 51 13 77 74 54 61 4 0 0 0 0 0 0 0 0 0 0 0 0 0 0 0 0 0 0 0 0
40 28 16 53 43 81 35 71 4 0 8 0 0 1 136 43 8 33 121 59 53 18 42 34 34 0 0 0 0 0 0 0 0 0 0 0 0 0 0 0 0 0 0 0 0
38 22 21 20 24 63 24 52 12 5 1 51 46 0 96 105 92 63 100 59 5 30 41 3 1 0 0 0 0 0 0 0 0 0 0 0 0 0 0 0 0 0 0 0 0
38 33 13 11 8 47 54 6 28 14 70 2 46 54 93 146 98 104 30 21 60 32 37 7 0 0 0 0 0 0 0 0 0 0 0 0 0 0 0 0 0 0 0 0 0
38 25 7 5 32 37 32 38 66 17 17 0 34 52 97 92 57 10 1 2 21 23 0 1 0 0 0 0 0 0 0 0 0 0 0 0 0 0 0 0 0 0 0 0 0
17 13 5 7 33 61 22 48 51 16 0 18 41 77 11 46 19 1 2 0 13 0 0 0 0 0 0 0 0 0 0 0 0 0 0 0 0 0 0 0 0 0 0 0 0
7 11 8 7 10 18 21 67 20 30 5 19 36 21 19 8 4 17 2 0 0 0 0 0 0 0 0 0 0 0 0 0 0 0 0 0 0 0 0 0 0 0 0 0 0
1 12 6 0 0 0 25 43 19 7 10 0 28 8 13 3 2 0 0 0 0 0 0 0 0 0 0 0 0 0 0 0 0 0 0 0 0 0 0 0 0 0 0 0 0
1 0 0 0 1 1 16 16 26 22 2 7 7 1 25 13 2 0 0 0 0 0 0 0 0 0 0 0 0 0 0 0 0 0 0 0 0 0 0 0 0 0 0 0 0
0 0 0 0 0 5 14 21 30 22 0 6 7 7 10 0 0 0 0 0 5 0 0 0 0 0 0 0 0 0 0 0 0 0 0 0 0 0 0 0 0 0 0 0 0
0 0 0 0 0 10 12 26 38 0 5 48 17 3 0 0 0 0 7 4 0 7 0 0 0 0 0 0 0 0 0 0 0 0 0 0 0 0 0 0 0 0 0 0 0
0 0 0 0 0 0 3 22 29 25 4 7 0 0 4 30 5 0 0 0 0 0 0 0 0 0 0 0 0 0 0 0 0 0 0 0 0 0 0 0 0 0 0 0 0
0 0 0 0 0 0 0 0 0 1 0 34 36 21 17 5 5 0 0 0 0 0 0 0 0 0 0 0 0 0 0 0 0 0 0 0 0 0 0 0 0 0 0 0 0
0 0 0 0 0 0 0 0 0 0 0 0 0 0 0 0 0 0 0 0 0 0 0 0 0 0 0 0 0 0 0 0 0 0 0 0 0 0 0 0 0 0 0 0 0
0 0 0 0 0 0 0 0 0 0 0 0 0 0 0 0 0 0 0 0 0 0 0 0 0 0 0 0 0 0 0 0 0 0 0 0 0 0 0 0 0 0 0 0 0
0 0 0 0 0 0 0 0 0 0 0 0 0 0 0 0 0 0 0 0 0 0 0 0 0 0 0 0 0 0 0 0 0 0 0 0 0 0 0 0 0 0 0 0 0
0 0 0 0 0 0 0 0 0 0 0 0 0 0 0 0 0 0 0 0 0 0 0 0 0 0 0 0 0 0 0 0 0 0 0 0 0 0 0 0 0 0 0 0 0

GFSSW_con_sbcape_009.txt.gz
CAPE
0 0 4 5 3 1 5 11 73 83 86 59 77 80 49 40 27 9 4 0 0 16 232 0 0 0 0 0 0 0 0 0 0 0 0 0 0 0 0 0 0 0 0 0 0
0 1 2 7 5 7 1 29 85 122 95 82 72 79 62 39 17 10 0 0 0 26 50 0 0 0 0 0 0 0 0 0 0 0 0 0 0 0 0 0 0 0 0 0 0
4 5 6 7 9 28 43 58 99 107 127 100 98 93 74 34 9 0 0 0 0 0 7 0 0 0 0 0 0 0 0 0 0 0 0 0 0 0 0 0 0 0 0 0 0
8 3 0 0 3 4 53 89 110 118 143 125 137 139 114 27 0 0 0 0 0 0 5 59 0 0 0 0 0 0 0 0 0 0 0 0 0 0 0 0 0 0 0 0 0
3 9 1 0 0 0 1 89 151 189 211 174 153 138 61 28 0 0 0 0 0 0 12 52 0 0 0 0 0 0 0 0 0 0 0 0 0 0 0 0 0 0 0 0 0
24 29 29 27 0 18 6 54 222 332 274 216 201 194 60 9 0 0 0 0 0 0 64 37 0 0 0 0 0 0 0 0 0 0 0 0 0 0 0 0 0 0 0 0 0
48 43 36 22 44 58 48 43 99 311 335 228 238 83 50 0 0 0 0 0 0 0 79 33 0 0 0 0 0 0 0 0 0 0 0 0 0 0 0 0 0 0 0 0 0
47 35 29 26 47 63 71 87 122 331 369 310 277 72 24 0 0 0 0 0 0 0 64 67 4 1 2 0 0 0 0 0 0 0 0 0 0 0 0 0 0 0 0 0 0
32 23 66 80 31 8 34 90 141 217 349 337 134 59 20 1 0 0 0 0 0 0 7 81 33 5 8 4 0 0 0 0 0 0 0 0 0 0 0 0 0 0 0 0 0
0 16 47 56 66 35 47 89 112 150 171 142 97 49 7 1 0 2 0 0 26 0 82 108 61 1 0 0 6 0 0 0 0 0 0 0 0 0 0 0 0 0 0 0 0
33 31 28 30 71 92 66 37 15 74 61 0 29 22 0 2 38 4 0 0 33 28 12 98 19 6 0 0 0 0 0 0 0 0 0 0 0 0 0 0 0 0 0 0 0
11 14 16 32 63 70 8 37 8 0 36 18 4 11 1 106 106 59 1 1 21 12 38 135 34 1 0 0 0 0 0 0 0 0 0 0 0 0 0 0 0 0 0 0 0
36 16 22 59 49 45 5 33 57 16 39 23 0 16 8 95 37 102 21 39 1 2 21 27 12 1 0 1 0 0 0 0 0 0 0 0 0 0 0 0 0 0 0 0 0
36 32 23 37 20 39 5 32 52 61 2 6 43 63 20 42 61 107 37 38 23 0 9 47 7 1 0 0 0 0 0 0 0 0 0 0 0 0 0 0 0 0 0 0 0
39 30 12 9 50 32 32 3 46 1 2 1 58 155 174 37 68 96 113 95 0 0 42 1 0 11 4 0 0 0 0 0 0 0 0 0 0 0 0 0 0 0 0 0 0
22 21 11 29 56 53 41 37 5 13 8 11 22 13 82 46 61 91 76 14 0 3 7 0 1 13 0 0 0 0 0 0 0 0 0 0 0 0 0 0 0 0 0 0 0
13 10 11 22 27 42 80 72 41 8 4 19 9 31 29 12 82 68 68 86 1 36 45 0 0 0 0 0 0 0 0 0 0 0 0 0 0 0 0 0 0 0 0 0 0
0 12 15 5 20 43 68 33 14 8 11 28 25 18 3 17 24 55 28 48 4 0 11 0 0 0 0 0 0 0 0 0 0 0 0 0 0 0 0 0 0 0 0 0 0
7 0 1 9 23 20 42 10 9 12 35 21 16 12 22 51 46 9 18 0 0 0 5 0 0 0 0 0 0 0 0 0 0 0 0 0 0 0 0 0 0 0 0 0 0
0 0 0 0 16 20 28 13 20 0 1 1 3 15 14 19 19 10 13 0 0 0 0 0 0 0 0 0 0 0 0 0 0 0 0 0 0 0 0 0 0 0 0 0 0
0 0 4 13 19 21 28 16 0 4 14 51 2 7 5 6 2 8 2 0 0 0 0 0 0 0 0 0 0 0 0 0 0 0 0 0 0 0 0 0 0 0 0 0 0
0 0 4 8 6 2 4 35 0 0 15 24 1 0 0 0 2 1 0 0 0 0 0 0 0 0 0 0 0 0 0 0 0 0 0 0 0 0 0 0 0 0 0 0 0
0 2 4 1 0 0 6 25 32 41 40 31 0 1 2 0 6 0 0 0 0 0 0 0 0 0 0 0 0 0 0 0 0 0 0 0 0 0 0 0 0 0 0 0 0
0 0 0 4 0 0 0 7 2 1 0 4 17 19 3 0 0 0 0 0 0 0 0 0 0 0 0 0 0 0 0 0 0 0 0 0 0 0 0 0 0 0 0 0 0
0 0 0 0 0 0 0 0 0 4 0 0 15 12 0 0 0 0 0 0 0 0 0 0 0 0 0 0 0 0 0 0 0 0 0 0 0 0 0 0 0 0 0 0 0
0 0 0 0 0 0 0 0 0 0 0 0 0 0 0 0 0 0 0 0 0 0 0 0 0 0 0 0 0 0 0 0 0 0 0 0 0 0 0 0 0 0 0 0 0
0 0 0 0 0 0 0 0 0 0 0 0 0 0 0 0 0 0 0 0 0 0 0 0 0 0 0 0 0 0 0 0 0 0 0 0 0 0 0 0 0 0 0 0 0

GFSSW_con_sbcape_012.txt.gz
CAPE
0 1 1 4 3 2 0 1 18 77 109 122 71 59 110 61 29 5 2 0 0 0 183 5 0 0 0 0 0 0 0 0 0 0 0 0 0 0 0 0 0 0 0 0 0
1 3 3 4 5 9 8 1 12 35 65 107 123 98 100 58 2 6 0 0 0 0 0 0 0 0 0 0 0 0 0 0 0 0 0 0 0 0 0 0 0 0 0 0 0
12 10 7 5 5 5 15 14 18 34 59 92 106 122 127 2 0 0 0 0 0 0 0 3 0 0 0 0 0 0 0 0 0 0 0 0 0 0 0 0 0 0 0 0 0
12 21 17 5 1 2 2 31 12 44 56 71 94 154 153 7 6 0 0 0 0 0 5 63 10 0 0 0 0 0 0 0 0 0 0 0 0 0 0 0 0 0 0 0 0
2 13 25 27 1 0 0 4 24 52 66 108 184 198 45 36 0 0 0 0 0 0 3 36 0 0 0 0 0 0 0 0 0 0 0 0 0 0 0 0 0 0 0 0 0
22 42 40 43 52 7 3 0 0 25 55 180 287 216 25 17 0 0 0 0 0 0 9 48 0 0 0 0 0 0 0 0 0 0 0 0 0 0 0 0 0 0 0 0 0
54 60 52 30 20 30 31 13 0 28 75 201 381 82 8 0 0 0 0 0 0 0 6 46 0 0 0 0 0 0 0 0 0 0 0 0 0 0 0 0 0 0 0 0 0
48 61 51 47 8 28 18 38 25 35 54 266 385 33 1 0 0 0 0 0 0 1 0 126 4 1 3 1 0 0 0 0 0 0 0 0 0 0 0 0 0 0 0 0 0
10 18 25 52 57 35 23 41 71 67 78 232 135 20 16 0 0 0 0 0 0 0 29 155 34 19 14 1 0 0 0 0 0 0 0 0 0 0 0 0 0 0 0 0 0
35 27 30 35 44 71 40 28 43 57 49 36 109 13 0 0 2 0 0 0 15 0 48 118 65 15 4 1 21 0 0 0 0 0 0 0 0 0 0 0 0 0 0 0 0
43 33 30 28 37 73 52 13 8 22 25 0 0 0 2 1 32 3 1 0 11 16 51 85 60 9 0 0 0 0 0 0 0 0 0 0 0 0 0 0 0 0 0 0 0
68 56 16 28 48 73 2 1 1 3 2 0 36 0 45 40 115 45 8 0 27 0 41 231 31 0 0 0 0 0 0 0 0 0 0 0 0 0 0 0 0 0 0 0 0
52 24 35 46 69 59 2 0 34 27 37 0 0 37 24 35 52 59 0 13 27 0 0 44 21 2 0 0 0 0 0 0 0 0 0 0 0 0 0 0 0 0 0 0 0
26 16 23 51 49 19 3 23 41 30 16 0 7 8 35 26 37 91 3 26 27 0 0 32 9 8 0 0 0 0 0 0 0 0 0 0 0 0 0 0 0 0 0 0 0
56 40 34 56 43 33 25 29 43 46 0 0 13 28 18 3 43 69 0 1 8 0 22 32 27 21 9 0 0 0 0 0 0 0 0 0 0 0 0 0 0 0 0 0 0
43 51 30 46 49 33 10 16 32 12 0 3 16 26 10 1 62 86 54 66 15 0 25 4 8 39 1 0 0 0 0 0 0 0 0 0 0 0 0 0 0 0 0 0 0
4 35 39 47 23 49 13 8 9 26 4 44 12 28 0 8 32 36 26 17 15 12 43 0 0 0 0 0 0 0 0 0 0 0 0 0 0 0 0 0 0 0 0 0 0
0 21 20 0 29 31 37 10 32 12 3 31 3 0 7 18 36 69 12 18 60 0 0 3 9 0 0 0 0 0 0 0 0 0 0 0 0 0 0 0 0 0 0 0 0
11 0 9 14 44 51 4 8 9 19 7 28 29 2 26 6 61 17 24 6 21 1 0 1 4 0 0 0 0 0 0 0 0 0 0 0 0 0 0 0 0 0 0 0 0
0 0 0 2 59 39 17 9 15 6 0 11 10 15 4 9 20 16 16 11 3 0 0 0 0 0 0 0 0 0 0 0 0 0 0 0 0 0 0 0 0 0 0 0 0
0 0 4 5 41 32 14 3 39 1 0 21 6 0 2 1 15 20 1 3 0 0 0 0 0 0 0 0 0 0 0 0 0 0 0 0 0 0 0 0 0 0 0 0 0
0 0 21 19 35 34 12 39 11 18 41 49 5 1 0 4 27 14 1 0 0 0 0 0 0 0 0 0 0 0 0 0 0 0 0 0 0 0 0 0 0 0 0 0 0
0 4 18 20 9 6 21 13 27 13 12 24 0 1 3 14 5 12 5 0 0 0 0 0 0 0 0 0 0 0 0 0 0 0 0 0 0 0 0 0 0 0 0 0 0
0 0 14 20 3 0 7 18 27 16 6 3 14 9 17 5 0 0 0 0 0 0 0 0 0 0 0 0 0 0 0 0 0 0 0 0 0 0 0 0 0 0 0 0 0
0 0 0 0 0 0 0 9 11 9 0 5 41 6 15 0 0 0 0 0 0 0 0 0 0 0 0 0 0 0 0 0 0 0 0 0 0 0 0 0 0 0 0 0 0
0 0 0 0 0 0 0 0 0 0 4 17 0 0 0 0 0 0 0 0 0 0 0 0 0 0 0 0 0 0 0 0 0 0 0 0 0 0 0 0 0 0 0 0 0
0 0 0 0 0 0 0 0 0 0 0 0 0 0 0 0 0 0 0 0 0 0 0 0 0 0 0 0 0 0 0 0 0 0 0 0 0 0 0 0 0 0 0 0 0

GFSSW_con_sbcape_015.txt.gz
CAPE
1 0 0 1 3 4 1 0 0 6 50 77 82 86 94 83 31 0 1 0 0 0 0 0 0 0 0 0 0 0 0 0 0 0 0 0 0 0 0 0 0 0 0 0 0
5 2 0 1 2 6 7 3 0 0 5 35 60 83 87 58 1 4 0 0 0 0 0 2 0 0 0 0 0 0 0 0 0 0 0 0 0 0 0 0 0 0 0 0 0
3 2 1 0 1 8 10 22 14 4 16 38 56 77 83 0 4 2 0 0 2 0 0 0 10 0 0 0 0 0 0 0 0 0 0 0 0 0 0 0 0 0 0 0 0
3 2 0 2 1 1 5 5 26 23 24 42 59 82 85 0 1 0 0 0 3 1 0 6 59 0 0 0 0 0 0 0 0 0 0 0 0 0 0 0 0 0 0 0 0
5 2 3 1 6 0 0 0 5 15 36 38 52 71 11 38 3 0 0 0 0 6 0 4 38 0 7 0 0 0 0 0 0 0 0 0 0 0 0 0 0 0 0 0 0
7 3 5 6 19 45 16 1 0 10 38 39 82 72 1 10 0 0 0 0 0 7 7 3 36 0 0 0 0 0 0 0 0 0 0 0 0 0 0 0 0 0 0 0 0
9 24 19 14 47 29 42 29 7 0 33 63 90 26 15 0 0 0 0 0 0 6 7 0 15 0 0 0 0 0 0 0 0 0 0 0 0 0 0 0 0 0 0 0 0
10 18 26 26 58 41 28 28 32 18 1 68 94 2 14 0 0 0 0 0 4 3 0 5 11 30 2 0 0 0 0 0 0 0 0 0 0 0 0 0 0 0 0 0 0
6 5 0 10 55 63 66 42 40 59 35 54 13 21 3 1 12 0 0 0 1 54 9 0 61 61 23 0 0 0 0 0 0 0 0 0 0 0 0 0 0 0 0 0 0
22 57 6 5 34 56 69 9 13 25 27 32 37 52 0 3 29 0 0 0 7 60 87 20 77 49 46 20 27 0 0 0 0 0 0 0 0 0 0 0 0 0 0 0 0
23 56 19 0 7 26 54 9 0 2 13 0 0 0 1 0 4 8 0 0 0 59 8 13 149 38 25 13 1 0 0 0 0 0 0 0 0 0 0 0 0 0 0 0 0
19 48 51 14 18 50 18 0 0 0 0 0 0 0 14 72 173 94 8 0 10 7 4 75 69 11 0 0 1 0 0 0 0 0 0 0 0 0 0 0 0 0 0 0 0
8 28 19 0 45 56 4 0 11 23 22 1 0 3 68 8 33 70 1 7 48 0 0 18 2 14 4 7 13 0 0 0 0 0 0 0 0 0 0 0 0 0 0 0 0
11 42 32 21 45 27 7 0 9 14 17 6 2 0 97 106 11 9 0 4 23 0 0 12 55 12 13 0 0 0 0 0 0 0 0 0 0 0 0 0 0 0 0 0 0
41 52 56 6 11 28 17 6 12 13 3 0 3 8 63 8 8 54 0 3 7 0 0 17 70 12 0 0 0 0 0 0 0 0 0 0 0 0 0 0 0 0 0 0 0
32 55 53 13 39 42 9 26 31 14 0 20 24 30 30 22 37 85 0 17 53 4 1 1 38 47 18 0 0 0 0 0 0 0 0 0 0 0 0 0 0 0 0 0 0
32 54 47 31 50 23 28 25 12 12 1 25 14 25 1 1 15 45 21 9 15 6 10 18 50 2 1 0 0 0 0 2 0 0 0 0 0 0 0 0 0 0 0 0 0
22 35 17 5 42 14 21 22 16 0 1 12 2 10 7 17 36 48 3 5 8 8 0 7 1 0 0 0 0 0 0 0 0 0 0 0 0 0 0 0 0 0 0 0 0
18 7 17 3 46 28 15 6 0 0 2 16 9 2 8 21 25 46 23 7 5 0 0 9 0 0 0 0 0 0 0 0 0 0 0 0 0 0 0 0 0 0 0 0 0
0 3 5 1 61 10 7 14 14 17 21 6 0 0 1 3 21 23 0 52 14 1 0 0 0 0 0 0 0 0 0 0 0 0 0 0 0 0 0 0 0 0 0 0 0
0 3 4 14 36 13 8 5 10 14 11 7 10 6 0 0 8 2 1 20 29 7 0 0 0 0 0 0 0 0 0 0 0 0 0 0 0 0 0 0 0 0 0 0 0
0 0 14 32 28 20 16 11 11 24 1 1 13 0 0 0 8 13 3 0 1 2 0 0 0 0 0 0 0 0 0 0 0 0 0 0 0 0 0 0 0 0 0 0 0
0 6 30 20 17 4 10 11 0 33 10 42 19 10 0 0 10 26 0 0 0 1 0 0 0 0 0 0 0 0 0 0 0 0 0 0 0 0 0 0 0 0 0 0 0
0 7 30 10 13 9 40 17 21 38 29 32 0 0 0 27 17 0 0 0 0 0 0 0 0 0 0 0 0 0 0 0 0 0 0 0 0 0 0 0 0 0 0 0 0
0 0 0 1 4 3 19 21 7 30 21 3 11 0 0 20 10 0 0 0 0 0 0 0 0 0 0 0 0 0 0 0 0 0 0 0 0 0 0 0 0 0 0 0 0
0 0 0 0 0 2 2 4 12 9 0 17 1 0 10 0 0 0 0 0 0 0 0 0 0 0 0 0 0 0 0 0 0 0 0 0 0 0 0 0 0 0 0 0 0
0 0 0 0 0 0 0 0 0 0 0 0 0 1 6 0 0 0 0 0 0 0 0 0 0 0 0 0 0 0 0 0 0 0 0 0 0 0 0 0 0 0 0 0 0

GFSSW_con_sbcape_018.txt.gz
CAPE
0 0 0 0 0 0 0 0 0 1 6 28 50 43 60 74 43 17 4 0 0 0 0 0 49 177 47 0 0 0 0 0 0 0 0 0 0 0 0 0 0 0 0 0 0
0 3 0 0 0 0 0 0 0 0 0 0 19 17 45 55 39 27 0 0 0 0 0 2 54 174 99 0 0 0 0 0 0 0 0 0 0 0 0 0 0 0 0 0 0
0 1 0 0 0 0 2 1 6 0 0 0 8 4 35 42 20 4 0 8 28 15 2 0 41 45 128 3 1 0 0 0 0 0 0 0 0 0 0 0 0 0 0 0 0
1 0 0 0 0 0 0 1 1 22 15 13 30 39 59 33 0 40 1 0 0 13 13 0 18 32 64 48 4 0 0 0 0 0 0 0 0 0 0 0 0 0 0 0 0
4 0 0 0 0 0 0 0 0 9 20 27 39 58 44 27 8 11 0 0 0 0 16 0 34 61 81 102 23 0 1 0 0 0 0 0 0 0 0 0 0 0 0 0 0
13 3 0 8 9 0 6 0 0 0 45 50 58 71 17 15 0 0 0 0 0 1 19 6 38 42 82 83 52 2 0 0 0 0 0 0 0 0 0 0 0 0 0 0 0
17 8 26 15 1 0 0 17 12 11 17 57 72 54 36 1 0 0 0 0 0 0 4 24 32 103 59 100 28 40 16 1 0 0 0 0 0 0 0 0 0 0 0 0 0
9 32 15 7 10 0 0 12 40 73 7 43 63 59 19 0 0 0 0 0 0 0 0 7 18 65 62 67 11 47 50 58 0 3 0 0 0 0 0 0 0 0 0 0 0
12 43 35 9 12 24 5 45 41 68 58 42 50 46 13 0 0 0 0 0 5 6 0 5 20 85 122 24 34 29 46 24 4 0 0 0 0 0 0 0 0 0 0 0 0
13 50 49 21 4 9 18 30 18 57 47 41 47 50 0 0 0 0 0 0 17 280 90 133 62 136 185 55 38 24 41 5 11 0 0 0 0 0 0 0 0 0 0 0 0
16 57 46 48 4 0 31 17 10 19 24 0 0 0 0 0 3 0 8 9 17 254 58 140 31 28 24 40 42 30 0 13 11 0 0 0 0 0 0 0 0 0 0 0 0
11 55 55 51 31 19 40 2 0 0 5 3 1 2 13 6 64 44 57 2 24 46 54 79 46 31 51 49 6 16 14 14 10 0 0 0 0 0 0 0 0 0 0 0 0
4 46 41 25 19 31 24 0 0 0 4 6 0 25 28 6 29 131 100 1 1 17 30 16 13 7 74 28 31 38 14 18 2 0 0 0 0 0 0 0 0 0 0 0 0
6 40 59 55 33 29 34 1 0 1 6 13 8 4 23 68 29 18 80 0 61 28 27 12 11 39 41 17 24 38 10 6 0 31 30 0 0 0 0 0 0 0 0 0 0
28 51 67 37 34 11 2 3 0 1 7 5 7 10 5 24 61 0 109 9 42 51 13 1 45 37 52 10 26 16 16 2 32 22 1 3 0 0 0 0 0 0 0 0 0
32 57 54 64 50 35 4 8 13 11 5 22 17 30 15 20 2 87 67 19 30 17 0 1 15 48 93 40 21 8 9 0 0 0 8 1 0 0 0 0 0 0 0 0 0
44 49 42 15 33 44 15 11 10 19 2 27 27 12 12 17 21 37 26 69 3 41 17 0 2 52 87 25 5 30 55 49 27 15 2 0 0 0 0 0 0 0 0 0 0
31 38 23 3 51 53 10 14 26 1 11 10 14 14 19 29 16 30 34 48 36 15 0 31 15 15 38 15 0 4 18 20 12 2 1 0 0 0 0 0 0 0 0 0 0
7 20 20 14 61 69 8 7 7 9 7 18 16 14 20 22 9 28 18 21 14 7 3 9 12 0 1 0 0 0 16 0 0 0 0 0 0 0 0 0 0 0 0 0 0
0 1 1 1 78 51 6 21 13 12 2 11 3 5 15 18 22 39 7 2 4 7 3 0 5 1 0 0 0 2 0 0 0 0 0 0 0 0 0 0 0 0 0 0 0
1 5 2 5 40 4 10 20 15 18 4 20 1 1 2 12 5 24 5 2 0 9 7 1 1 0 0 4 1 1 0 0 0 0 0 0 0 0 0 0 0 0 0 0 0
5 17 9 4 12 11 17 16 10 10 4 5 5 0 0 0 3 28 2 16 0 9 16 0 1 0 0 0 0 0 0 1 4 0 0 0 0 0 0 0 0 0 0 0 0
1 16 21 40 13 19 14 19 11 6 5 3 29 0 0 0 0 9 3 0 11 19 13 0 5 5 1 0 0 0 0 0 0 0 0 0 0 0 0 0 0 0 0 0 0
1 29 22 10 14 17 8 9 18 0 4 9 21 33 0 0 2 0 23 0 0 0 1 0 0 0 0 0 0 0 0 0 0 0 0 0 0 0 0 0 0 0 0 0 0
0 2 2 9 6 7 14 19 11 24 30 43 26 2 0 0 9 11 25 2 0 1 0 0 8 0 0 0 0 0 0 0 0 0 0 0 0 0 0 0 0 0 0 0 0
0 0 0 4 5 9 2 15 21 2 13 10 35 7 0 0 7 3 13 0 1 6 2 0 9 0 0 0 0 0 0 0 0 0 0 0 0 0 0 0 0 0 0 0 0
0 0 0 0 0 6 2 8 19 4 2 0 3 7 9 0 2 7 3 0 0 0 1 7 0 0 0 0 0 0 0 0 0 0 0 0 0 0 0 0 0 0 0 0 0

GFSSW_con_sbcape_021.txt.gz
CAPE
3 3 0 0 0 0 0 0 0 0 0 1 16 40 65 84 40 11 0 0 0 0 0 0 0 60 140 78 2 0 6 5 0 0 0 0 0 0 0 0 0 0 0 0 0
3 4 1 0 0 0 0 0 0 0 0 0 2 16 50 35 38 27 0 0 0 0 0 0 0 5 195 90 19 0 2 0 0 1 0 1 0 0 0 0 0 0 0 0 0
5 4 6 0 2 0 0 0 0 0 0 0 0 33 47 36 36 14 0 1 13 10 0 0 0 39 62 185 33 29 7 1 0 2 0 0 0 0 0 0 0 0 0 0 0
5 8 3 0 3 2 0 0 0 0 6 1 18 45 60 28 3 38 0 0 3 14 3 1 0 7 35 86 66 45 22 1 9 3 0 0 0 0 0 0 0 0 0 0 0
4 14 6 0 9 14 7 0 0 0 0 26 34 54 40 38 6 33 0 0 0 0 8 4 0 0 5 14 141 40 24 15 4 6 0 0 0 0 0 0 0 0 0 0 0
1 12 7 0 1 8 0 4 0 0 0 3 49 75 37 14 0 4 29 0 0 1 11 22 7 0 9 7 25 27 24 14 23 8 0 0 0 0 0 0 0 0 0 0 0
1 7 24 0 30 31 47 14 4 0 0 0 42 39 37 0 0 0 0 0 0 0 26 26 37 35 27 28 15 78 43 23 31 27 0 1 0 0 0 0 0 0 0 0 0
1 5 41 13 20 38 45 32 14 12 0 0 27 54 45 0 1 2 0 0 0 0 0 16 52 25 44 70 52 49 149 33 20 18 0 1 0 0 0 0 0 0 0 0 0
3 22 41 17 0 23 48 50 50 20 24 7 1 60 21 0 0 0 3 0 1 0 0 13 29 42 38 108 86 104 55 31 28 14 0 6 0 0 0 0 0 0 0 0 0
48 28 37 47 10 17 25 48 41 32 37 29 18 33 0 0 0 0 0 0 6 6 8 15 55 58 42 121 58 13 44 38 34 7 4 1 0 0 0 0 0 0 0 0 0
58 38 37 48 32 8 23 10 1 3 26 1 0 0 0 0 1 0 0 5 11 24 51 51 129 78 2 75 18 59 70 31 38 0 19 7 0 0 0 0 0 0 0 0 0
53 48 59 58 55 25 42 7 0 0 8 6 3 2 4 6 17 3 12 14 27 25 38 283 186 94 0 0 96 27 62 53 19 15 3 0 0 0 0 0 0 0 0 0 0
57 55 68 69 51 28 24 0 0 0 3 0 2 5 3 11 12 15 43 54 36 77 161 243 58 105 21 59 46 27 79 19 13 29 0 0 0 0 0 0 0 0 0 0 0
63 51 69 56 9 5 48 1 0 0 1 4 11 2 1 33 26 1 67 77 79 74 144 127 114 2 94 10 133 177 33 19 5 18 13 14 0 0 0 0 0 0 0 0 0
57 57 76 53 46 64 8 2 0 0 10 5 8 7 15 31 18 36 6 165 82 68 1 2 30 13 42 8 26 51 46 1 21 31 20 11 9 0 0 0 0 0 0 0 0
48 61 77 59 32 49 1 1 4 5 8 16 11 25 20 20 11 60 37 94 81 18 32 1 19 65 7 26 12 32 21 44 22 25 18 0 9 0 0 0 0 0 0 0 0
49 44 42 8 15 22 4 9 13 15 2 22 19 22 18 19 35 21 56 68 119 32 27 5 2 0 8 41 20 28 41 56 33 32 0 0 13 5 0 0 0 0 0 0 0
42 32 20 3 47 11 9 4 25 3 3 9 15 16 26 5 27 25 26 92 17 7 9 33 29 10 0 72 30 46 1 7 15 7 0 0 0 0 0 0 0 0 0 0 0
33 35 15 7 73 40 9 8 18 24 7 14 17 28 24 7 20 22 28 13 13 9 8 39 1 0 7 53 11 22 63 0 0 0 35 0 0 0 0 0 0 0 0 0 0
9 1 2 4 44 43 13 14 26 26 10 15 35 7 19 9 17 21 16 2 9 6 0 5 1 1 1 0 0 0 18 4 0 0 4 0 0 0 0 0 0 0 0 0 0
0 2 4 44 35 36 2 15 24 16 7 11 20 9 9 8 16 18 0 5 0 1 16 14 5 1 1 11 0 1 32 15 2 0 44 9 1 0 0 0 0 0 0 0 0
1 3 8 4 17 15 6 9 18 19 17 21 23 14 12 11 12 23 10 4 0 7 17 16 10 3 4 0 1 7 9 25 35 0 0 0 0 0 0 0 0 0 0 0 0
6 28 10 3 6 7 12 13 15 12 19 14 21 21 3 16 9 14 3 5 11 14 6 3 2 7 5 1 0 11 1 6 4 0 0 0 2 0 0 0 0 0 0 0 0
8 35 41 19 5 12 13 13 16 11 6 18 6 25 7 3 5 1 13 8 17 0 17 14 1 1 0 0 0 0 0 0 17 8 0 1 0 0 0 0 0 0 0 0 0
0 18 3 12 11 10 15 12 15 21 6 9 33 25 5 0 0 1 0 9 1 33 10 25 9 0 0 0 0 0 0 7 2 3 0 0 0 0 0 0 0 0 0 0 0
0 1 15 16 0 3 4 10 17 8 33 10 13 4 10 0 0 2 0 12 9 39 45 44 16 1 0 0 0 0 0 0 0 0 0 0 0 0 0 0 0 0 0 0 0
0 0 0 13 31 16 22 0 5 11 14 10 0 11 13 0 0 30 13 3 12 1 4 27 20 23 16 0 0 0 0 0 0 0 0 0 0 0 0 0 0 0 0 0 0

GFSSW_con_sbcape_024.txt.gz
CAPE
0 1 6 5 2 0 0 0 0 0 0 0 9 21 28 25 28 7 0 0 0 0 0 0 0 0 1 80 108 16 0 0 0 0 0 0 0 0 0 0 0 0 0 0 0
1 2 4 8 4 1 0 0 0 0 0 0 0 0 8 3 4 14 0 2 6 4 0 0 0 0 0 83 91 5 0 0 0 0 0 0 0 0 0 0 0 0 0 0 0
2 4 1 6 3 6 0 0 0 1 0 0 0 2 4 7 10 0 5 2 56 31 0 0 0 0 14 23 64 5 0 0 0 0 1 0 0 0 0 0 0 0 0 0 0
4 4 2 0 0 8 5 0 0 0 9 1 0 0 7 1 0 13 1 0 0 23 7 0 0 0 9 22 18 28 3 0 0 0 9 1 0 0 0 0 0 0 0 0 0
1 4 4 0 0 3 0 0 0 0 12 10 20 35 0 4 0 17 0 0 0 0 2 1 2 0 0 5 23 28 22 3 1 0 1 0 0 0 0 0 0 0 0 0 0
0 2 6 0 3 10 8 0 0 2 0 42 57 59 6 2 0 0 9 0 0 0 1 1 12 3 0 1 0 51 62 23 9 1 0 0 0 0 0 0 0 0 0 0 0
6 7 18 12 1 22 1 1 0 17 25 28 66 46 21 0 0 0 8 1 0 0 0 16 15 34 16 8 9 0 8 67 8 2 2 3 0 0 0 0 0 0 0 0 0
16 25 29 47 17 20 2 0 2 11 31 19 50 58 26 0 0 0 0 0 0 0 0 0 13 26 39 13 36 45 30 14 0 8 0 3 0 0 0 0 0 0 0 0 0
34 40 44 61 49 24 1 9 18 25 35 24 10 44 4 0 0 0 0 0 0 0 0 0 2 37 23 23 41 25 0 0 0 1 3 0 0 0 0 0 0 0 0 0 0
62 53 51 63 75 38 13 0 8 9 35 35 19 15 0 0 0 0 0 1 2 4 17 15 19 45 41 31 4 3 13 0 2 1 9 0 0 0 0 0 0 0 0 0 0
63 50 51 67 79 46 12 0 0 0 9 0 0 0 0 0 0 0 0 0 5 19 28 38 30 14 1 0 0 0 5 39 9 32 14 0 0 0 0 0 0 0 0 0 0
67 45 48 71 73 57 31 8 1 0 2 1 0 0 0 9 6 0 0 4 14 22 22 36 23 0 0 3 6 10 15 11 40 47 15 0 0 0 0 0 0 0 0 0 0
66 54 51 74 51 67 27 3 0 0 3 7 0 0 0 4 11 12 4 0 3 17 27 17 0 0 14 18 21 8 33 0 0 9 25 1 0 0 0 0 0 0 0 0 0
69 70 63 49 5 0 12 27 0 0 0 2 1 1 1 0 5 0 3 16 17 17 15 29 0 20 44 19 21 16 0 24 3 68 18 0 0 0 0 0 0 0 0 0 0
73 76 50 0 46 44 8 0 0 0 1 0 4 2 12 0 0 3 0 27 26 4 33 1 10 43 79 12 4 1 18 2 19 10 30 42 7 0 0 0 0 0 0 0 0
62 65 46 36 13 7 2 0 0 1 0 4 3 10 14 25 15 6 1 21 44 51 35 9 45 30 21 85 1 0 36 6 16 32 13 1 9 0 0 0 0 0 0 0 0
63 57 27 0 1 0 0 0 4 15 0 15 11 11 7 13 15 13 32 32 52 103 26 4 1 0 38 40 17 43 101 6 11 66 29 0 0 0 0 0 0 0 0 0 0
57 54 21 3 1 0 1 1 2 3 0 6 10 7 31 4 4 7 32 27 29 18 4 9 0 2 3 6 26 25 1 1 5 0 0 0 0 0 0 0 0 0 0 0 0
59 58 9 13 5 0 14 2 0 9 7 10 11 31 37 13 15 11 12 5 1 21 19 103 7 0 0 16 23 5 3 0 60 4 1 0 0 0 0 0 0 0 0 0 0
78 16 6 0 3 3 31 20 11 9 11 10 15 10 5 8 10 14 7 0 0 6 0 1 16 0 1 11 41 54 0 46 0 36 41 0 0 0 0 0 0 0 0 0 0
0 1 0 0 30 22 3 16 12 14 12 16 26 20 0 4 3 24 9 3 0 4 1 0 3 2 1 2 5 36 13 0 15 9 22 0 0 0 0 0 0 0 0 0 0
1 2 3 8 26 20 9 2 5 16 20 23 20 24 9 16 4 17 5 0 0 0 6 0 11 3 4 0 0 5 0 12 11 2 0 0 0 0 0 0 0 0 0 0 0
1 18 13 9 3 5 1 5 6 22 20 13 15 20 10 24 6 4 26 2 0 1 0 8 14 3 3 2 34 8 2 1 14 0 0 0 0 0 0 0 0 0 0 0 0
1 18 30 10 11 8 7 9 13 9 12 18 16 13 9 17 2 4 5 42 8 0 13 35 13 5 4 0 1 9 0 0 0 9 0 0 0 0 0 0 0 0 0 0 0
0 11 3 9 3 5 4 7 10 10 6 2 19 9 15 11 0 1 2 24 45 0 6 9 8 4 0 0 0 0 6 1 1 4 0 0 0 0 0 0 0 0 0 0 0
0 0 3 15 0 3 8 13 15 13 22 11 4 1 0 8 0 0 3 3 0 1 0 0 4 0 0 0 0 0 0 0 0 0 0 0 0 0 0 0 0 0 0 0 0
0 0 0 2 12 8 8 1 8 12 14 11 0 1 25 23 0 9 1 0 10 0 0 8 13 15 0 0 0 0 0 0 0 0 0 0 0 0 0 0 0 0 0 0 0

GFSSW_con_sbcape_027.txt.gz
CAPE
1 1 1 1 0 0 0 0 0 0 0 0 5 25 18 14 13 0 0 0 0 0 0 0 0 0 0 0 0 0 0 0 0 0 0 0 0 0 0 0 0 0 0 0 0
2 3 4 3 1 0 0 0 0 0 0 0 0 0 11 12 2 3 0 1 39 0 0 0 0 0 0 0 0 3 0 0 0 0 0 0 0 0 0 0 0 0 0 0 0
2 5 7 1 2 0 1 0 1 0 2 0 0 0 9 19 1 0 0 0 44 57 2 0 0 0 0 0 0 4 0 0 0 0 0 0 0 0 0 0 0 0 0 0 0
0 5 8 4 0 0 6 2 0 0 7 1 0 0 20 8 0 0 0 0 9 36 25 0 0 0 0 2 0 2 0 0 0 0 0 0 0 0 0 0 0 0 0 0 0
0 0 6 10 3 0 3 0 0 0 0 2 9 31 8 3 0 1 0 0 0 0 18 6 0 0 0 0 0 2 0 0 0 0 0 0 0 0 0 0 0 0 0 0 0
26 0 2 10 7 2 7 15 0 0 0 0 0 37 21 3 0 0 0 0 0 0 0 1 3 0 0 0 0 0 0 0 0 0 0 0 0 0 0 0 0 0 0 0 0
47 24 7 12 2 3 28 10 24 2 0 0 0 13 11 0 0 0 0 0 0 0 0 1 5 19 13 1 0 0 0 0 0 0 0 0 0 0 0 0 0 0 0 0 0
62 49 15 5 19 16 10 0 3 26 7 2 0 13 1 0 0 0 0 0 0 0 0 0 0 0 8 14 0 1 1 0 0 0 0 5 0 0 0 0 0 0 0 0 0
75 60 36 28 40 38 3 0 0 10 42 30 2 12 0 0 0 0 0 0 0 0 0 0 0 0 0 16 7 3 2 4 0 0 3 13 0 0 0 0 0 0 0 0 0
76 70 46 47 65 53 6 0 0 17 40 33 9 6 0 0 0 0 0 0 0 0 6 0 0 0 0 22 8 0 5 0 0 0 0 3 0 0 0 0 0 0 0 0 0
92 70 67 56 70 47 0 0 0 0 15 0 0 0 0 0 0 0 0 0 0 0 1 1 0 2 0 0 0 0 0 0 0 0 3 0 0 0 0 0 0 0 0 0 0
88 78 97 61 80 37 0 0 3 0 4 1 0 0 0 1 0 0 0 0 0 2 0 1 5 0 0 0 10 5 0 0 0 0 26 5 1 0 0 0 0 0 0 0 0
93 73 87 63 68 42 3 0 0 0 2 0 0 1 0 0 2 0 0 0 0 1 0 0 0 0 0 0 8 13 1 0 0 0 0 5 0 0 0 0 0 0 0 0 0
91 86 82 63 16 0 11 0 0 0 5 0 1 2 4 1 0 1 3 2 11 5 3 16 0 0 2 2 4 21 0 3 2 27 1 27 8 0 0 0 0 0 0 0 0
106 105 74 1 0 0 0 0 0 3 0 0 1 0 9 1 4 1 0 12 27 4 2 1 0 0 2 0 22 0 0 7 14 29 51 3 11 0 0 0 0 0 0 0 0
104 110 50 13 0 0 0 0 0 1 0 1 0 0 19 15 8 3 1 14 22 20 19 3 0 16 0 0 24 0 7 1 24 52 73 7 30 0 0 0 0 0 0 0 0
97 105 29 6 1 0 0 0 0 1 0 3 5 5 1 10 7 10 25 14 12 20 2 4 8 0 0 4 20 36 34 27 34 36 6 0 18 0 0 0 0 0 0 0 0
84 74 17 0 0 0 0 13 5 0 0 1 5 0 13 1 11 0 31 9 7 12 40 0 0 0 0 0 0 1 4 5 9 0 0 14 0 0 0 0 0 0 0 0 0
59 62 8 3 0 0 1 6 0 0 0 3 8 28 17 2 5 0 0 9 0 0 14 18 5 10 0 0 1 2 20 0 13 2 1 18 0 0 0 0 0 0 0 0 0
47 65 10 2 0 0 5 1 0 0 1 6 27 7 3 0 3 1 0 0 0 0 0 2 7 0 0 15 6 124 20 18 24 12 0 0 0 0 0 0 0 0 0 0 0
2 33 13 1 4 17 1 11 0 2 5 17 25 21 8 4 0 0 0 0 0 0 0 5 13 10 7 20 11 16 22 30 73 9 0 0 0 0 0 0 0 0 0 0 0
1 20 7 6 12 18 22 2 5 5 15 25 17 26 21 1 0 0 0 0 0 0 3 5 29 19 2 1 2 13 2 7 2 0 1 0 0 0 0 0 0 0 0 0 0
6 28 13 4 2 10 12 10 5 10 14 14 19 14 5 8 24 0 0 1 0 0 1 8 11 13 4 9 18 11 1 2 16 0 0 0 0 0 0 0 0 0 0 0 0
0 16 39 14 8 4 7 11 9 3 11 17 20 18 27 1 0 0 0 1 0 0 8 0 11 4 10 9 0 3 20 13 7 0 0 0 0 0 0 0 0 0 0 0 0
1 11 4 1 4 3 4 8 9 6 8 14 10 25 13 7 12 0 0 15 0 3 22 59 7 15 8 0 0 0 0 0 0 0 0 0 0 0 0 0 0 0 0 0 0
0 0 1 0 0 7 11 18 11 6 12 9 11 3 7 9 0 0 8 2 2 7 0 12 6 9 5 0 0 0 0 0 0 0 0 0 0 0 0 0 0 0 0 0 0
0 0 5 6 1 7 6 5 2 3 5 8 3 3 4 0 0 0 12 4 11 0 0 0 1 12 0 0 0 0 0 0 0 0 0 1 0 0 0 0 0 0 0 0 0

GFSSW_con_sbcape_030.txt.gz
CAPE
0 0 4 8 4 1 0 1 0 0 0 0 9 28 24 13 21 1 0 0 0 0 0 0 0 0 0 0 0 0 0 0 0 0 0 0 0 0 0 0 0 0 0 0 0
0 2 4 7 10 5 4 0 1 0 0 0 1 7 33 4 1 0 0 23 34 2 0 0 0 0 0 0 0 3 2 0 0 0 0 0 0 0 0 0 0 0 0 0 0
0 2 5 11 4 2 2 0 0 0 0 0 0 6 0 0 0 0 0 0 38 44 0 0 0 0 0 0 0 4 4 0 0 0 0 0 0 0 0 0 0 0 0 0 0
18 1 4 8 4 0 5 0 0 0 0 4 0 0 0 0 0 0 0 0 20 43 1 0 0 0 0 0 0 0 0 1 0 0 0 0 0 0 0 0 0 0 0 0 0
28 18 1 4 7 0 0 0 0 0 0 0 0 7 0 5 0 0 0 0 0 12 18 10 0 0 0 0 0 0 0 0 0 0 0 0 0 0 0 0 0 0 0 0 0
51 23 11 1 11 0 0 0 0 0 0 0 10 10 0 0 0 0 0 0 0 0 0 2 1 0 0 0 0 0 0 0 0 0 0 0 0 0 0 0 0 0 0 0 0
106 75 33 29 12 0 8 12 10 0 0 0 0 2 12 0 0 0 0 0 0 4 0 0 1 0 0 0 0 0 0 0 0 0 0 0 0 0 0 0 0 0 0 0 0
96 97 64 37 14 21 20 4 0 0 0 10 0 0 0 0 0 0 0 0 0 0 0 0 0 0 0 1 0 0 0 0 0 0 0 0 0 0 0 0 0 0 0 0 0
129 98 90 56 59 67 36 0 0 0 7 32 2 1 0 0 0 0 0 0 0 0 0 0 0 0 0 22 13 0 0 0 2 0 0 0 0 0 0 0 0 0 0 0 0
102 79 81 69 69 71 27 0 0 3 36 35 9 3 0 0 0 0 0 0 0 0 0 0 0 0 3 12 2 0 0 0 0 0 0 0 0 0 0 0 0 0 0 0 0
125 92 79 86 81 74 2 0 0 0 17 0 0 0 0 0 0 0 0 0 0 0 1 0 3 0 0 0 0 0 0 0 0 0 0 0 0 0 0 0 0 0 0 0 0
90 103 102 91 85 57 0 0 0 0 0 0 1 0 0 0 0 0 0 0 0 1 0 4 14 5 0 0 0 0 0 0 0 0 0 0 0 0 0 0 0 0 0 0 0
106 90 97 107 86 37 1 0 0 0 2 3 0 7 4 5 3 4 0 0 0 0 0 1 0 0 0 0 0 0 3 1 0 0 0 0 0 0 0 0 0 0 0 0 0
97 112 110 108 11 1 2 0 0 2 1 0 0 5 7 25 3 3 7 2 4 1 0 10 0 0 1 2 0 1 0 1 0 8 0 26 10 0 0 0 0 0 0 0 0
74 116 123 14 0 0 0 0 0 17 0 0 0 0 7 12 0 2 0 9 12 3 0 0 0 0 0 0 1 0 0 0 18 6 14 0 10 0 0 0 0 0 0 0 0
81 110 81 4 0 0 0 0 1 0 0 2 0 1 11 9 11 2 3 17 9 22 10 8 4 2 0 0 7 26 19 29 21 42 40 0 1 0 0 0 0 0 0 0 0
91 105 39 0 1 0 0 0 0 0 0 1 3 2 0 6 0 10 21 15 27 15 4 9 10 2 8 6 20 21 23 24 18 19 0 0 0 0 0 0 0 0 0 0 0
78 84 21 0 0 0 0 10 0 0 0 0 0 2 2 0 3 1 7 27 9 1 6 0 0 0 0 0 0 7 8 26 0 0 0 79 6 0 0 0 0 0 0 0 0
54 97 7 6 0 0 1 3 0 0 0 0 3 7 10 4 0 9 2 0 0 0 0 0 0 0 0 0 2 0 39 0 1 2 29 0 0 0 0 0 0 0 0 0 0
65 54 11 0 0 0 7 0 0 0 0 1 0 1 5 2 10 10 0 0 0 0 0 0 1 0 1 1 1 0 2 17 33 2 17 1 0 0 0 0 0 0 0 0 0
56 69 20 3 6 13 3 13 0 0 0 0 2 17 10 1 0 0 0 0 0 0 0 0 26 1 8 2 3 10 5 11 0 0 1 38 0 0 0 0 0 0 0 0 0
56 6 10 10 14 6 9 4 0 0 1 9 3 17 25 22 25 0 0 0 0 0 1 5 29 12 0 1 0 0 0 0 13 0 0 3 0 0 0 0 0 0 0 0 0
73 33 9 11 1 4 8 2 1 1 5 12 14 11 7 15 39 0 0 0 0 0 3 12 21 6 10 9 18 4 13 0 1 24 4 22 0 0 0 0 0 0 0 0 0
57 17 29 19 10 2 6 3 8 3 14 6 8 18 22 21 8 2 0 0 0 0 0 7 11 2 8 13 11 28 17 3 0 3 0 0 0 0 0 0 0 0 0 0 0
45 19 4 3 13 6 2 15 9 18 2 11 11 14 22 24 0 0 0 0 0 2 10 13 8 2 2 3 9 4 11 14 6 0 0 0 4 0 0 0 0 0 0 0 0
15 5 1 0 3 6 4 10 8 4 5 10 9 4 12 20 0 0 0 0 14 0 8 30 2 4 5 1 12 14 12 9 8 3 0 0 0 0 0 0 0 0 0 0 0
0 0 1 0 4 1 9 3 4 10 4 0 1 7 10 2 0 0 0 0 20 3 2 9 9 5 5 1 6 5 0 10 8 13 4 4 0 0 0 0 0 0 0 0 0

GFSSW_con_sbcape_033.txt.gz
CAPE
0 0 4 4 10 9 3 0 2 2 1 0 7 27 28 24 45 7 1 0 0 0 0 0 0 0 0 0 0 0 0 0 0 0 0 0 0 0 0 0 0 0 0 0 0
11 0 3 8 6 14 9 2 0 0 4 0 0 4 20 2 2 6 0 20 38 23 0 0 0 0 0 0 0 6 0 0 0 0 0 0 0 0 0 0 0 0 0 0 0
28 13 0 13 15 9 4 6 0 0 3 0 0 0 0 0 0 0 0 7 47 54 0 0 0 0 0 0 0 1 2 0 0 0 0 0 0 0 0 0 0 0 0 0 0
45 28 7 3 29 9 2 5 0 0 1 1 0 0 0 0 0 0 0 0 4 14 0 0 0 0 0 0 0 0 0 0 0 0 0 0 0 0 0 0 0 0 0 0 0
70 41 17 0 6 19 0 7 0 0 0 0 0 9 0 0 0 0 0 0 0 15 21 2 0 0 0 0 0 0 0 0 0 0 0 0 0 0 0 0 0 0 0 0 0
109 85 50 18 0 17 9 8 11 0 0 0 0 8 0 0 0 0 0 0 0 3 0 3 1 0 2 0 0 0 0 0 0 0 0 0 0 0 0 0 0 0 0 0 0
120 131 83 44 2 17 13 28 21 7 0 0 0 0 1 0 0 0 0 0 0 0 0 0 7 9 3 4 0 0 0 0 0 0 0 0 0 0 0 0 0 0 0 0 0
141 126 103 71 36 3 16 42 18 21 18 6 0 0 0 0 0 0 0 0 0 0 0 0 0 4 0 0 0 2 0 0 0 0 0 0 0 0 0 0 0 0 0 0 0
131 129 106 86 58 53 56 38 7 10 19 40 0 0 0 0 0 0 0 0 0 0 0 0 0 0 0 18 6 0 1 0 0 0 0 0 0 0 0 0 0 0 0 0 0
94 118 94 88 79 79 64 18 6 7 29 57 1 0 0 0 0 0 0 0 0 0 0 0 0 0 10 13 0 0 3 0 0 0 0 0 0 0 0 0 0 0 0 0 0
86 83 92 96 95 107 28 0 0 1 20 1 0 0 0 0 0 0 0 0 0 0 0 0 1 0 0 0 0 0 0 0 0 0 0 0 0 0 0 0 0 0 0 0 0
22 92 91 108 118 100 0 0 0 0 1 0 0 0 0 0 0 0 0 0 0 0 0 0 3 0 0 0 0 2 2 0 0 0 0 0 0 0 0 0 0 0 0 0 0
40 20 89 126 96 38 0 0 0 0 0 0 0 2 1 0 21 1 0 0 0 0 0 0 0 0 0 0 0 0 0 2 2 0 0 0 0 0 0 0 0 0 0 0 0
47 1 132 103 81 11 6 0 0 2 0 0 0 0 13 37 14 2 1 0 0 0 0 1 0 0 0 0 0 5 0 0 0 29 2 0 0 0 0 0 0 0 0 0 0
60 1 74 103 0 0 0 0 0 6 0 0 0 3 18 9 0 0 4 8 7 0 0 0 0 0 1 0 0 1 0 2 15 6 0 0 0 0 0 0 0 0 0 0 0
83 0 66 4 0 0 0 0 9 0 0 2 0 7 18 15 17 0 2 21 6 16 15 0 2 0 0 0 0 8 16 21 17 10 7 0 0 0 0 0 0 0 0 0 0
125 7 69 1 0 0 0 0 0 0 0 1 2 0 0 1 6 12 2 23 30 29 8 5 10 3 0 0 0 0 32 10 3 20 0 0 0 0 0 0 0 0 0 0 0
113 47 38 2 0 0 7 0 0 0 0 0 0 2 0 0 2 2 18 15 3 8 1 0 0 0 0 3 0 0 1 11 10 1 0 0 0 0 0 0 0 0 0 0 0
82 27 77 5 0 19 15 1 0 0 0 0 1 3 0 1 1 10 15 1 0 3 9 0 0 0 0 0 0 1 17 0 1 3 19 0 0 0 0 0 0 0 0 0 0
55 53 66 40 0 11 0 0 0 0 0 0 0 0 0 1 5 15 3 0 1 0 0 0 0 0 0 0 0 0 0 3 14 0 9 0 0 0 0 0 0 0 0 0 0
0 44 73 23 7 3 0 10 0 0 0 0 0 1 0 2 2 1 0 0 0 0 0 0 8 0 7 2 2 11 15 9 0 0 0 0 0 0 0 0 0 0 0 0 0
33 3 53 0 0 3 8 0 0 0 0 0 0 0 8 0 10 0 0 0 0 0 1 0 18 4 0 0 6 7 0 5 3 0 0 17 0 0 0 0 0 0 0 0 0
10 35 27 7 0 1 9 0 1 1 0 0 0 1 10 11 42 0 0 0 0 0 0 4 17 2 0 6 12 20 14 6 0 0 0 0 0 0 0 0 0 0 0 0 0
15 3 42 11 16 2 7 9 1 5 1 0 3 10 22 33 15 3 0 0 0 0 0 1 10 2 0 0 4 15 13 6 0 0 0 0 0 0 0 0 0 0 0 0 0
9 6 4 3 8 2 0 0 2 20 3 12 12 13 17 27 8 10 0 0 0 0 0 1 3 3 3 3 8 8 0 6 4 0 0 0 0 0 0 0 0 0 0 0 0
8 32 13 3 9 5 1 4 3 13 7 7 17 1 8 23 2 0 0 0 0 0 6 16 3 6 0 3 4 24 8 1 9 0 1 10 0 0 0 0 0 0 0 0 0
28 15 3 16 11 13 9 8 2 9 4 1 1 5 14 4 2 0 0 0 0 1 8 8 8 7 5 9 10 13 5 0 4 0 0 2 0 0 0 0 0 0 0 0 0

GFSSW_con_sbcape_036.txt.gz
CAPE
13 9 0 0 8 13 7 2 1 7 6 1 6 19 36 80 59 19 3 0 0 0 0 0 0 0 0 0 0 0 0 0 0 0 0 0 0 0 0 0 0 0 0 0 0
25 22 12 0 1 16 13 2 0 4 2 0 0 7 25 6 1 21 0 9 47 26 0 0 0 0 0 0 0 8 0 0 0 0 0 0 0 0 0 0 0 0 0 0 0
71 38 30 15 1 8 11 6 1 0 0 0 0 0 1 0 0 0 0 12 75 66 0 0 0 0 0 0 0 0 3 0 0 0 0 0 0 0 0 0 0 0 0 0 0
80 82 43 33 8 12 0 9 8 0 0 4 1 0 0 0 0 0 0 0 7 30 0 0 0 0 0 0 0 0 0 0 0 0 0 0 0 0 0 0 0 0 0 0 0
124 122 86 42 24 10 6 0 16 5 0 4 11 13 0 0 0 0 0 0 0 2 28 14 0 0 0 0 0 0 0 0 0 0 0 0 0 0 0 0 0 0 0 0 0
140 143 111 90 53 27 11 0 14 8 0 0 1 9 0 0 0 0 0 0 0 31 31 14 5 0 0 0 0 0 0 0 0 0 0 0 0 0 0 0 0 0 0 0 0
81 132 99 93 69 31 45 6 24 29 3 0 6 0 0 0 0 0 0 0 0 0 1 0 0 0 5 0 0 0 0 0 0 0 0 0 0 0 0 0 0 0 0 0 0
33 86 125 115 93 57 50 42 48 45 11 11 3 0 0 0 0 0 0 0 0 0 0 0 8 18 0 0 0 8 0 0 0 0 0 0 0 0 0 0 0 0 0 0 0
24 45 107 116 107 89 96 67 40 7 8 39 2 0 0 0 0 0 0 0 0 0 0 0 0 0 0 6 0 2 0 0 0 0 0 0 0 0 0 0 0 0 0 0 0
23 27 50 72 123 103 126 54 21 11 19 37 1 0 0 0 0 0 0 0 0 0 0 0 0 0 0 2 0 0 0 0 0 0 0 0 0 0 0 0 0 0 0 0 0
39 29 33 63 109 124 53 0 0 0 10 1 0 0 0 0 0 0 0 0 0 0 0 0 0 1 0 0 0 0 0 0 0 0 0 0 0 0 0 0 0 0 0 0 0
50 51 69 6 116 134 0 0 0 0 0 0 0 0 0 0 0 0 0 0 0 0 0 0 3 0 0 0 0 0 2 3 0 0 0 0 0 0 0 0 0 0 0 0 0
67 56 100 13 68 47 0 0 0 0 0 0 0 6 0 2 5 0 0 0 0 0 0 0 0 0 0 0 0 0 1 1 0 0 0 0 0 0 0 0 0 0 0 0 0
53 67 43 62 36 4 5 0 0 0 0 0 2 0 2 6 8 0 0 0 0 0 0 0 0 0 0 0 0 3 0 0 0 0 0 0 0 0 0 0 0 0 0 0 0
101 51 55 64 71 2 0 0 0 0 0 0 1 6 19 0 0 0 1 13 8 0 0 0 0 0 1 0 0 1 0 0 0 0 0 0 3 0 0 0 0 0 0 0 0
69 41 79 25 71 1 0 0 0 0 0 4 0 17 31 20 15 0 12 23 5 18 8 0 0 0 0 0 0 1 2 7 15 37 13 0 0 0 0 0 0 0 0 0 0
171 58 59 45 30 0 0 13 1 1 0 1 7 5 5 5 13 5 11 23 13 18 10 2 6 2 1 3 0 0 14 0 0 2 0 0 0 0 0 0 0 0 0 0 0
115 95 96 94 2 0 0 2 0 0 0 0 0 1 1 1 0 5 16 14 17 14 1 0 0 1 7 1 0 0 1 0 0 0 0 0 0 0 0 0 0 0 0 0 0
132 38 52 114 10 2 11 0 0 0 0 1 3 0 1 0 0 3 14 7 0 11 9 1 0 0 0 0 2 3 3 0 1 0 1 0 0 0 0 0 0 0 0 0 0
19 19 67 20 44 10 2 0 0 0 0 0 0 0 0 0 1 12 2 0 1 0 0 0 0 0 0 0 1 1 0 11 1 2 0 0 0 0 0 0 0 0 0 0 0
3 12 62 37 71 18 0 0 0 0 0 0 0 0 0 0 0 3 0 0 0 0 0 0 0 0 0 8 0 9 12 13 2 0 0 0 0 0 0 0 0 0 0 0 0
35 15 62 64 1 6 6 0 0 0 0 0 0 0 0 0 0 2 0 0 0 0 1 1 9 2 0 0 0 0 2 1 1 0 0 0 0 0 0 0 0 0 0 0 0
16 19 81 44 0 1 8 0 0 0 0 0 0 0 0 1 9 8 0 0 0 0 0 0 12 0 0 0 1 10 8 4 2 6 0 0 0 0 0 0 0 0 0 0 0
12 7 29 11 6 4 7 0 0 0 0 0 0 0 5 21 12 4 5 0 0 0 0 0 4 0 0 0 0 9 15 2 2 1 0 0 0 0 0 0 0 0 0 0 0
6 3 3 1 4 8 2 0 0 0 0 0 2 3 2 25 5 14 5 0 0 0 3 4 8 5 3 1 3 6 8 6 4 0 0 0 0 0 0 0 0 0 0 5 0
18 22 11 0 10 8 4 0 0 0 0 4 2 1 0 17 7 0 0 2 1 0 0 6 11 9 1 1 6 2 17 16 5 4 1 0 0 0 0 0 0 0 0 2 0
27 17 2 7 17 10 2 0 0 0 0 0 0 1 8 2 1 2 1 0 0 5 22 10 7 8 0 1 8 4 6 16 3 0 0 0 0 0 0 0 0 0 0 0 0

GFSSW_con_sbcape_039.txt.gz
CAPE
113 51 22 11 0 2 9 10 12 5 1 1 0 9 41 53 63 8 1 0 0 0 0 0 0 0 0 0 0 0 0 0 0 0 0 0 0 0 0 0 0 0 0 0 0
97 105 52 20 3 0 5 12 5 2 3 3 0 2 17 2 16 22 6 16 69 53 0 0 0 0 0 0 0 0 1 0 0 0 0 0 0 0 0 0 0 0 0 0 0
98 122 116 57 15 0 4 7 0 0 4 7 0 0 0 0 0 0 2 18 93 78 0 0 0 0 0 0 0 0 0 0 0 0 0 0 0 0 0 0 0 0 0 0 0
48 112 135 120 37 2 1 6 2 2 0 12 5 0 0 0 0 0 0 0 8 56 0 0 0 0 0 0 0 0 0 0 0 0 0 0 0 0 0 0 0 0 0 0 0
23 77 110 151 94 16 4 2 0 8 0 2 5 1 0 0 0 0 0 0 0 0 4 0 0 0 0 0 0 0 0 0 0 0 0 0 0 0 0 0 0 0 0 0 0
14 21 27 95 117 84 23 11 0 14 3 0 0 5 0 0 0 0 0 0 1 1 6 0 7 0 0 0 0 0 0 0 0 0 0 0 0 0 0 0 0 0 0 0 0
25 17 14 32 126 117 59 28 0 43 19 5 5 0 0 0 0 0 0 0 0 0 14 0 0 0 0 0 0 0 0 0 0 0 0 0 0 0 0 0 0 0 0 0 0
39 18 15 14 87 150 95 63 38 70 53 38 19 0 0 0 0 0 0 0 0 0 0 11 1 10 0 0 0 1 2 1 0 0 0 0 0 0 0 0 0 0 0 0 0
58 39 15 11 8 135 130 139 83 57 56 58 1 0 0 0 0 0 0 0 0 0 0 13 0 0 1 0 0 0 0 0 0 0 0 0 0 0 0 0 0 0 0 0 0
61 55 30 26 19 76 131 100 50 6 36 49 15 0 0 0 0 0 0 0 0 0 0 0 0 1 6 5 0 0 0 0 0 0 0 0 0 0 0 0 0 0 0 0 0
81 65 35 32 32 57 65 5 0 0 23 0 0 0 0 0 0 0 0 0 0 0 0 0 3 3 0 0 0 0 0 3 1 0 0 0 0 0 0 0 0 0 0 0 0
112 106 56 40 79 10 0 0 0 0 0 0 0 0 0 0 0 0 0 0 0 0 0 0 5 0 0 0 0 0 0 1 0 0 0 0 0 0 0 0 0 0 0 0 0
126 106 65 39 53 24 1 0 0 0 0 0 0 3 0 0 0 0 0 0 0 0 0 0 0 0 0 0 0 0 1 2 0 0 0 0 0 0 0 0 0 0 0 0 0
132 133 87 53 32 7 17 0 0 0 0 0 0 0 2 7 2 0 0 0 0 0 0 0 0 0 0 1 0 2 0 0 0 6 0 0 0 0 0 0 0 0 0 0 0
118 150 95 84 38 85 25 0 0 0 0 0 10 7 15 1 0 1 0 11 1 0 0 0 0 0 1 0 0 0 0 0 0 6 3 1 8 0 0 0 0 0 0 0 0
80 95 69 55 47 34 15 0 0 0 0 6 4 30 33 10 16 2 10 28 11 10 4 0 0 0 0 0 0 0 0 8 16 36 13 0 0 0 0 0 0 0 0 0 0
120 137 73 62 32 74 28 6 2 0 0 4 9 23 15 12 27 8 26 8 11 17 2 10 5 3 0 1 0 1 43 3 6 13 0 0 0 0 0 0 0 0 0 0 0
95 105 24 15 31 72 46 3 0 0 0 0 2 8 4 2 4 16 6 15 17 5 0 0 0 0 4 12 1 5 8 1 0 0 0 0 0 0 0 0 0 0 0 0 0
172 10 45 1 56 97 6 0 0 0 0 1 4 4 1 1 0 1 11 5 5 1 0 1 0 0 0 0 2 2 10 0 0 0 1 0 0 0 0 0 0 0 0 0 0
11 0 20 53 80 50 2 2 0 0 0 0 0 0 0 0 0 2 0 0 0 1 0 0 0 0 0 0 0 0 0 3 3 3 0 0 0 0 0 0 0 0 0 0 0
1 3 61 77 131 5 0 2 0 0 0 0 0 0 0 1 0 0 0 0 0 0 1 0 0 0 1 2 0 3 13 29 15 15 0 0 0 0 0 0 0 0 0 0 0
18 17 68 112 0 0 3 0 1 0 0 0 0 0 0 0 0 0 0 0 0 0 0 0 5 0 0 0 0 0 0 1 0 0 1 2 0 0 0 0 0 0 0 0 0
8 15 80 1 0 1 7 2 0 0 0 0 0 0 0 0 0 0 0 0 0 0 0 0 17 0 0 0 0 9 0 1 1 1 1 0 0 0 0 0 0 3 2 0 0
12 6 5 3 1 0 7 3 0 0 0 0 0 0 0 2 1 2 6 0 0 0 0 0 7 0 0 0 0 1 5 1 1 1 0 0 0 0 0 0 0 0 10 0 0
3 4 3 3 1 1 8 0 0 0 0 0 0 0 0 6 1 10 1 0 0 0 0 3 17 1 0 1 1 3 2 0 1 0 2 0 0 0 0 0 0 0 0 0 0
19 8 14 1 0 19 3 0 0 0 0 0 0 0 0 3 0 0 0 1 0 0 0 6 16 19 4 1 1 1 3 6 5 2 5 0 0 0 0 0 0 0 0 0 0
16 28 20 11 3 17 11 0 0 0 0 0 0 0 0 0 0 0 1 1 0 7 6 23 13 13 0 0 0 0 4 4 10 3 2 5 0 0 0 0 0 0 0 2 0

GFSSW_con_sbcape_042.txt.gz
CAPE
101 81 89 37 0 0 0 0 13 8 2 6 6 3 35 23 64 34 16 10 6 0 0 0 0 0 0 0 0 0 0 0 0 0 0 0 0 0 0 0 0 0 0 0 0
23 55 86 108 33 6 0 0 4 6 0 3 7 0 12 0 59 37 5 41 56 27 0 0 0 0 0 0 0 0 0 0 0 0 0 0 0 0 0 0 0 0 0 0 0
18 47 67 125 96 33 0 0 0 2 0 0 8 0 2 0 0 1 19 91 92 74 11 0 0 0 0 0 2 2 0 0 0 0 0 0 0 0 0 0 0 0 0 0 0
8 18 35 51 112 86 25 6 0 1 1 0 8 0 0 0 0 2 0 0 7 79 0 6 0 0 0 0 0 0 0 0 0 0 0 0 0 0 0 0 0 0 0 0 0
16 16 20 12 63 104 74 25 6 1 3 0 0 0 0 0 0 0 0 0 0 66 9 0 11 12 6 0 0 0 0 0 0 0 0 0 0 0 0 0 0 0 0 0 0
34 27 17 19 25 83 120 63 20 7 1 0 0 0 0 0 0 0 0 0 9 13 46 11 5 1 6 4 0 0 0 0 0 0 0 0 0 0 0 0 0 0 0 0 0
31 46 39 14 17 24 134 104 33 11 19 0 0 0 0 0 0 0 0 0 0 43 18 25 13 10 14 11 6 0 0 0 0 0 0 0 0 0 0 0 0 0 0 0 0
57 58 57 39 20 21 49 144 106 87 67 21 8 0 0 0 0 0 0 0 3 10 47 30 12 16 8 1 0 0 0 0 0 0 0 0 0 0 0 0 0 0 0 0 0
57 64 54 49 30 18 9 133 123 89 75 62 12 0 0 0 0 0 0 0 0 0 6 72 36 6 0 0 0 0 0 0 0 0 0 0 0 0 0 0 0 0 0 0 0
57 81 76 74 50 22 4 116 78 55 43 50 31 2 0 0 0 0 0 0 0 2 2 4 6 6 0 2 0 0 0 0 0 0 0 0 0 0 0 0 0 0 0 0 0
70 104 107 93 51 16 12 22 0 2 8 0 0 0 0 0 0 0 0 0 0 1 7 14 8 0 0 0 0 0 0 0 0 0 0 0 0 0 0 0 0 0 0 0 0
131 151 133 123 72 30 51 22 0 0 0 0 0 2 0 0 0 0 0 0 3 6 13 14 6 0 0 1 3 5 1 0 0 0 0 0 0 0 0 0 0 0 0 0 0
160 184 170 133 71 12 9 17 0 0 0 0 0 6 6 0 0 0 0 0 0 6 4 2 0 0 1 4 6 5 4 0 0 0 0 0 0 0 0 0 0 0 0 0 0
161 182 132 139 81 71 0 58 0 0 20 0 1 0 15 8 0 0 0 0 0 0 5 9 3 0 0 4 1 4 0 0 2 4 1 1 0 0 0 0 0 0 0 0 0
94 178 175 147 51 28 65 71 0 0 19 0 10 14 16 0 0 10 0 3 4 0 0 0 0 6 5 0 4 1 3 3 7 9 3 1 11 0 0 0 0 0 0 0 0
136 125 85 107 107 15 63 65 6 3 2 17 28 28 27 13 8 18 15 23 11 11 3 5 0 1 3 0 0 6 10 11 16 26 10 0 2 0 0 0 0 0 0 0 0
78 110 119 99 24 83 99 12 4 14 0 15 15 43 9 16 34 25 28 22 17 22 19 14 10 2 1 9 6 11 33 13 9 17 0 0 0 0 0 0 0 0 0 0 0
96 199 83 56 119 101 89 2 10 1 2 6 17 22 27 12 24 13 23 19 18 12 6 6 1 5 3 9 11 23 11 2 0 0 0 0 0 0 0 0 0 0 0 0 0
69 12 23 88 135 122 75 9 12 0 1 5 14 11 7 5 4 4 8 4 4 12 3 6 1 0 0 5 7 7 20 1 19 12 11 0 0 0 0 0 0 0 0 0 0
44 119 142 133 78 62 15 19 0 0 0 3 3 1 3 5 2 1 4 0 4 9 10 4 5 0 0 4 1 9 4 7 35 6 2 0 0 0 0 0 0 0 0 0 0
52 89 119 160 155 3 15 43 6 0 0 0 0 4 4 2 2 4 2 0 0 1 19 0 1 2 1 4 1 7 20 20 3 19 6 2 0 0 0 0 0 1 0 0 0
19 13 71 184 5 2 30 5 9 1 0 0 0 0 0 2 4 1 0 0 0 0 11 5 3 9 2 0 0 1 2 5 24 3 10 21 3 0 0 0 2 2 0 1 0
11 11 116 86 48 12 9 12 7 0 0 0 0 0 0 0 0 0 0 0 0 0 0 4 10 10 0 1 1 5 0 0 14 10 14 23 2 0 0 18 8 0 0 0 1
16 9 9 17 4 7 14 14 20 0 0 0 0 0 0 0 0 2 3 0 0 0 0 0 17 9 0 0 0 5 8 7 2 17 2 15 0 0 0 1 1 0 0 35 0
9 6 10 34 7 1 21 2 12 7 0 0 0 0 0 2 3 2 0 1 0 0 1 4 42 8 6 0 0 3 7 4 1 0 2 0 4 0 1 0 0 0 0 8 0
9 5 5 2 0 12 34 28 3 0 0 0 0 0 0 0 0 0 0 0 6 2 9 11 20 13 6 0 2 6 7 7 9 16 11 8 6 0 0 0 0 0 0 0 1
26 29 8 11 11 35 12 1 5 0 0 0 0 0 0 0 0 0 0 0 5 21 10 14 4 12 2 1 3 5 4 11 9 3 3 11 0 0 0 0 0 0 1 1 0

GFSSW_con_sbcape_045.txt.gz
CAPE
6 39 75 79 114 48 7 0 0 4 2 2 3 2 4 30 58 37 34 31 34 8 1 1 0 0 0 0 0 0 1 0 0 0 0 0 0 0 0 0 0 0 0 0 0
9 7 23 56 80 117 46 2 1 9 0 0 2 0 0 4 64 40 1 27 33 36 13 11 3 0 0 0 0 6 0 0 0 0 0 0 0 0 0 0 0 0 0 0 0
11 8 8 27 26 75 112 34 7 9 2 0 3 0 0 0 30 11 31 77 68 79 43 17 24 1 0 0 0 4 0 0 0 0 0 0 0 0 0 0 0 0 0 0 0
12 13 13 10 24 25 102 110 23 14 4 0 1 0 0 13 6 7 0 98 124 86 68 27 21 10 0 0 0 0 0 0 0 0 0 0 0 0 0 0 0 0 0 0 0
17 20 19 18 19 20 23 110 83 25 13 0 0 0 0 9 3 0 0 0 0 27 71 34 22 25 13 0 3 2 0 0 0 0 0 0 0 0 0 0 0 0 0 0 0
26 21 22 30 17 6 19 45 133 52 25 1 0 0 0 0 0 0 0 0 4 17 30 27 10 14 21 9 3 4 0 0 0 0 0 0 0 0 0 0 0 0 0 0 0
22 31 43 42 41 12 22 20 138 91 54 29 0 0 5 0 0 0 0 0 0 1 48 34 18 0 1 3 5 0 0 0 0 0 0 0 0 0 0 0 0 0 0 0 0
27 22 45 40 51 44 28 7 12 147 115 43 1 2 10 0 0 0 0 0 37 35 9 20 22 21 19 1 0 0 0 0 0 0 0 0 0 0 0 0 0 0 0 0 0
60 33 46 50 65 62 51 5 10 88 75 55 27 18 10 0 0 0 0 0 34 34 40 21 36 28 9 1 0 0 0 0 0 0 0 0 0 0 0 0 0 0 0 0 0
82 66 45 82 87 77 59 19 6 70 77 57 34 3 0 0 0 0 0 0 13 5 12 6 6 4 1 1 0 0 0 0 0 0 0 0 0 0 0 0 0 0 0 0 0
104 86 125 138 120 123 72 0 121 41 30 5 0 0 1 0 0 0 0 0 10 13 3 3 5 0 0 0 0 0 0 0 0 0 0 0 0 0 0 0 0 0 0 0 0
112 122 139 167 173 157 108 36 19 6 8 1 0 2 0 0 1 0 0 5 5 14 9 5 7 0 1 0 0 1 0 0 0 0 0 0 0 0 0 0 0 0 0 0 0
131 119 141 165 158 120 74 12 0 4 19 15 5 2 0 0 9 1 1 6 6 11 6 8 0 0 0 1 0 0 0 0 0 0 0 0 0 0 0 0 0 0 0 0 0
103 76 138 184 127 91 69 10 4 53 9 2 8 2 19 4 11 4 0 2 7 3 14 15 1 0 0 0 0 0 0 0 0 0 0 0 0 0 0 0 0 0 0 0 0
79 85 136 110 118 60 62 58 10 55 39 5 10 8 15 0 4 9 5 5 9 1 1 1 0 6 2 0 1 0 1 0 1 1 1 0 1 0 0 0 0 0 0 0 0
75 62 76 43 119 52 86 57 23 4 22 13 10 12 14 14 16 18 13 11 7 4 12 8 4 4 2 0 1 1 1 1 2 9 8 0 0 0 0 0 0 0 0 0 0
60 54 72 83 11 103 90 50 6 7 1 14 15 30 16 9 21 19 12 20 13 12 10 10 5 3 1 5 7 11 13 9 8 15 0 0 0 0 0 0 0 0 0 0 0
56 150 78 29 68 88 79 3 33 20 2 5 31 28 17 12 20 8 7 14 11 3 3 2 8 3 2 3 4 12 18 1 0 0 0 0 0 0 0 0 0 0 0 0 0
109 158 105 80 111 203 98 30 77 10 5 19 36 33 26 20 18 37 22 15 7 2 5 3 1 0 5 8 1 11 19 0 11 4 0 0 0 0 0 0 0 0 0 0 0
39 83 172 151 169 112 62 8 11 4 3 18 4 0 18 20 20 15 16 8 4 5 6 2 4 0 4 6 3 5 0 1 14 5 0 0 0 0 0 0 0 0 0 0 0
35 15 205 180 239 38 22 42 9 8 7 10 1 3 1 10 5 7 5 0 6 5 6 5 2 0 3 7 2 4 11 6 7 10 3 1 0 0 0 0 0 0 0 0 0
24 37 166 124 32 23 48 37 7 8 0 0 5 3 6 8 1 9 2 1 0 0 1 2 14 8 1 0 0 5 5 10 27 0 1 6 1 0 0 0 0 0 0 0 0
16 9 114 126 124 70 53 33 25 9 4 4 2 1 2 3 2 3 9 0 0 1 4 1 13 5 3 0 1 2 0 2 7 17 18 18 0 0 0 0 1 0 0 0 0
8 58 20 20 50 15 29 15 34 22 0 1 0 0 1 8 4 6 6 0 0 0 1 7 5 1 0 0 3 16 2 6 2 13 0 7 5 0 4 17 8 0 5 6 0
6 7 8 82 37 28 20 18 15 6 1 0 0 1 3 2 6 4 3 6 0 0 0 4 19 7 5 3 4 6 4 1 2 1 2 0 1 1 9 10 5 1 0 0 39
14 12 6 30 11 19 7 52 14 1 0 0 0 0 0 0 0 5 7 4 2 3 7 8 15 8 9 4 1 6 0 0 1 3 5 11 4 1 2 2 1 0 0 0 0
27 16 16 9 17 32 17 14 9 7 0 0 0 0 0 0 0 3 5 1 10 12 10 18 16 20 5 0 0 1 0 1 6 5 5 4 1 0 0 0 5 10 16 13 9

GFSSW_con_sbcape_048.txt.gz
CAPE
14 3 12 16 29 28 63 50 1 1 9 16 3 1 1 0 23 42 11 2 43 23 0 0 0 0 0 0 0 0 0 0 0 0 0 0 0 0 0 0 0 0 0 0 116
10 13 18 18 18 31 24 83 42 8 7 12 3 1 0 0 7 17 0 51 75 60 0 1 0 0 0 0 0 0 0 0 0 0 0 0 0 0 0 0 0 0 0 0 0
16 11 15 20 22 33 29 24 98 36 14 4 1 1 0 0 15 0 1 15 83 67 20 0 5 4 0 0 0 0 0 0 0 0 0 0 0 0 0 0 0 0 0 0 0
27 27 19 13 29 27 24 22 23 90 26 3 0 0 0 0 0 2 154 76 177 87 48 36 17 5 4 1 0 0 0 0 0 0 0 0 0 0 0 0 0 0 0 0 0
23 18 16 22 18 34 29 8 21 76 90 8 0 0 0 3 0 7 0 0 75 86 58 44 7 7 17 4 1 0 0 0 0 0 0 0 0 0 0 0 0 0 0 0 0
31 31 21 15 26 42 56 29 20 34 133 39 0 9 0 0 0 0 0 0 0 23 80 82 20 20 13 8 4 7 0 0 0 0 0 0 0 0 0 0 0 0 0 0 0
60 42 32 21 33 25 50 55 40 18 22 69 8 0 2 0 0 0 0 0 7 0 60 64 9 2 5 8 2 0 0 0 0 0 0 0 0 0 0 0 0 0 0 0 0
73 77 59 30 27 21 33 61 57 14 0 120 54 0 9 0 0 0 0 0 0 13 75 66 53 9 0 0 0 0 0 0 0 0 0 0 0 0 0 0 0 0 0 0 0
74 77 101 86 48 63 64 74 57 22 5 123 67 16 4 0 0 0 0 0 5 21 53 90 40 10 0 0 0 0 0 0 0 0 0 0 0 0 0 0 0 0 0 0 0
121 110 111 111 97 118 125 96 50 22 16 73 52 52 3 0 0 0 0 0 20 65 55 43 41 5 4 0 0 0 0 0 0 0 0 0 0 0 0 0 0 0 0 0 0
137 150 146 135 131 129 141 116 45 74 83 36 32 2 0 0 0 0 0 0 11 35 4 6 4 0 0 0 0 0 0 0 0 0 0 0 0 0 0 0 0 0 0 0 0
168 160 138 145 163 152 143 66 32 37 15 48 18 8 0 0 0 0 0 0 6 4 6 0 0 0 0 0 0 0 0 0 0 0 0 0 0 0 0 0 0 0 0 0 0
152 131 81 98 184 170 169 76 25 2 7 23 31 17 0 0 0 0 0 0 0 3 4 2 0 0 0 0 0 0 0 0 0 0 0 0 0 0 0 0 0 0 0 0 0
112 95 75 119 134 161 121 139 10 12 13 13 22 17 0 2 1 0 0 3 7 6 1 1 0 0 0 0 0 0 0 0 0 0 0 0 0 0 0 0 0 0 0 0 0
71 69 66 56 33 42 84 121 44 1 2 15 19 11 0 0 0 3 0 6 13 9 5 0 0 0 0 0 0 0 0 0 0 0 0 0 0 0 0 0 0 0 0 0 0
50 43 51 10 56 1 86 15 20 36 2 22 8 13 17 32 9 0 4 2 1 2 3 3 0 0 0 0 0 0 0 0 0 0 1 0 0 0 0 0 0 0 0 0 0
33 49 46 48 6 15 49 10 24 14 5 37 13 22 12 26 22 4 13 2 0 0 1 1 0 0 0 1 1 2 1 0 1 3 0 0 0 0 0 0 0 0 0 0 0
104 127 69 108 103 23 65 4 15 39 10 0 9 31 18 25 27 18 24 13 7 0 0 2 1 1 0 1 0 4 5 0 0 0 0 0 0 0 0 0 0 0 0 0 0
77 8 142 52 101 26 22 3 26 20 1 16 25 27 18 17 7 15 11 6 2 0 1 0 1 0 0 2 0 6 7 0 0 0 0 0 0 0 0 0 0 0 0 0 0
14 31 118 157 90 41 41 4 1 12 3 16 8 14 12 17 12 16 19 1 2 3 0 1 2 0 1 7 1 0 0 0 1 0 0 0 0 0 0 0 0 0 0 0 0
20 14 142 190 110 52 31 26 4 1 20 1 2 4 0 17 5 5 1 0 3 2 0 0 0 0 0 0 0 1 4 0 0 0 0 0 0 0 0 0 0 0 0 0 0
4 4 116 104 9 8 25 9 14 10 7 5 2 4 1 6 5 0 0 0 0 1 0 0 2 3 0 0 0 3 0 0 1 0 0 0 0 0 0 0 0 0 0 0 0
7 7 92 85 2 2 18 22 9 11 7 13 8 6 4 3 0 5 1 0 2 1 1 0 6 0 0 0 0 0 0 0 0 0 0 0 0 0 0 0 0 0 0 0 0
7 23 34 24 11 23 26 6 20 6 19 5 2 1 0 3 1 3 0 0 0 1 1 1 2 0 0 0 0 0 0 0 0 0 0 0 0 0 0 0 0 0 0 0 0
3 6 10 24 6 21 42 17 5 6 1 3 10 7 0 0 2 0 1 0 0 0 0 2 1 0 0 0 0 0 0 0 0 0 0 0 0 0 0 0 0 0 0 0 0
10 6 3 4 10 21 25 11 11 2 1 0 8 13 6 2 1 1 0 1 0 0 2 2 0 2 0 0 0 0 0 0 0 1 3 4 3 0 0 0 0 0 0 2 1
17 10 10 5 2 11 5 0 10 1 0 5 0 0 0 0 0 0 0 0 0 0 2 13 4 2 0 0 0 0 0 0 0 1 5 4 0 0 0 0 0 0 0 0 0

GFSSW_con_sbcape_051.txt.gz
CAPE
19 21 14 8 11 24 34 35 39 105 23 3 10 1 1 3 7 10 0 0 0 62 1 0 0 0 0 0 0 0 0 0 0 0 0 0 0 0 0 0 0 0 0 32 174
26 19 22 17 18 16 23 39 26 44 79 13 7 0 1 8 0 1 0 0 84 90 14 0 0 0 0 0 0 0 0 0 0 0 0 0 0 0 0 0 0 0 0 0 192
39 28 26 28 22 25 32 19 24 9 41 48 3 0 1 0 6 0 0 0 79 93 0 0 0 0 0 0 0 0 0 0 0 0 0 0 0 0 0 0 0 0 0 0 3
54 51 41 32 27 26 28 36 23 10 11 96 12 0 1 0 0 0 234 62 179 76 46 16 17 25 0 0 0 0 0 0 0 0 0 0 0 0 0 0 0 0 0 0 0
67 63 53 47 31 28 35 37 37 23 14 32 34 0 6 0 0 0 166 278 82 68 48 17 32 11 1 0 0 0 0 0 0 0 0 0 0 0 0 0 0 0 0 0 0
83 102 75 56 52 28 34 33 50 33 23 7 76 44 1 0 0 0 0 0 57 61 33 61 29 7 12 1 0 0 2 0 0 0 0 0 0 0 0 0 0 0 0 0 0
85 73 80 94 86 65 39 30 45 36 15 19 33 38 4 0 0 0 0 0 0 17 51 64 31 12 3 0 0 0 0 0 0 0 0 0 0 0 0 0 0 0 0 0 0
81 102 88 89 119 85 51 46 53 42 21 29 11 22 6 0 0 0 0 0 0 0 0 42 1 0 8 0 0 0 0 0 0 0 0 0 0 0 0 0 0 0 0 0 0
96 106 127 142 132 124 101 105 89 75 30 20 23 17 1 0 0 0 0 0 0 4 45 87 10 0 1 0 0 0 0 0 0 0 0 0 0 0 0 0 0 0 0 0 0
131 152 157 165 165 161 149 124 104 91 29 8 53 11 7 0 0 0 0 0 2 40 50 42 3 0 0 0 0 0 0 0 0 0 0 0 0 0 0 0 0 0 0 0 0
138 159 155 163 167 178 67 0 7 64 31 49 27 0 0 0 0 0 0 0 37 36 13 34 1 0 0 0 0 0 0 0 0 0 0 0 0 0 0 0 0 0 0 0 0
147 153 123 96 99 153 93 8 23 25 8 2 14 4 0 0 0 0 0 0 17 18 0 0 0 0 0 0 0 0 0 0 0 0 0 0 0 0 0 0 0 0 0 0 0
129 113 93 78 101 50 24 53 1 21 6 1 0 22 0 0 0 0 0 0 0 0 0 0 0 0 0 0 0 0 0 0 0 0 0 0 0 0 0 0 0 0 0 0 0
82 75 67 62 20 8 4 106 32 7 15 47 52 24 3 21 0 0 0 0 0 0 0 0 0 0 0 0 0 0 0 0 0 0 0 0 0 0 0 0 0 0 0 0 0
44 34 54 63 12 14 43 31 0 7 0 11 13 28 13 5 0 1 0 0 0 0 0 0 0 0 0 0 0 0 0 0 0 0 0 0 0 0 0 0 0 0 0 0 0
33 43 72 26 2 7 45 22 18 0 0 18 21 30 22 8 0 0 3 0 0 2 0 0 0 0 0 0 0 0 0 0 0 0 0 0 0 0 0 0 0 0 0 0 0
21 62 92 45 3 0 19 1 0 0 2 12 5 20 15 21 0 0 5 1 0 0 0 0 0 0 0 0 0 0 0 0 0 0 0 0 0 0 0 0 0 0 0 0 0
72 111 4 33 46 0 11 13 0 0 0 18 14 16 16 0 8 14 2 0 0 0 0 0 0 0 0 0 0 0 0 0 0 0 0 0 0 0 0 0 0 0 0 0 0
79 0 4 70 62 0 17 10 1 8 8 14 13 15 11 15 9 9 4 0 0 0 0 0 0 0 0 0 0 0 2 0 0 0 0 0 0 0 0 0 0 0 0 0 0
21 4 37 10 8 10 5 7 27 3 7 5 12 2 7 13 4 9 6 0 0 0 0 0 0 0 1 2 2 0 0 0 0 0 0 0 0 0 0 0 0 0 0 0 0
7 12 59 1 0 0 1 10 3 0 12 11 0 4 0 15 0 5 0 0 0 0 0 0 0 0 0 1 0 0 3 0 0 0 0 0 0 0 0 0 0 0 0 0 0
0 2 13 6 0 3 18 39 5 1 6 1 0 0 0 5 1 3 0 0 0 0 0 0 0 0 0 0 0 0 0 0 0 0 0 0 0 0 0 0 0 0 0 0 0
10 17 5 0 2 0 2 5 6 9 22 27 4 2 0 1 0 2 0 0 1 0 1 0 0 0 4 0 0 0 0 0 0 0 0 0 0 0 0 0 0 0 0 0 0
0 2 0 0 6 12 5 6 5 0 11 18 11 7 11 7 0 1 0 0 0 5 23 0 0 0 0 0 0 0 0 0 0 0 0 0 0 0 0 0 0 0 0 0 0
0 3 6 10 0 21 12 9 4 7 2 11 0 0 6 7 4 0 0 0 0 0 0 0 0 0 0 0 0 0 0 0 0 0 0 0 0 0 0 0 0 0 0 0 0
6 2 5 5 6 12 11 5 6 2 0 4 0 4 0 0 0 0 0 0 0 0 0 0 0 0 0 0 0 0 0 0 0 0 0 0 0 0 0 0 0 0 0 0 0
3 2 6 2 9 8 5 1 0 1 0 0 0 0 0 0 0 0 0 0 0 0 0 1 0 0 0 0 0 0 0 0 0 0 0 1 0 0 0 0 0 1 0 1 0

GFSSW_con_sbcape_054.txt.gz
CAPE
25 15 27 28 28 19 20 16 24 34 15 66 34 10 8 6 16 7 7 0 0 11 0 0 0 0 0 0 0 0 0 0 0 0 0 0 0 0 0 0 0 0 0 0 0
34 29 38 29 37 30 28 19 11 15 4 13 89 34 7 15 16 7 0 0 1 26 69 0 0 0 0 0 0 0 0 0 0 0 0 0 0 0 0 0 0 0 0 0 61
45 56 52 58 27 38 39 34 18 22 1 8 21 99 9 13 6 0 0 0 25 86 22 14 0 0 0 0 0 0 0 0 0 0 0 0 0 0 0 0 0 0 8 0 8
49 51 58 51 51 38 35 46 24 22 27 9 14 74 25 9 0 0 204 0 162 191 2 0 10 15 0 0 0 0 0 0 0 0 0 0 0 0 0 0 0 0 0 0 0
63 67 71 83 67 63 55 26 47 38 20 17 15 37 47 4 0 0 294 190 48 109 41 0 4 7 0 0 0 0 0 0 0 0 0 0 0 0 0 0 0 0 0 0 0
59 64 78 89 110 92 69 55 34 30 11 18 13 31 26 4 0 0 52 149 160 110 42 24 25 4 0 0 0 0 0 0 0 0 0 0 0 0 0 0 0 0 0 0 0
67 71 90 114 95 104 126 87 49 28 17 15 16 28 9 0 0 23 27 73 151 129 38 30 44 16 0 0 0 0 0 0 0 0 0 0 0 0 0 0 0 0 0 0 0
91 97 113 104 133 138 163 135 78 48 23 18 12 14 8 0 0 0 0 0 0 0 101 64 25 11 0 0 0 0 0 0 0 0 0 0 0 0 0 0 0 0 0 0 0
112 124 127 137 160 165 162 169 152 134 80 47 27 25 1 0 0 0 0 0 0 0 40 118 12 2 0 0 0 0 0 0 0 0 0 0 0 0 0 0 0 0 0 0 0
112 115 144 148 160 158 165 214 155 97 51 78 36 33 2 0 0 0 0 0 0 89 60 57 12 0 2 0 0 0 0 0 0 0 0 0 0 0 0 0 0 0 0 0 0
112 134 118 97 113 145 53 0 0 2 42 0 0 0 1 0 0 0 0 0 50 25 67 22 0 0 0 0 0 0 0 0 0 0 0 0 0 0 0 0 0 0 0 0 0
99 89 76 79 113 130 16 7 6 13 26 2 0 3 0 0 0 0 0 0 56 7 1 1 0 0 0 0 0 0 0 0 0 0 0 0 0 0 0 0 0 0 0 0 0
69 71 48 50 70 16 1 2 2 15 24 0 0 4 0 1 0 0 0 2 44 7 0 0 0 0 0 0 0 0 0 0 0 0 0 0 0 0 0 0 0 0 0 0 0
64 50 34 39 4 0 0 35 33 28 3 2 14 6 41 8 3 0 0 0 0 7 0 0 0 0 0 0 0 0 0 0 0 0 0 0 0 0 0 0 0 0 0 0 0
59 52 54 63 30 4 1 21 11 31 0 25 6 7 23 17 0 0 0 0 0 0 0 0 0 0 0 0 0 0 0 0 0 0 0 0 0 0 0 0 0 0 0 0 0
30 29 76 19 8 12 1 24 38 0 0 35 46 25 21 4 0 5 3 0 0 0 0 0 0 0 0 0 0 0 0 0 0 0 0 0 0 0 0 0 0 0 0 0 0
22 86 87 49 39 4 0 32 0 0 5 6 9 25 11 11 1 8 12 0 0 0 1 0 0 0 0 0 0 0 0 0 0 0 0 0 0 0 0 0 0 0 0 0 0
102 66 4 17 11 0 11 6 0 4 2 1 18 34 43 10 17 18 0 0 0 0 0 0 0 0 0 0 0 0 0 0 0 0 0 0 0 0 0 0 0 0 0 0 0
38 0 0 30 5 0 0 0 1 6 8 3 20 21 19 13 24 4 1 0 0 0 0 0 0 0 0 0 0 0 0 0 0 0 0 0 0 0 0 0 0 0 0 0 0
0 2 26 40 1 0 0 5 9 14 3 6 11 2 0 2 18 2 1 0 0 0 0 0 0 0 0 0 0 0 0 0 0 0 0 0 0 0 0 0 0 0 0 0 0
0 12 22 8 0 0 0 1 6 0 5 10 0 0 0 0 0 1 0 0 0 0 0 0 0 4 3 2 0 1 1 0 0 0 0 0 0 0 0 0 0 0 0 0 0
0 2 1 1 0 1 7 28 3 4 4 7 0 0 0 0 0 0 0 0 0 0 0 0 0 0 0 0 0 0 0 0 0 0 0 0 0 0 0 0 0 0 0 0 0
5 0 0 0 1 1 0 7 6 6 0 4 0 0 0 0 0 0 0 0 0 0 0 0 0 0 0 0 0 0 0 0 0 0 0 0 0 0 0 0 0 0 0 0 0
0 0 0 0 0 7 3 1 6 0 0 0 0 0 0 0 0 0 0 2 0 0 11 0 0 0 0 0 0 0 0 0 0 0 0 0 0 0 0 0 0 0 0 0 0
1 5 4 1 0 2 9 5 13 13 0 0 0 0 0 0 0 0 0 0 0 9 0 0 0 0 0 0 0 0 0 0 0 0 0 0 0 0 0 0 0 0 0 0 0
2 3 4 3 0 3 5 4 2 0 0 2 0 0 0 0 0 0 0 0 0 0 0 0 0 0 0 0 0 0 0 0 0 0 0 0 0 0 0 0 0 0 0 0 0
4 2 5 0 0 4 2 0 1 0 0 0 2 0 0 0 0 0 0 0 0 0 0 0 0 0 0 0 0 0 0 0 0 0 0 0 0 0 0 0 0 0 0 0 0

GFSSW_con_sbcape_057.txt.gz
CAPE
34 21 18 32 32 29 29 18 14 7 7 0 2 18 77 36 21 12 3 0 0 0 169 2 6 0 0 0 0 0 0 0 0 0 0 0 0 0 0 0 0 0 0 0 0
50 44 44 39 52 45 25 18 26 14 12 1 6 6 51 51 14 13 0 0 0 5 24 0 0 0 0 0 0 0 0 0 0 0 0 0 0 0 0 0 0 0 0 0 0
66 66 60 54 53 48 51 29 39 27 21 4 1 6 10 10 7 0 0 0 0 49 35 12 0 0 0 0 0 0 0 0 0 0 0 0 0 0 0 0 0 0 0 0 3
39 59 58 67 66 68 68 63 47 51 28 13 0 4 12 11 0 0 124 106 0 90 0 27 0 0 0 0 0 0 0 0 0 0 0 0 0 0 0 0 0 0 0 0 0
55 62 68 86 98 122 121 79 70 55 53 27 14 2 15 8 0 0 0 350 0 142 63 26 0 3 0 0 0 0 0 0 0 0 0 0 0 0 0 0 0 0 0 0 0
82 85 89 109 118 120 121 138 104 81 46 28 24 15 13 3 0 0 0 136 15 211 72 3 1 0 0 0 0 0 0 0 0 0 0 0 0 0 0 0 0 0 0 0 0
92 101 115 143 140 146 137 158 157 98 73 39 25 33 25 4 0 0 0 274 148 229 82 3 6 29 0 0 0 0 0 0 0 0 0 0 0 0 0 0 0 0 0 0 0
98 99 110 120 133 144 155 179 185 148 146 96 83 59 25 3 0 0 0 0 163 159 85 69 30 14 0 0 0 2 0 0 0 0 0 0 0 0 0 0 0 0 0 0 0
102 90 99 104 103 105 135 179 215 222 183 159 61 41 21 0 0 0 0 0 0 21 124 171 131 33 3 0 0 0 0 0 0 0 0 0 0 0 0 0 0 0 0 0 0
91 101 88 72 75 87 143 222 243 206 96 121 78 55 1 0 0 0 0 0 2 41 130 161 119 21 6 0 1 0 0 0 0 0 0 0 0 0 0 0 0 0 0 0 0
77 72 70 64 64 135 13 0 0 0 103 3 0 0 28 0 0 0 0 0 14 93 87 65 2 8 8 0 0 0 0 0 0 0 0 0 0 0 0 0 0 0 0 0 0
67 68 59 59 33 76 0 0 0 5 20 0 25 9 0 0 0 0 0 0 15 76 32 12 6 2 0 4 0 0 0 0 0 0 0 0 0 0 0 0 0 0 0 0 0
53 56 62 56 59 4 0 0 0 16 62 3 0 0 38 10 5 5 0 2 39 31 3 5 0 0 0 0 0 0 0 0 0 0 0 0 0 0 0 0 0 0 0 0 0
45 46 31 57 6 0 0 18 24 25 2 1 27 0 20 19 7 0 0 5 21 19 0 0 0 0 0 0 0 0 0 0 0 0 0 0 0 0 0 0 0 0 0 0 0
28 13 33 63 22 9 7 39 26 26 0 24 0 10 25 14 0 0 0 0 1 0 0 0 0 0 0 0 0 0 0 0 0 0 0 0 0 0 0 0 0 0 0 0 0
40 61 145 116 39 19 28 7 37 0 0 12 1 1 6 6 1 2 11 0 1 0 0 0 0 0 0 0 0 0 0 0 0 0 0 0 0 0 0 0 0 0 0 0 0
77 188 51 62 26 10 1 9 0 0 2 15 3 0 5 15 7 10 6 7 2 2 5 0 0 0 0 0 0 0 0 0 0 0 0 0 0 0 0 0 0 0 0 0 0
139 21 0 26 6 0 0 0 0 4 1 6 3 12 18 19 38 15 0 0 0 0 0 0 0 0 0 0 0 0 0 0 0 0 0 0 0 0 0 0 0 0 0 0 0
9 0 7 10 1 0 0 0 0 5 4 2 10 10 23 13 33 2 0 0 0 0 0 0 0 0 0 0 0 0 0 0 0 0 0 0 0 0 0 0 0 0 0 0 0
0 0 18 12 0 0 0 0 16 8 1 4 18 0 12 57 46 0 3 0 0 0 0 0 0 0 0 0 0 0 0 0 0 0 0 0 0 0 0 0 0 0 0 0 0
0 0 0 0 0 0 0 1 4 5 4 5 0 0 0 2 1 0 0 0 0 0 0 0 0 8 0 0 0 0 0 0 0 0 0 0 0 0 0 0 0 0 0 0 0
0 0 0 0 0 0 0 11 7 3 0 0 0 0 0 0 0 0 0 0 0 0 0 0 0 9 5 0 0 0 0 0 0 0 0 0 0 0 0 0 0 0 0 0 0
0 0 0 0 0 0 3 7 2 1 0 0 0 0 0 0 0 0 0 0 0 0 0 0 0 0 0 0 0 0 0 0 0 0 0 0 0 0 0 0 0 0 0 0 0
0 0 0 0 0 6 2 1 1 0 0 0 0 0 0 0 0 0 0 0 0 0 0 0 0 0 0 0 0 0 0 0 0 0 0 0 0 0 0 0 0 0 0 0 0
0 1 6 1 0 2 2 5 0 0 0 0 0 0 0 0 0 0 0 0 0 21 0 0 0 0 0 0 0 0 0 0 0 0 0 0 0 0 0 0 0 0 0 0 0
1 3 1 4 0 0 0 0 4 0 0 0 0 0 0 0 0 0 0 0 0 0 0 0 0 0 0 0 0 0 0 0 0 0 0 0 0 0 0 0 0 0 0 0 0
0 1 7 0 0 0 0 0 0 0 2 0 0 0 0 0 0 0 0 0 0 0 0 0 0 0 0 0 0 0 0 0 0 0 0 0 0 0 0 0 0 0 0 0 0

GFSSW_con_sbcape_060.txt.gz
CAPE
46 76 61 59 57 43 54 42 32 28 24 7 1 6 5 22 65 19 10 0 0 0 28 1 7 54 0 0 0 0 0 0 0 0 0 0 0 0 0 0 0 0 0 0 72
29 29 56 63 82 76 60 55 57 56 31 25 13 1 3 7 17 2 0 0 0 0 1 21 38 2 0 0 0 0 0 0 0 0 0 0 0 0 0 0 0 0 0 0 460
42 47 54 66 72 73 79 80 89 65 62 41 31 5 6 12 4 0 0 2 8 0 16 0 8 0 0 0 0 0 0 0 0 0 0 0 0 0 0 0 0 0 0 0 249
70 84 86 86 82 93 92 100 107 101 76 61 40 16 10 8 3 0 44 2 37 0 47 55 0 10 3 0 0 0 0 0 0 0 0 0 0 0 0 0 0 0 0 0 0
72 85 91 98 98 104 106 114 118 149 122 69 56 13 6 32 0 0 0 0 45 0 86 51 11 13 9 1 0 0 0 0 0 0 0 0 0 0 0 0 0 0 0 0 0
86 85 85 85 94 103 111 129 152 161 124 135 56 26 17 22 0 0 0 0 0 0 202 64 13 1 0 0 0 0 0 0 0 0 0 0 0 0 0 0 0 0 0 0 0
80 82 80 87 80 78 87 98 143 163 175 177 138 63 45 9 0 0 0 26 0 0 272 103 0 11 0 0 0 0 0 0 0 0 0 0 0 0 0 0 0 0 0 0 0
93 83 105 92 80 70 68 83 115 163 200 197 173 82 4 8 0 0 0 12 56 153 259 149 19 19 2 0 0 0 0 0 0 0 0 0 0 0 0 0 0 0 0 0 0
93 107 95 81 73 74 74 157 201 246 256 235 80 65 8 40 0 0 0 0 174 182 121 210 129 32 28 0 0 2 0 0 0 0 0 0 0 0 0 0 0 0 0 0 0
103 84 103 106 81 79 63 179 142 121 107 142 76 30 0 19 0 0 0 0 0 108 91 127 81 34 42 3 0 1 0 0 0 0 0 0 0 0 0 0 0 0 0 0 0
73 79 58 57 73 60 8 0 0 0 16 0 0 0 0 1 3 12 0 0 28 106 95 56 42 23 0 1 0 0 0 0 0 0 0 0 0 0 0 0 0 0 0 0 0
67 28 32 60 96 103 0 0 0 8 24 0 0 0 0 2 26 6 0 0 6 52 62 5 1 11 35 0 0 0 0 0 0 0 0 0 0 0 0 0 0 0 0 0 0
56 63 47 53 67 13 0 0 4 7 14 0 0 0 1 5 5 9 0 0 18 44 38 19 1 26 21 2 1 0 0 0 0 0 0 0 0 0 0 0 0 0 0 0 0
40 34 58 102 22 0 3 26 21 24 8 0 1 47 14 1 26 1 0 17 37 35 15 2 0 54 26 8 5 0 0 0 0 0 0 0 0 0 0 0 0 0 0 0 0
99 197 230 190 19 5 8 19 21 14 0 1 2 29 27 17 6 2 0 22 28 6 0 1 0 0 0 0 0 0 0 0 0 0 0 0 0 0 0 0 0 0 0 0 0
122 87 40 6 0 19 22 19 30 0 0 10 14 19 15 16 10 0 31 4 0 0 0 0 0 0 0 0 0 0 0 0 0 0 0 0 0 0 0 0 0 0 0 0 0
67 6 6 22 0 2 0 9 0 0 4 0 5 1 3 10 8 6 28 20 7 1 3 0 0 0 0 0 0 0 0 0 0 0 0 0 0 0 0 0 0 0 0 0 0
28 0 0 12 0 0 0 0 0 1 8 9 4 1 5 19 11 15 2 2 0 0 0 0 0 0 0 0 0 0 0 0 0 0 0 0 0 0 0 0 0 0 0 0 0
0 0 7 14 0 0 0 0 1 1 2 2 3 9 34 10 22 2 0 0 0 0 0 0 0 0 0 0 0 0 0 0 0 0 0 0 0 0 0 0 0 0 0 0 0
0 0 0 0 0 0 2 1 9 10 2 0 9 12 32 9 8 4 1 0 0 0 0 0 0 0 0 0 0 0 0 0 0 0 0 0 0 0 0 0 0 0 0 0 0
0 0 0 0 0 0 0 2 3 3 5 2 0 0 0 0 0 0 0 0 0 0 0 0 0 1 0 0 0 0 0 0 0 0 0 0 0 0 0 0 0 0 0 0 0
0 0 0 0 0 1 1 10 5 1 0 0 0 0 0 0 0 0 0 0 0 0 0 0 0 4 0 0 0 0 0 0 0 0 0 0 0 0 0 0 0 0 0 0 0
0 0 0 0 0 0 1 2 1 0 0 0 0 0 0 0 0 0 0 0 0 0 0 0 0 0 2 0 0 0 0 0 0 0 0 0 0 0 0 0 0 0 0 0 0
0 0 0 0 0 3 1 0 0 0 0 0 0 0 0 0 0 0 0 0 0 0 0 0 0 0 0 0 0 0 0 0 0 0 0 0 0 0 0 0 0 0 0 0 0
0 0 2 1 0 1 0 0 0 0 0 0 0 0 0 0 0 0 0 0 0 2 0 0 0 0 0 0 0 0 0 0 0 0 0 0 0 0 0 0 0 0 0 0 0
0 3 0 0 0 0 0 0 0 0 0 0 0 0 0 0 0 0 0 0 0 0 0 0 0 0 0 0 0 0 0 0 0 0 0 0 0 0 0 0 0 0 0 0 0
0 1 7 0 0 0 0 0 0 0 1 0 0 0 0 0 0 0 0 0 0 0 0 0 0 0 0 0 0 0 0 0 0 0 0 0 0 0 0 0 0 0 0 0 0

GFSSW_con_sbcape_063.txt.gz
CAPE
49 39 45 42 56 59 63 64 61 49 48 32 4 8 1 2 13 0 30 0 0 0 95 1 1 80 0 0 0 0 0 0 0 0 0 0 0 0 0 0 0 0 0 0 50
57 70 66 64 77 66 70 69 74 65 58 54 44 8 16 9 0 2 19 3 1 0 0 4 12 5 4 0 0 0 0 0 0 0 0 0 0 0 0 0 0 0 0 53 392
54 67 69 62 78 76 82 91 91 79 84 77 57 60 16 20 4 0 2 357 152 18 3 0 79 13 20 0 0 0 0 0 0 0 0 0 0 0 0 0 0 0 0 35 373
70 70 67 71 76 96 100 85 100 103 105 97 108 58 34 17 18 2 9 254 381 60 0 63 16 40 31 0 0 0 0 0 0 0 0 0 0 0 0 0 0 0 0 0 255
82 82 75 69 84 85 81 84 101 100 113 89 118 101 26 1 6 0 6 0 0 63 0 75 22 40 12 6 0 0 0 0 0 0 0 0 0 0 0 0 0 0 0 0 0
84 86 80 83 94 87 90 84 76 74 79 102 155 117 32 4 0 0 0 0 58 45 3 138 45 0 13 10 0 0 0 0 0 0 0 0 0 0 0 0 0 0 0 0 0
72 92 91 93 102 87 83 67 60 44 71 133 200 132 50 0 0 0 0 0 7 25 2 130 49 61 0 7 0 0 0 0 0 0 0 0 0 0 0 0 0 0 0 0 0
94 90 91 95 100 92 83 71 76 123 194 235 243 98 8 0 0 0 0 0 9 18 35 230 64 30 3 0 0 0 1 0 0 0 0 0 0 0 0 0 0 0 0 0 0
78 86 88 80 99 90 89 135 128 201 236 270 109 34 6 0 0 0 0 0 37 10 167 307 138 112 0 0 6 2 0 0 0 0 0 0 0 0 0 0 0 0 0 0 0
68 78 80 60 99 113 131 142 115 28 40 128 52 2 0 0 88 0 0 0 51 214 221 133 97 84 75 9 1 0 0 0 0 0 0 0 0 0 0 0 0 0 0 0 0
47 54 60 88 60 120 23 0 0 0 0 0 0 0 0 0 10 26 0 0 49 130 82 56 67 32 2 4 0 0 0 0 0 0 0 0 0 0 0 0 0 0 0 0 0
56 44 36 36 42 52 0 0 0 0 1 0 0 0 0 3 4 100 0 0 31 64 75 11 19 0 11 18 0 0 0 0 0 0 0 0 0 0 0 0 0 0 0 0 0
62 96 122 149 42 31 21 0 17 0 39 0 0 0 0 0 2 66 0 0 7 28 54 6 2 10 61 29 1 0 0 0 0 0 0 0 0 0 0 0 0 0 0 0 0
71 68 88 63 2 1 11 37 53 14 1 0 3 25 0 0 7 48 3 17 28 9 34 8 9 13 15 5 0 4 0 0 0 0 0 0 0 0 0 0 0 0 0 0 0
66 51 56 11 0 0 0 24 12 26 0 7 7 14 7 11 20 39 1 16 27 12 0 4 28 11 2 0 0 0 0 0 0 0 0 0 0 0 0 0 0 0 0 0 0
66 35 35 1 1 16 1 23 21 0 0 16 2 26 11 3 2 20 11 20 0 0 0 0 0 1 0 0 0 0 0 0 0 0 0 0 0 0 0 0 0 0 0 0 0
18 13 6 20 34 0 0 8 0 0 5 0 0 1 2 7 8 22 14 20 17 2 4 5 3 0 0 0 0 0 0 0 0 0 0 0 0 0 0 0 0 0 0 0 0
0 0 1 1 0 0 0 0 0 1 11 30 12 8 8 4 14 26 7 3 0 0 0 0 3 0 0 0 0 0 0 0 0 0 0 0 0 0 0 0 0 0 0 0 0
0 0 0 0 0 0 2 0 0 6 10 5 16 11 14 8 7 3 1 3 0 0 0 0 1 0 0 0 0 0 0 0 0 0 0 0 0 0 0 0 0 0 0 0 0
0 0 0 0 0 3 0 0 3 11 3 0 9 1 5 4 14 0 0 0 0 0 0 0 1 0 0 0 0 0 0 0 0 0 0 0 0 0 0 0 0 0 0 0 0
0 0 0 0 0 0 0 3 2 2 2 0 0 0 0 0 0 0 0 0 0 0 0 0 0 1 0 0 0 0 0 0 0 0 0 0 0 0 0 0 0 0 0 0 0
0 0 0 0 0 0 1 4 2 1 0 0 0 0 0 0 0 0 0 0 0 0 0 0 0 3 0 0 0 0 0 0 0 0 0 0 0 0 0 0 0 0 0 0 0
0 0 0 0 0 0 0 0 0 0 0 0 0 0 0 0 0 0 0 0 0 0 0 0 0 1 1 0 0 0 0 0 0 0 0 0 0 0 0 0 0 0 0 0 0
0 0 0 0 0 1 0 0 0 0 0 0 0 0 0 0 0 0 0 0 0 0 0 0 0 0 0 0 0 0 0 0 0 0 0 0 0 0 0 0 0 0 0 0 0
0 0 1 0 0 0 0 0 0 0 0 0 0 0 0 0 0 0 0 0 0 0 0 0 0 0 0 0 0 0 0 0 0 0 0 0 0 0 0 0 0 0 0 0 0
0 2 0 0 0 0 0 0 0 0 0 0 0 0 0 0 0 0 0 0 0 0 0 0 0 0 0 0 0 0 0 0 0 0 0 0 0 0 0 0 0 0 0 0 0
0 1 7 0 0 0 0 0 0 0 0 0 0 0 0 0 0 0 0 0 0 0 0 0 0 0 0 0 0 0 0 0 0 0 0 0 0 0 0 0 0 0 0 0 0

GFSSW_con_sbcape_066.txt.gz
CAPE
36 70 65 59 63 68 77 71 63 66 55 54 46 28 3 2 5 0 2 10 2 0 101 7 0 81 60 0 0 0 0 0 0 0 0 0 0 0 0 0 0 0 0 0 58
49 67 66 70 69 60 68 87 100 87 84 73 54 59 55 18 2 0 0 20 175 19 2 27 8 100 100 12 0 0 0 0 0 0 0 0 0 0 0 0 0 0 0 87 259
65 62 60 59 60 63 64 67 83 97 100 85 95 68 51 33 6 0 0 1 355 247 13 11 36 138 91 49 0 0 0 0 0 0 0 0 0 0 0 0 0 0 0 134 349
73 71 69 85 85 78 68 69 73 85 81 117 99 88 77 38 0 59 12 60 418 244 76 37 54 129 45 18 12 0 0 0 0 0 0 0 0 0 0 0 0 0 0 0 402
71 71 73 70 80 91 98 106 97 102 84 79 75 93 54 24 8 0 0 1 0 110 78 39 46 114 30 27 37 3 3 0 0 0 0 0 0 0 0 0 0 0 0 0 0
66 62 56 74 75 80 88 84 95 93 75 62 68 75 43 27 0 0 0 0 3 24 173 18 26 73 57 37 17 15 20 0 0 0 0 0 0 0 0 0 0 0 0 0 0
68 62 69 82 81 112 124 129 119 96 91 91 92 70 48 0 0 0 0 0 0 0 187 1 118 69 39 41 40 23 11 10 0 0 0 0 0 0 0 0 0 0 0 0 0
70 72 68 87 108 136 167 172 156 158 179 216 167 126 11 0 0 0 0 0 0 0 189 1 239 146 62 53 57 56 29 21 0 0 0 0 0 0 0 0 0 0 0 0 0
71 56 59 74 84 72 105 184 209 180 216 264 174 114 3 0 2 1 0 0 2 37 180 99 260 140 89 70 69 47 4 1 3 0 0 0 0 0 0 0 0 0 0 0 0
62 67 71 81 84 87 84 128 135 25 62 166 52 101 21 0 0 18 0 10 1 148 256 164 165 156 91 89 24 4 1 4 1 0 0 0 0 0 0 0 0 0 0 0 0
58 83 113 144 168 37 79 47 7 2 66 10 14 1 44 0 0 19 3 0 17 261 42 77 74 14 24 60 35 15 8 9 0 0 0 0 0 0 0 0 0 0 0 0 0
67 81 83 66 95 28 41 46 5 12 4 0 0 4 5 1 5 47 61 67 58 224 36 67 27 6 34 53 13 6 13 1 0 0 0 0 0 0 0 0 0 0 0 0 0
57 72 66 44 37 10 19 12 47 14 13 4 0 2 2 9 2 15 0 15 87 91 46 16 5 13 9 46 21 20 4 0 0 0 0 0 0 0 0 0 0 0 0 0 0
46 50 30 3 0 13 14 24 24 14 24 0 39 45 0 16 20 2 3 10 22 14 6 7 1 10 2 23 10 5 0 0 0 0 0 0 0 0 0 0 0 0 0 0 0
32 19 8 0 6 4 15 25 20 40 44 62 45 19 7 2 6 51 16 12 42 30 3 8 4 5 2 12 1 6 0 0 0 0 0 0 0 0 0 0 0 0 0 0 0
15 11 0 13 2 27 8 24 19 23 34 11 8 51 14 4 1 48 16 9 34 5 5 10 12 7 4 4 0 0 0 0 0 0 0 0 0 0 0 0 0 0 0 0 0
14 4 0 2 5 0 4 20 22 40 0 5 9 10 9 7 5 9 11 41 53 71 2 5 8 8 0 3 10 4 5 10 8 2 0 0 0 0 0 0 0 0 0 0 0
7 0 0 0 7 0 2 8 3 23 24 18 9 4 2 20 16 16 28 11 0 0 8 12 10 6 6 0 1 4 0 0 0 0 0 0 0 0 0 0 0 0 0 0 0
0 0 0 0 0 1 19 6 12 10 17 19 2 10 16 13 9 1 8 6 0 0 0 2 16 5 1 0 0 0 3 0 0 0 0 0 0 0 0 0 0 0 0 0 0
1 0 0 0 0 14 9 7 12 1 4 0 11 10 10 10 10 12 8 0 0 0 0 0 7 2 0 1 0 0 0 0 0 0 0 0 0 0 0 0 0 0 0 0 0
0 0 0 0 0 0 7 4 4 5 1 6 2 8 7 1 0 0 0 0 0 0 0 0 0 5 1 0 0 0 0 0 0 0 0 0 0 0 0 0 0 0 0 0 0
0 1 0 0 2 5 21 4 0 1 1 0 0 0 0 0 0 0 0 0 0 0 0 0 1 16 7 0 0 0 0 0 0 0 0 0 0 0 0 0 0 0 0 0 0
0 0 0 0 0 2 0 0 0 0 0 0 0 0 0 0 0 0 0 0 0 0 0 0 0 6 5 0 0 0 0 0 0 0 0 0 0 0 0 0 0 0 0 0 0
0 1 0 0 3 1 2 1 0 0 0 0 0 0 0 0 0 0 0 0 0 0 0 0 0 0 0 0 0 2 0 0 0 0 0 0 0 0 0 0 0 0 0 0 0
3 2 3 2 0 1 3 1 0 0 0 0 0 0 0 0 0 0 0 0 0 0 0 0 0 0 0 0 0 0 0 0 0 0 0 0 0 0 0 0 0 0 0 0 0
3 7 3 0 0 0 1 5 2 0 0 0 0 0 0 0 0 0 0 0 0 0 0 0 0 0 0 0 0 0 0 0 0 0 0 0 0 0 0 0 0 0 0 0 0
8 10 13 0 0 1 1 0 1 0 0 0 0 0 0 0 0 0 0 0 0 0 0 0 0 0 0 0 0 0 0 0 0 0 0 0 0 0 0 0 0 0 0 0 0

GFSSW_con_sbcape_069.txt.gz
CAPE
58 72 68 64 67 65 67 64 72 76 65 59 50 52 58 39 9 0 0 7 19 50 0 16 6 144 230 127 3 0 6 16 4 0 0 8 1 0 0 0 0 0 0 15 738
81 73 79 75 73 65 59 62 45 53 75 73 85 63 54 58 33 10 0 0 16 182 12 19 15 169 128 23 9 1 0 0 0 0 4 0 0 0 0 0 0 0 0 6 267
85 77 74 86 83 79 73 64 65 55 69 90 92 110 69 59 33 1 0 0 56 248 96 11 35 108 234 104 6 0 0 0 0 0 0 0 0 0 0 0 0 0 0 0 35
90 81 79 70 64 68 72 80 98 108 100 114 109 87 90 52 7 49 15 2 16 189 104 18 12 58 138 156 34 0 0 0 9 0 0 0 0 0 0 0 0 0 0 0 133
85 84 77 77 90 84 93 95 119 126 125 100 107 112 90 36 3 7 0 0 0 80 121 91 7 44 39 30 65 13 0 0 0 3 0 0 0 0 0 0 0 0 0 0 0
81 79 81 82 86 106 116 132 171 161 132 98 87 104 60 12 0 1 0 0 0 22 80 109 12 10 57 55 101 19 25 6 1 6 0 0 0 0 0 0 0 0 0 0 0
62 73 77 64 66 96 123 165 202 223 229 225 154 77 45 7 4 0 1 0 0 0 0 162 77 28 57 63 94 60 31 25 11 8 0 0 0 0 0 0 0 0 0 0 0
59 56 53 63 69 71 78 109 175 252 274 293 233 144 22 0 0 0 0 0 0 0 0 39 206 126 57 76 41 76 31 28 30 8 0 0 0 0 0 0 0 0 0 0 0
45 36 64 104 135 117 90 97 110 234 231 225 170 173 40 0 0 0 0 0 0 0 0 91 129 197 136 102 122 77 40 17 9 0 0 0 0 0 0 0 0 0 0 0 0
39 66 96 102 116 115 146 61 44 79 90 97 99 101 20 8 0 0 0 0 0 1 43 146 108 156 215 88 211 23 8 6 1 6 0 0 0 0 0 0 0 0 0 0 0
51 72 85 97 114 115 1 6 54 24 84 51 36 50 56 25 27 20 0 12 30 48 189 97 78 7 14 0 0 0 19 32 14 2 0 0 0 0 0 0 0 0 0 0 0
51 60 73 105 41 19 23 34 28 14 9 3 0 6 15 15 12 2 28 2 1 11 44 52 38 19 34 12 4 10 21 19 20 5 0 0 0 0 0 0 0 0 0 0 0
60 55 39 82 1 19 21 24 9 4 33 5 11 22 44 31 7 2 62 2 20 27 19 3 2 19 3 16 18 53 23 28 15 0 0 0 0 0 0 0 0 0 0 0 0
61 54 26 18 21 22 31 21 22 15 7 24 46 25 36 47 20 1 42 19 79 21 56 30 12 15 17 15 25 35 26 35 13 0 0 0 0 0 0 0 0 0 0 0 0
54 52 25 2 35 5 16 23 17 11 51 66 50 37 44 12 4 4 0 8 33 1 9 3 12 39 46 4 13 5 16 48 1 1 1 0 0 0 0 0 0 0 0 0 0
38 35 6 44 26 15 29 13 22 38 24 30 30 33 26 4 9 4 2 0 8 4 12 11 2 0 1 1 13 0 0 5 4 14 17 2 0 0 0 0 0 0 0 0 0
32 18 5 4 11 1 1 20 23 43 1 2 8 18 5 22 4 4 5 15 6 3 7 6 8 6 0 1 1 0 5 22 68 17 7 0 0 0 0 0 0 0 0 0 0
30 0 2 0 10 8 6 10 3 3 10 9 9 17 3 4 0 16 55 33 19 1 17 21 13 3 6 10 6 5 5 100 32 20 3 0 0 0 0 0 0 0 0 0 0
5 1 11 6 7 16 14 15 6 3 7 9 1 1 13 28 21 14 4 7 13 13 15 12 18 11 7 5 6 8 4 0 0 0 0 0 0 0 0 0 0 0 0 0 0
1 1 0 0 6 6 13 6 8 1 11 10 22 10 15 24 38 18 39 0 0 0 0 0 16 10 4 1 0 2 0 5 9 0 0 0 0 0 0 0 0 0 0 0 0
0 2 0 0 2 6 4 23 6 0 1 4 8 5 5 7 11 1 3 0 0 0 0 0 0 11 4 12 2 0 0 0 0 0 0 0 0 0 0 0 0 0 0 0 0
1 17 0 0 0 1 17 1 0 5 1 1 1 5 4 0 2 1 5 2 0 0 0 0 4 6 7 0 0 0 0 0 0 0 0 0 0 0 0 0 0 0 0 0 0
0 0 0 0 1 5 5 7 0 0 0 0 1 1 0 0 0 0 0 0 0 0 1 0 0 6 2 0 0 0 0 0 0 0 0 0 0 0 0 0 0 0 0 0 0
2 2 0 6 2 1 1 1 1 0 0 0 0 0 0 0 0 0 0 0 0 0 0 0 0 0 2 0 0 6 0 0 0 0 0 0 0 0 0 0 0 0 0 0 0
4 2 3 14 10 2 1 10 3 3 0 0 0 0 0 0 0 0 0 0 0 0 0 0 0 0 0 0 0 0 0 0 0 0 4 0 0 0 0 0 0 0 0 0 0
5 6 2 4 3 4 3 4 6 4 2 0 0 0 0 0 0 0 0 0 3 0 0 0 0 0 0 0 0 0 0 0 0 0 0 0 0 0 0 0 0 0 0 0 0
13 13 13 1 8 4 4 1 2 8 4 0 0 0 0 0 0 0 0 0 0 0 0 0 0 0 0 0 0 0 0 0 0 0 0 0 0 0 0 0 0 0 0 0 0

GFSSW_con_sbcape_072.txt.gz
CAPE
83 81 88 76 86 96 89 96 79 71 48 61 72 59 49 57 59 7 2 0 8 60 37 19 0 41 293 271 200 1 24 1 1 6 4 0 1 7 0 0 0 0 1 563 1166
73 77 81 74 74 61 57 78 84 78 72 49 68 81 67 47 40 12 5 11 1 42 59 26 3 42 123 177 202 33 0 0 0 0 1 10 0 0 0 0 0 0 16 386 1043
76 65 69 71 81 75 71 74 75 73 68 72 76 87 100 62 5 0 1 2 3 19 65 56 18 9 88 105 138 9 0 0 0 0 0 0 0 0 0 0 0 0 0 0 762
62 70 74 83 79 81 84 87 85 86 95 85 91 104 111 58 10 26 12 0 5 2 98 75 5 31 70 22 52 1 0 0 0 30 0 0 0 0 0 0 0 0 0 32 25
75 57 42 58 67 70 76 102 102 99 97 73 61 91 46 50 4 0 12 0 0 27 68 79 21 8 16 21 107 59 0 0 0 5 0 0 0 0 0 0 0 0 0 0 44
70 62 57 50 48 49 63 87 119 112 137 136 127 107 44 19 1 8 1 0 0 1 12 59 29 0 32 26 39 66 73 10 7 0 0 0 0 0 0 0 0 0 0 0 0
64 53 34 43 67 76 116 105 129 125 160 219 189 161 29 11 11 29 0 0 0 0 0 41 98 14 8 52 41 85 64 58 9 0 0 0 0 0 0 0 0 0 0 0 0
56 48 42 68 78 112 171 182 142 108 162 260 261 143 16 10 5 0 0 0 0 0 0 0 0 64 17 57 49 40 35 70 36 3 0 0 0 0 0 0 0 0 0 0 0
40 47 46 62 74 101 144 189 167 137 154 213 134 144 6 50 3 0 0 0 0 0 0 0 0 105 70 38 41 88 42 4 3 16 2 0 0 0 0 0 0 0 0 0 0
35 44 68 70 65 69 121 123 60 17 94 67 99 38 15 10 2 0 0 5 0 0 0 1 122 99 63 52 12 0 0 0 0 0 0 0 0 0 0 0 0 0 0 0 0
32 44 61 64 30 31 48 2 16 23 48 11 15 24 40 13 0 0 0 7 1 8 10 122 64 27 0 0 0 5 0 0 0 0 10 0 0 0 0 0 0 0 0 0 0
28 33 49 43 42 34 28 24 15 2 10 13 15 14 22 4 0 1 6 7 0 3 4 51 11 1 0 11 0 24 4 12 20 16 3 0 0 0 0 0 0 0 0 0 0
35 31 38 13 22 50 9 5 1 9 2 7 2 11 21 17 6 1 83 10 0 4 7 33 0 0 38 15 11 0 0 0 8 0 0 0 0 0 0 0 0 0 0 0 0
35 34 22 1 2 8 12 19 24 19 10 22 13 22 63 35 8 27 80 2 8 0 0 26 27 38 29 22 6 0 0 3 19 0 0 0 0 0 0 0 0 0 0 0 0
27 29 6 1 6 0 6 4 7 16 13 12 1 0 59 13 3 15 6 5 5 2 35 1 7 36 2 0 13 2 1 11 2 0 0 0 0 0 0 0 0 0 0 0 0
23 13 1 0 28 5 4 18 21 15 2 4 19 16 14 5 6 29 22 11 16 25 3 4 0 5 6 0 0 0 0 2 1 3 28 0 0 0 0 0 0 0 0 0 0
19 6 0 0 3 6 1 1 6 3 0 3 21 7 4 14 11 11 9 6 3 0 1 0 6 5 0 1 0 1 1 1 2 8 7 0 0 0 0 0 0 0 0 0 0
1 0 0 0 7 6 9 5 0 3 4 5 14 2 1 3 0 3 5 15 3 8 6 4 1 5 3 1 1 1 5 11 7 5 0 0 0 0 0 0 0 0 0 0 0
0 0 2 1 0 2 6 0 3 6 6 3 0 2 4 5 1 2 1 10 5 4 0 0 4 7 3 4 3 10 2 0 0 0 0 0 0 0 0 0 0 0 0 0 0
0 0 0 0 0 0 0 2 3 0 0 8 1 0 7 9 1 23 6 1 0 0 0 0 6 9 7 10 4 10 0 0 3 0 0 0 0 0 0 0 0 0 0 0 0
0 0 0 0 0 0 0 1 5 0 0 2 0 1 12 5 12 0 0 0 0 0 0 0 1 18 9 9 11 6 3 0 0 0 0 0 0 0 0 0 0 0 0 0 0
0 2 0 0 0 0 3 3 0 6 0 0 4 1 2 0 0 0 0 0 0 0 0 0 0 2 3 0 0 0 0 0 0 0 0 0 0 0 0 0 0 0 0 0 0
0 0 0 0 1 0 0 1 0 0 1 0 1 0 0 0 0 0 0 0 0 0 0 0 0 0 0 0 0 0 0 0 0 0 0 0 0 0 0 0 0 0 0 0 0
0 0 0 2 0 0 0 0 7 0 0 0 0 0 0 0 0 0 0 0 0 0 0 0 0 0 0 0 0 0 0 0 0 0 0 0 0 0 0 0 0 0 0 0 0
0 1 4 1 5 2 2 2 2 2 0 0 0 0 0 0 0 0 0 0 0 0 0 0 0 0 0 0 0 0 0 0 0 0 0 0 0 0 0 0 0 0 0 0 0
4 3 1 0 0 0 0 0 2 1 2 4 1 0 0 0 0 0 0 0 0 0 0 0 0 0 0 0 0 0 0 0 0 0 0 0 0 0 0 0 0 0 0 0 0
2 4 8 0 3 1 1 1 1 5 12 5 0 3 0 0 0 0 0 0 0 0 0 0 0 0 0 0 0 0 0 0 0 0 0 0 0 0 0 0 0 0 0 0 0

GFSSW_con_sbcape_075.txt.gz
CAPE
59 70 64 46 55 51 49 29 29 48 57 43 31 39 67 62 39 12 0 0 0 4 62 41 0 0 130 251 173 2 0 5 13 1 0 0 0 0 0 0 0 0 382 858 931
63 49 52 53 63 55 55 56 61 44 58 40 25 35 54 62 7 1 0 0 3 0 62 29 6 0 96 140 189 23 0 0 0 0 0 0 0 0 0 0 0 466 898 959 890
48 60 46 33 43 44 44 52 64 67 68 63 63 57 59 45 12 0 4 10 2 23 0 81 51 0 95 30 84 19 0 0 0 0 0 0 0 0 0 0 0 230 1083 895 885
46 55 51 47 48 51 55 55 59 83 76 79 57 49 51 29 3 22 63 7 12 15 0 80 58 14 59 40 4 0 0 0 0 0 15 0 0 0 0 0 0 0 40 534 752
56 50 45 40 48 56 62 61 70 87 99 85 90 51 28 11 0 0 0 0 0 20 1 44 52 6 17 1 1 0 0 0 2 4 0 0 0 0 0 0 0 0 0 23 284
39 45 40 46 60 80 114 143 159 107 126 133 103 70 4 7 0 0 0 2 5 4 6 36 54 12 14 5 0 0 16 25 5 0 0 0 0 0 0 0 0 0 0 0 0
41 36 39 28 72 95 123 161 198 183 114 123 121 77 30 0 0 0 5 5 0 0 0 2 65 67 0 3 0 0 48 38 35 0 0 0 0 0 0 0 0 0 0 0 0
47 35 58 57 76 87 108 182 183 198 137 97 185 72 4 0 0 3 0 0 0 0 0 0 0 0 30 21 7 23 38 37 20 0 0 0 0 0 0 0 0 0 0 0 0
40 25 64 54 65 20 47 127 180 176 127 123 49 51 31 89 63 1 0 0 0 0 0 0 0 80 50 10 42 41 11 3 6 7 0 0 0 0 0 0 0 0 0 0 0
39 37 38 58 43 11 0 6 65 10 28 56 55 4 4 19 9 0 0 6 1 1 0 0 6 117 45 9 3 0 0 0 0 0 0 0 0 0 0 0 0 0 0 0 0
31 41 41 49 41 13 0 1 0 1 26 4 1 3 25 11 0 0 0 1 0 0 7 60 99 65 0 0 0 0 0 0 0 0 0 0 0 0 0 0 0 0 0 0 0
34 36 34 34 36 7 0 1 13 1 2 0 7 1 3 1 0 0 8 26 16 0 6 13 39 0 7 0 4 0 0 0 0 0 8 0 0 0 0 0 0 0 0 0 0
29 32 24 9 20 0 0 0 0 1 0 0 0 0 11 0 0 0 27 7 0 7 18 18 2 32 12 2 0 4 0 0 0 0 0 0 0 0 0 0 0 0 0 0 0
27 25 9 2 0 0 0 0 1 0 0 7 2 12 56 1 17 35 26 4 3 6 3 6 0 36 13 1 0 23 0 0 6 0 0 0 0 0 0 0 0 0 0 0 0
14 14 2 0 0 0 0 0 0 0 0 5 8 0 23 15 0 24 66 19 9 15 12 0 24 9 32 0 3 0 1 6 2 3 0 0 0 0 0 0 0 0 0 0 0
13 8 0 0 0 0 0 0 0 1 0 8 6 5 4 4 26 26 27 1 3 3 3 18 18 16 5 0 0 0 0 0 0 1 1 0 0 0 0 0 0 0 0 0 0
7 0 0 0 0 0 0 0 0 0 0 1 15 5 2 9 17 38 22 4 4 2 1 1 3 0 0 0 0 0 0 1 1 2 0 0 0 0 0 0 0 0 0 0 0
0 0 0 0 0 0 0 0 0 0 0 0 2 2 2 6 3 23 2 1 3 4 0 1 0 3 0 0 0 0 0 0 10 0 0 0 0 0 0 0 0 0 0 0 0
0 0 0 0 0 0 0 0 0 0 0 1 0 0 4 1 0 6 2 3 1 19 0 0 11 4 2 0 0 9 3 1 0 0 0 0 0 0 0 0 0 0 0 0 0
0 0 0 0 0 0 0 0 0 0 0 3 0 0 1 2 2 3 3 0 0 0 0 0 8 8 5 3 0 5 0 0 0 0 0 0 0 0 0 0 0 0 0 0 0
0 0 0 0 0 0 0 0 0 0 0 1 0 0 0 0 0 0 0 0 0 0 0 0 0 24 6 8 2 9 8 0 0 0 0 0 0 0 0 0 0 0 0 0 0
0 0 0 0 0 1 3 4 0 1 0 0 0 0 0 0 0 0 0 0 0 0 0 0 0 2 1 0 0 1 1 0 0 0 0 0 0 0 0 0 0 0 0 0 0
0 0 0 0 0 0 0 0 0 0 0 0 0 0 0 0 0 0 0 0 0 0 0 0 0 0 0 0 0 0 0 0 0 0 0 0 0 0 0 0 0 0 0 0 0
0 0 0 0 0 0 1 0 4 0 0 0 0 0 0 0 0 0 0 0 0 0 0 0 0 0 0 0 0 0 0 0 0 0 0 0 0 0 0 0 0 0 0 0 0
0 1 1 0 0 0 1 10 7 0 0 0 1 0 0 0 0 0 0 0 0 0 0 0 0 0 0 0 0 0 0 0 0 0 0 0 0 0 0 0 0 0 0 0 0
0 0 0 0 0 0 0 1 3 2 2 5 1 0 0 0 0 0 0 0 0 0 0 0 0 0 0 0 0 0 0 0 0 0 0 0 0 0 0 0 0 0 0 0 0
0 0 2 0 0 0 0 1 1 5 3 13 0 0 0 0 0 0 0 0 0 0 0 0 0 0 0 0 0 0 0 0 0 0 0 0 0 0 0 0 0 0 0 0 0

GFSSW_con_sbcape_078.txt.gz
CAPE
23 56 55 52 40 54 52 54 51 50 31 44 35 37 29 41 53 9 1 0 0 0 0 0 0 0 68 139 199 0 11 2 0 0 0 0 0 0 0 0 0 1 313 639 448
42 49 56 43 41 38 49 50 54 62 65 51 48 40 37 47 30 21 0 26 5 23 1 0 5 0 45 84 167 149 0 0 0 0 0 0 0 0 0 0 0 777 756 688 489
47 51 50 50 49 47 53 58 67 65 80 89 74 66 50 32 7 0 0 52 55 47 6 0 51 17 54 43 49 18 0 0 0 0 0 1 0 0 0 0 0 422 1082 691 540
35 59 44 36 39 49 67 98 110 119 71 117 91 67 29 0 0 14 63 37 66 0 4 0 34 50 43 51 12 6 0 0 0 0 0 0 0 0 0 0 0 2 891 648 561
34 43 40 33 27 55 86 111 189 214 153 171 131 57 7 2 0 0 0 1 0 18 0 0 28 54 32 11 10 2 0 0 0 0 0 0 0 0 0 0 0 0 546 619 456
41 44 35 53 61 70 80 97 151 230 173 92 113 88 0 0 0 0 0 0 0 0 39 2 37 29 31 1 2 13 1 0 0 0 0 0 0 0 2 24 0 0 90 425 500
35 36 38 50 54 59 33 105 155 190 156 162 92 57 1 0 0 0 0 4 0 0 0 2 21 69 3 0 0 8 7 1 0 0 0 0 0 0 0 0 0 0 0 0 23
38 33 29 49 48 26 22 41 101 130 131 116 133 43 0 0 0 0 0 0 0 1 0 0 1 13 20 4 0 2 7 17 0 0 0 0 0 0 0 0 0 0 0 0 0
36 36 53 40 43 21 27 17 69 89 106 75 6 9 0 59 21 1 0 0 16 9 2 0 28 55 34 20 11 20 0 0 0 0 0 0 0 0 0 0 0 0 0 0 0
27 35 50 40 38 21 2 6 7 11 16 24 8 1 0 12 4 0 0 18 50 16 0 1 28 64 27 2 0 7 10 0 0 0 0 0 0 0 0 0 0 0 0 0 0
32 37 45 38 23 17 0 0 0 0 0 2 3 0 3 0 0 1 3 1 2 0 4 41 22 4 0 0 2 0 6 1 0 0 0 0 0 0 0 0 0 0 0 0 0
26 33 34 18 19 0 0 0 0 0 0 0 0 0 0 0 0 0 11 11 5 0 3 2 5 8 3 0 2 0 0 0 0 0 0 0 0 0 0 0 0 0 0 0 0
23 22 24 9 10 0 0 0 0 0 0 0 0 0 3 0 0 0 17 1 0 1 2 4 0 10 18 1 2 1 0 0 0 0 0 0 0 0 0 0 0 0 0 0 0
17 14 11 5 0 0 0 0 0 0 0 8 4 0 13 0 1 14 10 2 0 1 11 7 0 0 1 9 0 10 0 0 0 0 0 0 0 0 0 0 0 0 0 0 0
8 4 4 0 0 0 0 0 0 0 0 8 6 3 3 1 0 19 0 10 1 0 0 0 0 2 9 3 0 1 4 1 0 1 0 0 0 0 0 0 0 0 0 0 0
7 1 0 0 0 0 0 0 0 0 0 5 9 4 4 3 0 28 17 2 0 17 5 0 15 5 13 0 1 0 0 0 3 10 5 0 0 0 0 0 0 0 0 0 0
1 0 0 0 0 0 0 0 0 0 0 0 10 5 2 9 9 8 5 1 3 0 7 12 18 3 2 0 0 0 0 0 7 3 0 0 0 0 0 0 0 0 0 0 0
0 0 0 0 0 0 0 0 0 0 0 0 4 3 4 14 3 15 9 7 1 8 42 25 3 4 0 0 1 0 0 0 0 0 0 0 0 0 0 0 0 0 0 0 0
0 0 0 0 0 0 0 0 0 0 0 1 1 0 3 13 6 12 2 4 2 2 7 0 5 2 0 0 0 1 7 0 0 0 0 0 0 0 0 0 0 0 0 0 0
0 0 0 0 0 0 0 0 0 0 0 2 0 1 10 11 14 19 7 0 0 0 0 0 8 3 5 0 0 0 0 2 0 0 0 0 0 0 0 0 0 0 0 0 0
0 0 0 0 0 0 0 0 0 0 0 0 0 0 0 1 0 0 0 0 0 0 0 0 0 15 0 2 7 17 9 0 0 0 0 0 0 0 0 0 0 0 0 0 0
0 0 0 0 0 0 0 0 0 0 0 0 0 0 0 0 0 0 0 0 0 0 0 0 0 3 4 0 0 0 1 0 0 0 0 0 0 0 0 0 0 0 0 0 0
0 0 0 0 0 0 0 0 0 1 0 0 0 0 0 0 0 0 0 0 0 0 0 0 0 0 3 2 1 8 9 5 0 0 0 0 0 0 0 0 0 0 0 0 0
0 0 0 0 0 0 0 0 4 5 0 0 0 0 0 0 0 0 0 0 0 0 0 0 0 0 0 0 0 0 0 0 0 0 0 0 0 0 0 0 0 0 0 0 0
0 0 0 0 0 0 0 0 0 4 0 0 0 0 0 0 0 0 0 0 0 0 0 0 0 0 0 0 0 0 0 0 0 0 0 0 0 0 0 0 0 0 0 0 0
0 0 0 0 0 0 0 0 0 0 5 6 3 0 0 0 0 0 0 0 0 0 0 0 0 0 0 0 0 0 0 0 0 0 0 0 0 0 0 0 0 0 0 0 0
0 0 4 0 0 0 0 0 0 0 0 1 7 0 0 0 0 0 0 0 0 0 0 0 0 0 0 0 0 0 0 0 0 0 0 0 0 0 0 0 0 0 0 0 0

GFSSW_con_sbcape_081.txt.gz
CAPE
31 59 61 51 43 41 37 48 60 60 51 56 55 60 54 47 46 38 31 0 1 2 0 0 0 0 40 56 73 0 0 0 0 0 0 0 0 0 0 0 0 0 37 151 674
18 51 47 48 56 55 39 48 62 79 93 91 80 61 64 64 22 11 17 43 106 103 14 0 0 0 19 43 73 62 5 0 0 0 0 0 0 0 0 0 0 0 195 747 1289
34 15 31 41 38 31 47 71 101 143 194 169 122 91 76 24 0 0 0 98 138 86 22 19 1 18 21 34 47 24 0 0 0 0 0 0 0 0 0 0 0 0 1 562 1051
40 43 45 37 46 53 66 92 108 173 219 168 155 127 49 0 0 13 64 62 98 97 48 27 1 35 17 8 15 27 3 0 0 0 0 0 0 0 0 0 0 0 0 4 492
39 37 36 30 34 55 68 51 72 159 219 140 144 94 3 0 0 0 3 0 0 0 1 38 21 35 16 0 38 42 23 13 1 0 0 0 0 0 0 0 0 0 0 45 305
33 30 33 33 16 51 18 14 23 100 125 25 51 71 0 0 0 0 0 0 0 0 11 92 18 8 23 0 25 57 37 18 2 0 0 0 0 0 0 0 0 0 0 142 323
19 38 32 46 41 47 25 28 28 40 54 25 82 21 0 0 0 0 0 0 0 0 0 59 40 59 23 8 0 21 39 35 0 0 0 0 0 0 0 0 0 0 0 2 192
22 33 26 43 41 33 30 5 21 12 51 19 72 0 0 0 0 0 0 0 0 0 0 0 52 17 52 7 0 7 17 32 0 0 0 0 0 0 0 2 0 0 0 0 0
17 34 24 42 33 31 4 0 7 35 44 70 0 0 0 1 1 0 0 6 10 1 0 0 88 49 85 28 8 3 0 1 1 0 0 0 0 0 0 0 0 0 0 0 0
25 33 29 30 20 21 0 0 0 1 6 0 0 0 0 0 0 0 0 13 42 0 0 1 88 95 91 18 1 0 0 0 0 0 0 0 0 0 0 0 0 0 0 0 0
22 28 26 31 15 0 0 0 0 0 0 0 0 0 2 0 3 7 0 5 29 6 3 25 83 17 5 5 0 0 0 0 0 0 0 0 0 0 0 0 0 0 0 0 0
12 25 16 23 15 0 0 0 0 0 0 0 0 0 0 0 1 16 8 0 19 10 2 10 12 0 1 0 0 0 0 0 0 0 0 0 0 0 0 0 0 0 0 0 0
11 12 10 11 2 0 0 0 0 0 0 0 0 0 2 0 0 4 19 0 10 1 0 1 0 2 16 3 6 0 0 0 0 0 0 0 0 0 0 0 0 0 0 0 0
4 5 5 1 0 0 0 0 0 0 0 0 2 0 0 0 0 30 9 0 0 10 0 0 0 15 8 0 5 5 0 0 0 0 0 0 0 0 0 0 0 0 0 0 0
6 2 1 0 0 0 0 0 0 0 0 7 2 0 0 0 0 1 2 5 0 0 0 0 0 34 4 3 0 0 0 0 0 0 0 0 0 0 0 0 0 0 0 0 0
4 5 0 0 0 0 0 0 0 0 0 2 6 2 1 0 0 1 7 0 0 10 0 1 1 54 20 0 2 0 0 1 3 0 1 0 0 0 0 0 0 0 0 0 0
4 0 0 0 0 0 0 0 0 0 0 0 9 7 1 1 0 8 1 0 1 1 2 8 20 10 12 2 6 1 0 1 13 6 0 0 0 0 0 0 0 0 0 0 0
0 0 0 0 0 0 0 0 0 0 0 4 10 9 5 7 12 6 0 0 0 8 0 10 7 1 3 5 2 0 0 0 0 0 0 0 0 0 0 0 0 0 0 0 0
0 0 0 0 0 0 0 0 0 0 0 0 3 2 13 24 5 3 0 3 0 1 4 2 12 5 11 1 0 2 0 0 0 0 0 0 0 0 0 0 0 0 0 0 0
0 0 0 0 0 0 0 0 0 0 0 0 0 0 0 14 17 20 7 0 2 0 0 0 19 10 18 1 0 0 0 0 0 0 0 0 0 0 0 0 0 0 0 0 0
0 0 0 0 0 0 0 0 0 0 0 0 0 0 0 0 5 3 0 3 4 1 0 0 0 11 0 5 3 2 5 0 0 0 0 0 0 0 0 0 0 0 0 0 0
0 0 0 0 0 0 0 0 0 0 0 0 0 0 0 0 0 0 0 0 0 0 0 0 0 2 5 0 0 0 0 0 0 0 0 0 0 0 0 0 0 0 0 0 0
0 0 0 0 0 0 0 0 0 0 0 0 0 0 0 0 0 0 0 0 0 0 0 0 0 3 0 0 0 2 0 4 0 0 0 0 0 0 0 0 0 0 0 0 0
0 0 0 0 0 0 0 0 0 0 0 0 0 0 0 0 0 0 0 0 0 0 0 0 0 0 0 0 0 1 0 1 0 0 0 0 0 0 0 0 0 0 0 0 0
0 0 0 0 0 0 0 0 0 0 0 0 0 0 0 0 0 0 0 0 0 0 0 0 0 0 0 0 0 0 0 0 0 0 0 0 0 0 0 0 0 0 0 0 0
0 0 0 0 0 0 0 0 0 7 17 1 4 0 0 0 0 0 0 0 0 0 0 0 0 0 0 0 0 0 0 0 0 0 0 0 0 0 0 0 0 0 0 0 0
0 0 0 0 0 0 0 0 0 0 0 2 25 0 0 0 0 0 0 0 0 0 0 0 0 0 0 0 0 0 0 0 0 0 0 0 0 0 0 0 0 0 0 0 0

GFSSW_con_sbcape_084.txt.gz
CAPE
22 12 25 17 36 36 34 44 59 79 97 108 88 71 77 80 53 40 30 5 13 38 21 0 0 0 12 11 40 0 6 6 0 0 0 0 0 0 0 0 0 0 0 13 124
13 13 37 45 32 34 36 49 68 104 150 200 181 114 94 77 16 6 15 107 95 105 46 26 0 10 4 7 33 64 8 0 0 0 0 0 0 0 0 0 0 0 0 201 1148
35 35 40 30 35 39 58 59 58 66 139 178 155 179 120 11 0 0 95 49 160 124 57 61 22 21 18 25 26 40 2 0 0 0 0 0 2 14 0 0 0 0 0 0 10
31 27 29 30 21 23 46 40 18 21 64 145 103 85 90 0 0 0 89 72 83 103 53 57 68 33 26 1 0 46 25 1 0 0 0 0 0 8 0 0 0 0 0 0 0
20 36 31 27 30 18 33 19 27 27 43 45 37 17 2 0 0 0 4 2 0 13 25 43 66 50 18 0 1 53 43 14 0 0 0 0 0 0 0 0 0 0 0 0 0
18 26 28 27 43 37 24 19 24 22 19 0 0 28 0 0 0 0 0 0 0 0 11 62 54 11 32 9 6 4 33 23 8 2 1 0 0 0 0 0 0 0 0 0 0
14 25 31 32 49 34 15 9 19 1 11 4 14 9 0 0 0 0 0 3 1 0 0 18 24 56 62 11 17 27 12 24 8 1 0 0 0 0 0 0 0 0 0 0 0
23 23 34 29 35 26 2 4 12 0 4 21 39 0 0 0 0 10 2 7 1 0 0 0 0 21 36 8 5 49 20 3 16 0 0 0 0 0 0 0 0 0 0 0 0
19 25 36 29 28 20 0 0 22 1 11 18 0 0 0 1 5 0 0 14 4 0 0 0 1 46 79 39 0 15 31 6 5 1 0 0 0 0 0 0 0 0 0 0 0
24 25 34 31 19 5 0 0 0 0 0 0 0 0 0 0 0 0 0 11 7 0 0 8 45 34 26 40 0 6 4 13 5 0 0 0 0 0 0 0 0 0 0 0 0
23 25 28 31 13 0 0 0 0 0 0 0 0 0 3 6 8 2 1 4 24 0 2 5 25 0 10 11 0 0 0 0 0 0 0 0 0 0 0 0 0 0 0 0 0
23 22 25 17 8 0 0 0 0 0 0 0 0 0 0 0 0 0 1 4 5 11 2 5 1 0 10 12 5 0 0 0 0 0 0 0 0 0 0 0 0 0 0 0 0
19 15 11 11 0 0 0 0 0 0 0 0 0 0 0 0 0 0 0 0 3 3 3 6 4 14 6 6 11 0 0 0 0 0 0 0 0 0 0 0 0 0 0 0 0
13 13 6 0 0 0 0 0 0 0 0 0 1 0 0 0 0 0 0 0 11 18 0 4 13 16 3 5 2 0 0 0 0 0 0 0 1 0 0 0 0 0 0 0 0
9 7 2 0 0 0 0 0 0 0 0 0 5 0 2 0 0 0 0 6 0 2 0 2 0 2 2 4 0 0 0 0 0 0 0 0 0 0 0 0 0 0 0 0 0
2 2 0 0 0 0 0 0 0 0 0 1 5 2 1 0 0 0 0 0 6 12 0 2 0 2 4 6 0 0 6 5 1 0 0 0 0 0 0 0 0 0 0 0 0
2 0 0 0 0 0 0 0 0 0 0 0 11 6 2 0 0 2 0 0 0 0 0 5 7 49 15 2 0 2 3 19 37 12 0 0 0 0 0 0 0 0 0 0 0
0 0 0 0 0 0 0 0 0 0 0 0 10 9 0 2 4 4 0 0 0 0 0 0 15 35 18 2 8 1 0 0 0 0 0 0 0 0 0 0 0 0 0 0 0
0 0 0 0 0 0 0 0 0 0 0 0 1 0 13 20 13 11 2 0 0 0 1 0 12 11 0 7 9 3 0 0 0 0 0 0 0 0 0 0 0 0 0 0 0
0 0 0 0 0 0 0 0 0 0 0 0 0 0 0 11 17 11 2 0 0 0 0 0 16 11 1 3 4 0 0 0 0 0 0 0 0 0 0 0 0 0 0 0 0
0 0 0 0 0 0 0 0 0 0 0 0 0 0 0 0 12 1 3 5 0 0 0 0 0 22 1 5 4 1 0 0 0 0 0 0 0 0 0 0 0 0 0 0 0
0 0 0 0 0 0 0 0 0 0 0 0 0 0 0 0 0 4 8 4 4 0 1 0 0 4 7 0 0 0 0 0 0 0 0 0 0 0 0 0 0 0 0 0 0
0 0 0 0 0 0 0 0 0 3 2 0 0 0 0 0 0 0 0 0 0 0 0 0 0 3 5 1 0 0 0 0 0 0 0 0 0 0 0 0 0 0 0 0 0
0 0 0 0 0 0 0 0 0 0 2 10 0 0 0 0 0 0 2 0 0 0 1 0 0 0 0 0 0 0 0 0 0 0 0 0 0 0 0 0 0 0 0 0 0
0 0 0 0 0 0 0 0 2 4 0 7 18 5 0 0 0 0 0 1 0 0 0 0 0 0 0 0 0 0 0 0 0 0 0 0 0 0 0 0 0 0 0 0 0
0 0 0 0 0 0 0 0 0 0 8 0 16 10 0 0 0 0 0 0 0 0 0 0 0 0 0 0 0 0 0 0 0 0 0 0 0 0 0 0 0 0 0 0 0
0 0 0 0 0 0 0 0 0 0 0 3 0 12 6 0 0 0 0 0 0 0 0 0 0 0 0 0 0 0 0 0 0 0 0 0 0 0 0 0 0 0 0 0 0

GFSSW_con_sbcape_087.txt.gz
CAPE
14 19 17 53 35 36 48 55 54 49 57 89 189 162 125 78 52 7 0 13 23 62 76 3 0 2 34 9 78 0 37 17 0 0 0 0 0 0 0 0 0 0 1 3 414
12 41 34 38 35 29 15 48 46 37 37 41 124 115 100 31 0 0 1 7 128 124 61 25 3 17 60 7 53 127 47 0 0 0 0 0 0 0 0 0 0 0 0 0 263
17 31 38 26 27 28 21 57 22 22 22 20 74 30 24 0 0 0 105 126 74 130 43 8 32 11 42 50 19 14 0 0 0 0 0 0 0 0 0 0 0 0 0 0 0
25 27 40 27 43 37 46 26 22 22 40 23 27 25 30 0 0 0 89 69 68 62 50 2 33 49 73 62 4 16 0 0 0 0 0 0 0 0 0 0 0 0 0 0 0
28 29 26 28 46 41 35 20 17 31 13 15 28 44 1 0 0 0 0 18 0 0 39 6 7 26 69 4 37 38 6 5 4 13 0 0 0 0 0 0 0 0 0 0 0
30 32 28 33 36 36 21 7 15 6 14 7 3 15 0 0 0 0 0 0 0 0 0 44 13 3 45 6 13 12 9 15 21 2 3 0 0 0 0 0 0 0 0 0 0
30 27 31 40 38 33 13 11 4 3 12 10 20 0 0 0 0 0 4 1 0 0 0 25 21 32 40 40 0 53 17 0 5 5 0 0 0 0 0 0 0 0 0 0 0
24 25 31 33 30 25 2 11 6 0 0 4 0 0 0 0 0 2 1 0 0 0 0 0 0 1 15 28 1 95 9 18 0 1 8 0 0 0 0 0 0 1 0 0 0
20 27 26 30 33 15 0 0 8 5 2 0 0 0 0 2 0 0 0 0 0 0 0 4 1 39 43 13 28 63 26 0 4 0 2 0 0 0 0 0 0 0 0 0 0
22 23 23 23 25 6 0 0 0 0 0 0 0 0 0 0 0 0 0 0 2 1 13 10 21 49 33 5 4 5 26 1 0 0 0 0 0 0 0 0 0 0 0 0 0
18 15 20 21 14 0 0 0 0 0 0 0 0 0 3 5 0 0 0 0 0 0 0 6 4 14 8 4 0 0 1 1 0 0 3 0 0 0 0 0 0 0 0 0 0
14 16 18 18 5 0 0 0 0 0 0 0 0 0 0 0 0 0 0 0 0 10 0 3 4 2 2 14 17 0 0 0 0 0 5 0 0 0 0 0 0 0 0 0 0
14 14 14 10 0 0 0 0 0 0 0 0 0 0 0 0 0 0 0 0 0 8 0 0 3 0 24 4 5 0 0 0 0 0 0 0 0 0 0 0 0 0 0 0 0
11 8 4 0 0 0 0 0 0 0 0 0 0 0 0 0 0 0 0 0 0 14 0 5 2 14 3 14 7 3 0 0 0 0 6 0 0 0 0 0 0 0 0 0 0
5 4 3 0 0 0 0 0 0 0 0 0 0 0 0 0 0 0 0 0 0 18 0 4 18 35 4 4 2 3 0 0 0 0 0 0 0 0 0 0 0 0 0 0 0
7 1 1 0 0 0 0 0 0 0 0 0 6 4 0 0 0 0 0 0 6 17 0 0 0 0 1 1 0 0 7 11 11 0 1 0 0 0 0 0 0 0 0 0 0
1 0 0 0 0 0 0 0 0 0 0 0 7 8 1 0 0 0 0 0 0 0 0 25 0 28 0 0 0 5 16 51 39 13 0 0 0 0 0 0 0 0 0 0 0
0 0 0 0 0 0 0 0 0 0 0 0 7 10 3 4 1 0 1 0 0 0 0 0 3 2 7 1 4 2 0 0 0 0 0 0 0 0 0 0 0 0 0 0 0
0 0 0 0 0 0 0 0 0 0 0 0 4 3 5 14 14 2 0 0 0 0 0 0 13 1 5 8 8 4 0 0 0 0 0 0 0 0 0 0 0 0 0 0 0
0 0 0 0 0 0 0 0 0 0 0 0 0 0 1 14 14 10 2 0 0 0 0 0 4 12 14 38 25 8 0 0 0 0 0 0 0 0 0 0 0 0 0 0 0
0 0 0 0 0 0 0 0 0 0 0 0 0 0 0 1 10 4 7 0 0 0 0 4 2 25 1 2 23 7 10 0 0 0 0 0 0 0 0 0 0 0 0 0 0
0 0 0 0 0 0 0 0 0 0 0 0 0 0 0 0 0 12 7 6 1 0 0 0 0 14 0 0 1 0 0 0 0 0 0 0 0 0 0 0 0 0 0 0 0
0 0 0 0 0 0 0 0 0 35 45 16 16 1 0 0 0 1 6 2 3 0 0 0 0 6 8 0 1 7 0 0 0 0 0 0 0 0 0 0 0 0 0 0 0
0 0 0 0 0 0 0 0 6 10 0 1 35 12 0 0 0 0 0 3 1 7 8 1 0 0 0 0 0 0 0 0 0 0 0 0 0 0 0 0 0 0 0 0 0
0 0 0 0 0 0 0 4 0 0 0 0 3 15 5 0 0 0 3 2 4 5 1 0 0 0 0 0 0 0 0 0 0 0 0 0 0 0 0 0 0 0 0 0 0
0 0 0 0 0 0 0 0 0 0 0 0 3 0 3 11 6 4 0 3 1 0 0 0 0 0 0 0 0 0 0 0 0 0 0 0 0 0 0 0 0 0 0 0 0
0 0 0 0 0 0 0 0 0 0 0 0 0 0 1 17 7 4 0 0 0 0 0 0 0 0 0 0 0 0 0 0 0 0 0 0 0 0 0 0 0 0 0 0 0

GFSSW_con_sbcape_090.txt.gz
CAPE
15 17 36 35 37 24 23 23 36 28 17 17 27 71 95 72 71 13 0 1 44 83 45 36 8 54 94 82 193 144 158 97 44 37 8 19 0 0 0 0 0 28 25 508 733
22 23 36 35 29 34 28 31 34 29 15 18 20 23 21 29 0 0 0 35 19 123 40 55 55 76 101 26 129 86 106 8 35 53 66 46 0 2 0 0 0 0 0 719 1140
24 21 24 27 19 49 30 35 24 19 23 17 28 9 0 21 0 0 102 95 248 105 29 55 39 61 101 85 41 57 0 7 100 48 33 49 0 0 0 0 0 0 1 207 7
20 25 26 28 20 38 25 17 15 17 20 9 12 8 10 0 2 0 66 93 24 97 31 23 26 74 51 33 22 8 0 20 75 26 37 24 0 0 0 0 0 0 0 19 13
23 21 24 28 21 27 23 4 13 11 9 2 2 20 0 0 0 0 0 1 0 31 48 23 50 46 9 16 50 3 9 50 41 21 52 46 0 0 0 0 0 0 0 0 0
23 23 22 27 20 24 19 5 12 2 2 0 0 0 0 0 0 0 0 0 0 0 0 40 2 1 21 7 42 1 23 44 39 36 65 11 1 3 0 0 0 0 7 0 0
27 25 18 19 17 24 7 14 5 1 0 1 0 0 0 0 0 30 2 0 0 1 12 22 10 33 9 20 33 42 14 66 77 18 40 65 17 0 15 0 0 0 4 1 0
18 21 22 24 21 16 1 2 0 0 0 3 0 0 0 0 0 14 10 0 0 0 4 35 29 24 34 10 45 59 34 61 60 47 45 10 0 5 10 0 3 4 0 5 0
15 20 22 25 20 11 0 0 3 6 4 0 0 0 0 0 0 0 29 16 6 1 2 26 38 27 35 2 53 48 18 20 62 48 53 31 0 12 0 0 0 0 0 2 8
11 19 20 21 15 2 0 0 0 0 0 0 0 0 0 0 0 0 2 25 63 32 20 24 53 27 55 5 21 19 28 32 41 73 65 17 2 1 0 0 0 0 0 1 10
10 18 17 17 8 0 0 0 0 0 0 0 0 0 0 0 4 0 16 59 56 17 2 4 64 6 13 8 3 17 27 16 14 40 56 5 2 1 0 0 0 0 0 0 0
8 11 12 10 1 0 0 0 0 0 0 0 0 0 0 0 0 0 10 36 23 41 15 18 23 13 13 6 25 14 39 34 18 74 65 38 7 6 0 0 0 0 0 0 12
12 9 11 2 0 0 0 0 0 0 0 0 0 0 0 0 1 0 16 22 28 28 32 21 11 6 22 40 10 20 25 43 29 47 31 41 11 0 0 0 0 0 0 0 44
9 8 4 0 0 0 0 0 0 0 0 0 1 0 0 0 0 4 17 14 28 8 45 7 3 7 39 18 3 40 23 49 47 18 8 15 2 0 0 0 0 0 0 8 61
9 5 1 0 0 0 0 0 0 0 1 0 2 0 0 0 0 4 1 16 3 8 47 18 34 34 23 12 3 14 34 31 59 63 32 24 22 0 0 0 0 0 0 0 31
7 2 1 0 0 0 0 0 0 3 0 0 4 4 4 4 0 0 12 2 9 22 6 1 6 21 12 6 8 2 6 50 61 65 27 7 14 0 0 0 0 0 0 1 0
1 2 7 0 0 0 0 0 6 2 0 0 10 12 10 3 1 1 3 2 1 8 13 13 5 26 13 8 5 5 29 61 62 62 8 0 18 0 0 0 0 0 0 3 7
0 6 0 0 0 0 0 2 0 0 0 0 1 10 3 10 1 2 1 0 0 0 2 13 5 30 7 6 11 16 8 29 3 7 1 0 4 0 0 0 0 0 0 0 1
0 0 1 0 0 0 4 6 0 2 0 50 19 14 10 21 14 8 5 0 0 0 6 32 16 27 0 1 2 8 69 0 1 0 9 0 0 0 0 0 0 0 0 0 0
0 0 1 0 0 0 5 0 0 0 4 12 67 4 8 18 23 13 8 0 0 0 0 30 26 14 23 2 2 4 8 41 15 2 0 0 0 0 0 0 0 0 0 0 0
0 0 3 0 0 1 19 8 0 1 0 38 38 12 25 22 5 9 18 0 0 0 0 6 13 29 18 9 10 24 52 0 1 0 0 0 0 0 0 0 0 0 0 0 0
0 0 1 0 1 0 0 0 0 41 26 34 4 7 19 10 6 16 9 8 0 0 0 0 8 8 23 3 4 2 22 0 54 0 0 0 0 0 0 0 0 0 0 0 0
0 0 0 0 0 0 0 0 2 0 14 0 32 29 11 6 6 5 3 2 1 0 2 1 57 34 42 19 9 1 0 0 0 0 0 0 0 0 0 0 0 0 0 0 0
0 0 0 0 0 0 0 0 0 0 2 0 8 0 0 25 2 8 1 16 5 6 5 32 2 0 5 0 0 5 0 0 0 0 0 0 0 0 0 0 0 0 0 0 0
0 0 0 0 0 0 0 0 0 0 0 0 4 0 10 3 12 35 4 6 3 0 2 6 10 0 0 0 0 0 0 0 0 0 0 0 0 0 0 0 0 0 0 0 0
0 0 0 0 0 0 0 0 0 0 0 0 0 0 5 3 10 11 10 3 3 6 6 0 2 0 0 0 0 0 0 0 0 0 0 0 0 0 0 0 0 0 0 0 0
0 0 0 0 0 0 0 0 0 1 0 0 0 3 2 4 0 0 0 4 2 5 3 0 0 0 0 0 0 0 0 0 0 0 0 0 0 0 0 0 0 0 0 0 0

GFSSW_con_sbcape_093.txt.gz
CAPE
10 16 15 27 20 14 23 17 26 30 24 16 19 18 23 25 7 15 40 102 64 101 131 28 0 18 106 124 99 141 117 114 38 57 47 14 5 0 0 0 0 10 111 480 765
8 18 17 24 21 16 36 24 24 14 14 25 21 25 7 14 21 17 75 148 229 152 66 43 8 67 138 92 168 160 120 12 2 39 43 42 6 4 0 0 0 0 523 644 1177
14 19 26 18 20 16 40 23 15 12 18 19 13 7 0 11 10 13 121 218 144 337 56 40 63 96 119 103 81 77 12 1 50 71 33 31 31 54 16 0 0 0 358 1058 1645
24 24 26 26 26 21 32 23 7 17 11 5 0 7 0 10 5 0 0 32 87 72 72 43 42 67 133 103 35 60 0 4 65 24 15 16 1 39 33 28 16 0 48 523 984
28 26 22 25 29 19 29 3 12 8 2 0 0 6 6 9 8 0 0 2 0 20 117 41 34 54 73 74 50 5 2 0 1 35 31 36 31 36 38 32 1 0 0 121 260
26 24 26 22 29 24 23 2 11 3 0 0 0 3 5 6 0 0 0 0 2 6 69 56 12 40 57 20 9 13 13 22 22 20 26 84 17 28 27 48 5 0 0 0 42
27 26 22 26 27 31 16 1 3 0 0 0 0 1 0 0 0 3 0 8 1 14 16 56 28 35 42 16 3 3 21 14 57 45 26 29 54 34 32 57 17 0 0 2 0
19 21 20 23 23 21 11 0 3 0 0 0 0 0 14 0 0 0 15 21 5 1 0 22 44 37 40 17 0 1 30 27 16 58 30 66 3 0 59 55 14 1 1 7 1
18 18 18 16 24 15 3 0 0 2 0 0 1 0 17 4 1 2 29 51 35 7 32 5 58 17 7 54 44 17 114 4 9 48 29 80 5 21 7 55 18 0 0 13 6
14 17 15 18 18 2 0 0 0 0 0 0 0 3 0 8 1 0 37 56 61 32 30 36 50 28 32 22 22 64 35 14 8 52 56 47 26 22 41 29 5 0 0 11 9
10 16 14 15 13 0 0 0 1 1 0 0 0 0 0 0 0 32 45 101 87 69 28 9 50 48 22 2 4 2 15 9 0 56 46 38 19 32 9 8 0 0 0 1 9
10 13 15 11 8 0 0 0 0 0 0 0 0 0 0 0 4 12 45 56 65 57 55 30 26 7 14 25 23 13 18 5 2 85 45 58 51 55 12 1 0 0 0 1 0
11 11 11 10 0 0 0 0 0 0 0 0 0 0 3 0 13 20 28 41 30 41 26 37 23 22 16 26 16 18 26 27 6 61 80 50 63 28 8 6 1 0 0 0 0
9 10 9 2 0 0 1 0 0 0 18 5 1 3 0 5 9 8 13 29 37 22 7 29 6 28 39 16 6 27 21 10 11 42 16 10 18 1 1 0 0 0 0 0 0
4 7 5 0 1 6 0 0 0 1 5 0 3 0 2 7 1 13 11 29 17 6 6 79 14 18 37 19 0 22 1 2 37 29 23 29 29 0 0 0 0 0 0 0 0
2 5 2 2 3 0 0 1 2 9 15 2 2 6 19 7 6 13 14 3 22 5 10 25 2 32 29 28 10 1 16 14 27 42 61 46 0 0 0 0 0 0 0 0 0
1 0 6 0 2 0 0 9 6 18 0 46 17 10 15 24 9 5 8 11 12 13 36 36 36 22 20 5 4 4 21 98 42 48 3 3 17 0 0 0 0 0 0 0 0
0 5 1 2 0 0 0 9 17 8 135 38 25 11 4 21 14 1 8 1 0 1 32 71 22 30 24 10 23 14 13 59 24 28 22 0 12 0 0 0 0 0 0 0 0
0 6 1 4 0 1 4 31 46 29 34 20 5 10 39 18 21 7 11 5 0 0 25 45 38 23 8 0 2 20 15 2 7 1 22 1 0 0 0 0 0 0 0 0 0
0 2 2 0 0 14 2 8 0 24 39 37 34 29 16 14 17 13 8 2 0 0 1 40 16 18 14 1 1 7 7 19 52 8 11 1 0 0 0 0 0 0 0 0 0
0 0 5 0 7 4 22 1 0 37 27 19 11 7 16 15 3 10 10 1 0 0 0 2 13 30 3 5 15 26 39 35 19 31 20 5 1 0 0 0 0 0 0 0 0
0 0 0 0 7 0 1 0 16 3 7 4 19 13 16 27 22 8 6 3 0 0 0 3 13 30 47 16 7 8 6 34 79 37 2 3 0 0 0 0 0 0 0 0 0
0 0 0 3 0 0 0 0 0 0 0 0 0 3 0 9 29 68 2 2 11 0 17 7 83 41 29 20 10 10 1 25 0 18 54 36 0 0 0 0 0 0 0 0 0
0 0 0 0 0 0 0 0 0 0 0 1 0 0 0 1 2 26 2 13 15 9 9 22 27 8 20 3 1 8 1 0 0 91 19 13 0 0 0 0 0 0 0 0 0
0 0 0 0 0 0 0 0 0 0 0 0 0 0 6 1 0 1 8 2 16 9 2 9 61 4 0 0 0 1 2 0 0 4 57 5 0 0 0 0 0 0 0 0 0
0 0 0 0 0 0 0 0 0 0 0 0 0 0 0 2 4 5 7 8 5 4 2 8 10 0 0 0 0 0 0 0 0 0 0 0 0 0 0 0 0 0 0 0 0
0 0 0 0 0 0 0 0 0 0 0 0 0 0 0 2 0 0 0 0 3 6 13 7 9 1 5 0 0 0 0 0 0 0 0 0 0 0 0 0 0 0 0 0 0

GFSSW_con_sbcape_096.txt.gz
CAPE
7 16 16 18 28 22 20 50 32 27 6 12 18 26 25 26 32 5 6 47 109 197 192 56 13 4 46 67 69 175 116 48 0 26 2 26 0 0 1 0 3 220 432 1441 1587
7 21 27 27 20 26 23 40 30 12 6 12 18 11 14 3 13 21 59 109 136 180 48 29 34 3 43 67 88 141 69 9 0 3 10 40 14 0 1 0 0 469 487 1483 1444
14 33 29 26 16 22 29 39 22 4 15 13 7 0 0 0 11 29 36 100 186 84 157 17 39 32 44 61 110 53 0 0 19 82 48 99 28 7 0 0 0 363 699 1288 1656
21 28 29 22 23 34 24 30 5 6 10 7 0 0 0 4 4 0 0 0 33 7 63 27 48 46 57 53 29 42 0 0 47 14 20 2 1 0 5 0 0 333 808 1565 1630
19 32 25 23 23 25 29 21 8 12 1 0 0 2 8 16 7 0 0 0 0 0 97 64 56 37 25 25 46 4 0 0 0 4 3 7 0 5 5 37 18 241 558 800 1470
16 24 20 27 22 24 34 10 10 4 0 0 0 1 1 10 0 0 0 0 0 1 17 83 25 14 1 10 28 18 14 20 21 0 6 11 10 5 0 0 12 21 39 264 416
18 21 19 22 24 26 24 4 7 0 0 0 0 0 1 0 0 0 0 0 0 0 10 51 26 20 26 7 1 1 0 12 5 17 4 19 0 2 0 0 18 3 0 0 117
13 14 18 23 22 23 18 2 0 0 0 0 0 0 8 0 0 0 1 8 2 3 0 22 22 0 22 31 0 7 2 14 0 5 41 1 1 5 0 4 5 7 2 0 0
11 15 17 20 20 17 2 0 0 0 0 0 0 11 5 0 0 0 2 3 4 23 63 7 3 0 1 24 9 10 6 0 0 6 6 14 0 0 0 0 13 5 1 0 0
13 9 15 17 20 7 0 0 0 0 0 0 0 2 0 1 2 0 0 0 13 44 59 27 31 11 4 13 0 2 1 0 0 0 33 1 0 0 0 0 0 0 0 0 0
7 14 16 17 17 0 0 0 0 0 0 0 1 0 0 2 0 0 1 4 21 48 51 2 23 17 1 3 14 11 2 0 0 0 0 0 0 11 23 0 0 6 0 0 0
7 9 12 13 13 0 0 0 0 0 0 0 0 0 0 1 0 5 1 1 13 42 5 1 0 0 5 6 29 8 12 0 19 29 0 0 0 1 18 22 0 0 0 0 0
4 10 12 10 0 0 0 0 0 0 0 0 0 0 3 0 1 13 10 12 14 9 32 16 9 11 17 17 8 3 3 2 0 33 6 6 0 19 14 1 0 0 0 0 0
2 10 6 1 0 0 0 0 0 0 1 0 0 0 0 1 0 1 4 1 21 11 1 0 4 21 34 47 22 7 0 0 2 4 19 3 5 3 1 1 0 0 0 0 0
2 3 4 0 3 0 0 0 0 0 2 0 1 0 4 2 0 0 0 8 2 11 10 6 37 13 46 39 7 7 1 6 0 12 26 22 6 0 0 0 0 0 0 0 0
3 5 0 0 6 0 0 0 0 4 2 0 1 4 15 9 4 7 3 0 1 1 0 2 4 79 34 24 6 3 4 18 6 0 0 0 0 0 0 0 0 0 0 0 0
1 0 0 2 0 0 2 2 2 5 18 22 24 2 4 17 10 3 3 2 2 0 9 199 115 32 1 4 3 0 4 5 21 0 2 0 0 0 0 0 0 0 0 0 0
2 1 0 1 0 0 1 5 1 1 13 6 5 4 2 12 4 1 3 0 0 0 4 37 4 12 4 13 9 3 11 3 0 0 0 1 1 0 0 0 0 0 0 0 0
0 2 9 0 0 3 0 1 9 4 23 16 0 2 19 7 16 12 0 0 0 0 22 78 22 5 15 7 0 13 15 2 4 0 0 0 0 0 0 0 0 0 0 0 0
0 4 0 0 0 1 0 0 0 16 2 0 7 2 17 15 3 7 1 0 0 0 3 0 6 11 9 0 0 3 2 6 3 0 17 0 0 0 0 0 0 0 0 0 0
0 0 1 0 0 0 10 0 0 5 3 21 9 12 3 24 8 0 11 0 0 0 0 0 2 18 7 0 0 4 0 5 0 1 14 0 0 0 0 0 0 0 0 0 0
0 0 0 0 2 9 3 0 0 0 0 2 0 2 0 2 21 7 5 4 0 0 0 0 14 6 0 0 0 0 0 0 0 0 0 0 0 0 0 0 0 0 0 0 0
0 0 0 0 0 0 0 0 0 0 0 0 0 0 0 0 20 7 3 0 5 0 16 4 17 25 15 6 12 2 0 4 2 0 1 1 0 0 0 0 0 0 0 0 0
0 0 0 0 0 0 0 0 0 0 0 0 0 0 0 1 5 10 0 13 27 27 37 17 6 4 3 0 0 0 0 0 0 0 0 0 0 0 0 0 0 0 0 0 0
0 0 0 0 0 0 0 0 0 0 0 0 0 0 0 0 0 3 1 14 11 19 1 2 5 1 1 0 0 0 0 0 0 0 0 0 0 0 0 0 0 0 0 0 0
0 0 0 0 0 0 0 0 0 0 0 0 0 0 0 0 0 1 0 3 3 0 0 0 2 0 0 0 0 0 0 0 0 0 0 0 0 0 0 0 0 0 0 0 0
0 0 0 0 0 0 0 0 0 0 0 0 0 0 0 0 0 0 0 0 0 2 4 2 6 0 0 0 0 0 0 0 0 0 0 0 0 0 0 0 0 0 0 0 0

GFSSW_con_sbcape_099.txt.gz
CAPE
16 20 17 20 17 13 27 26 44 27 13 13 16 27 14 20 24 1 0 2 39 116 143 55 71 43 14 59 44 106 52 24 0 0 0 0 0 0 0 1 391 572 936 1254 1468
14 20 24 22 19 20 23 25 31 20 9 12 15 10 5 1 0 0 9 77 80 147 60 35 10 96 16 67 50 159 37 1 0 0 0 11 0 0 12 149 677 1201 1284 1627 1610
11 16 22 26 20 21 33 22 27 8 7 12 8 1 0 0 4 3 41 63 104 96 0 87 38 79 22 32 45 32 16 18 6 0 0 13 23 0 2 42 495 896 1410 1593 1764
7 17 25 16 23 20 28 20 17 6 12 3 0 0 0 0 2 0 0 1 15 42 18 122 70 75 42 58 6 9 0 3 11 43 6 11 8 22 0 0 499 790 1585 1565 1771
12 16 18 9 21 21 30 25 11 7 5 0 0 0 0 8 9 0 0 0 0 0 88 57 73 0 10 31 16 14 0 0 0 10 1 2 7 4 0 0 17 907 1448 1478 1486
15 15 14 16 14 17 25 23 5 5 2 5 0 0 0 0 0 0 0 0 0 0 19 27 37 32 20 0 0 17 1 0 6 31 12 14 19 6 3 0 3 799 1131 1324 1445
10 13 10 13 16 12 25 16 2 3 0 2 0 0 0 0 0 0 0 0 0 0 0 27 24 32 19 0 1 1 1 23 88 36 45 20 7 0 0 0 0 32 290 649 1174
4 9 12 16 16 16 15 5 6 0 0 0 0 0 0 0 0 0 0 8 3 0 10 213 3 0 13 1 16 22 0 31 7 0 11 27 0 0 2 0 0 0 0 129 486
8 5 10 16 11 18 5 0 0 0 0 0 0 0 0 0 0 0 0 0 3 57 63 135 0 3 11 4 26 3 40 0 9 0 34 9 0 4 3 1 1 0 0 3 11
5 13 11 12 14 15 0 0 0 0 0 0 0 0 0 0 0 0 0 0 0 16 118 27 2 18 6 1 0 1 1 0 6 0 41 0 0 0 1 0 0 0 0 0 0
7 6 10 15 9 3 0 0 0 0 0 0 0 0 3 0 0 0 0 0 0 18 9 0 0 0 14 0 8 0 0 0 0 0 2 0 0 0 6 12 4 0 0 0 0
11 2 9 9 7 0 0 0 0 0 0 0 0 0 0 0 0 1 0 0 1 5 0 0 0 0 13 1 7 8 11 0 0 0 0 0 1 0 0 0 0 0 0 0 0
4 4 9 7 0 0 0 0 0 0 0 0 0 0 1 0 0 4 8 0 1 1 1 1 1 0 6 5 0 10 16 0 0 26 25 5 6 40 22 1 0 0 0 0 0
5 5 10 0 0 0 0 0 0 0 0 0 0 0 0 0 0 0 7 0 13 5 0 0 1 0 7 5 3 21 12 0 29 16 18 24 9 10 1 0 0 1 0 0 0
4 7 2 0 0 0 0 0 0 0 0 0 1 0 0 0 0 0 0 1 0 0 2 1 2 0 49 13 0 18 1 6 0 0 4 0 8 0 0 0 0 0 0 0 0
2 5 0 0 0 0 0 0 0 0 0 0 0 0 13 8 0 5 0 0 0 0 0 1 1 27 25 9 17 1 7 5 3 4 0 0 0 0 0 0 0 0 0 0 0
0 0 0 1 0 0 0 0 0 0 0 0 5 0 2 6 1 2 0 1 0 0 1 17 18 57 8 3 1 3 4 1 2 14 0 0 0 0 0 0 0 0 0 0 0
0 0 0 0 0 0 0 0 0 0 0 0 0 0 2 9 0 0 0 0 0 0 1 0 2 29 3 2 1 7 6 0 0 0 0 0 0 0 0 0 0 0 0 0 0
0 0 0 0 0 0 0 0 0 2 0 0 0 0 8 11 11 1 0 0 0 0 24 1 5 30 0 0 0 22 3 7 3 0 0 0 0 0 0 0 0 0 0 0 0
0 0 0 0 0 0 0 0 0 5 0 0 0 0 2 17 1 0 0 0 0 0 0 0 5 5 10 0 0 0 0 1 0 0 0 0 0 0 0 0 0 0 0 0 0
0 0 0 0 0 0 0 0 0 0 0 0 0 2 0 7 13 0 0 0 0 0 0 0 0 10 0 0 0 0 0 1 2 0 0 0 0 0 0 0 0 0 0 0 0
0 0 0 0 0 0 0 0 0 0 0 0 0 0 0 0 21 0 0 2 1 0 0 1 12 0 0 8 0 0 0 0 0 0 0 0 0 0 0 0 0 0 0 0 0
0 0 0 0 0 0 0 0 0 0 0 0 0 0 0 0 19 4 0 0 3 0 1 0 15 1 0 3 2 2 0 0 0 0 0 1 0 0 0 0 0 0 0 0 0
0 0 0 0 0 0 0 0 0 0 0 0 0 0 0 0 0 3 1 0 15 13 9 3 3 2 0 0 0 0 0 0 0 0 0 0 0 0 0 0 0 0 0 0 0
0 0 0 0 0 0 0 0 0 0 0 0 0 0 0 0 1 1 0 5 4 5 0 2 2 0 0 0 0 0 0 0 0 0 0 0 0 0 0 0 0 0 0 0 0
0 0 0 0 0 0 0 0 0 0 0 0 0 0 1 0 0 0 0 0 0 0 0 0 0 0 0 0 0 0 0 0 0 0 0 0 0 0 0 0 0 0 0 0 0
0 0 0 0 0 0 0 0 0 0 0 0 0 0 0 0 0 0 0 0 0 1 1 0 0 0 0 0 0 0 0 0 0 0 0 0 0 0 0 0 0 0 0 0 0

GFSSW_con_sbcape_102.txt.gz
CAPE
8 14 19 26 19 17 22 16 18 37 23 8 18 28 19 11 6 0 0 0 4 66 36 0 2 0 12 63 130 69 102 8 16 6 0 0 0 0 0 6 429 539 660 1029 840
8 14 15 23 22 17 14 24 17 31 12 7 21 16 11 1 0 0 0 38 89 97 5 11 0 0 47 115 188 61 38 1 0 1 0 3 0 0 350 750 1016 1419 1292 1221 1130
8 13 15 26 23 22 12 23 21 12 17 18 8 5 1 0 0 0 6 34 49 74 9 1 0 1 45 77 105 23 1 0 12 0 0 0 0 25 371 561 836 1290 1446 1229 1213
6 7 18 19 18 21 18 24 21 8 5 4 2 0 0 0 0 0 0 0 5 9 8 7 48 52 23 14 16 50 39 0 26 57 69 3 0 14 1 0 7 1462 1463 1462 1081
14 6 16 19 21 22 17 22 17 9 7 9 0 0 0 0 0 0 0 0 0 0 0 51 43 56 8 9 28 48 0 2 30 40 8 0 4 0 0 0 0 634 1386 1258 1158
13 13 19 14 20 16 17 21 11 2 0 5 3 0 0 0 0 0 0 0 0 0 0 40 47 27 24 5 5 24 27 24 4 70 34 3 10 0 0 0 0 152 944 1119 1109
6 9 16 20 10 20 15 12 10 0 2 2 9 0 0 0 0 0 0 0 0 0 0 20 33 48 0 6 2 0 28 31 16 50 45 2 14 0 0 0 0 0 3 796 894
10 11 13 14 17 11 20 7 1 0 1 19 1 0 0 0 0 0 0 1 3 6 4 103 9 45 7 6 10 47 11 29 60 54 72 26 2 0 0 0 0 0 0 0 747
9 10 15 9 11 19 9 0 1 0 0 3 0 0 0 0 0 0 0 0 0 26 40 154 5 20 11 1 22 21 27 3 19 62 12 4 8 0 0 0 0 0 0 0 74
10 11 12 16 11 19 1 0 0 0 0 0 0 0 0 0 0 0 0 0 0 0 38 0 3 14 30 3 2 5 2 0 16 14 65 3 2 32 0 0 0 0 0 0 0
10 9 6 13 13 9 0 0 0 0 0 0 0 0 0 0 0 1 0 0 0 4 1 0 0 0 20 6 8 10 0 0 1 2 25 5 2 102 8 0 0 0 0 0 0
7 8 8 11 13 0 0 0 0 0 0 0 0 0 0 0 0 0 0 1 1 4 0 0 0 0 0 5 3 9 0 0 0 0 3 8 26 13 48 2 0 0 0 0 0
8 7 8 9 2 0 0 0 0 0 0 0 0 0 0 0 0 1 7 5 0 0 0 0 0 0 1 21 2 16 0 0 0 0 0 0 5 12 1 18 12 1 0 0 0
3 10 8 6 0 0 0 0 0 0 0 0 0 0 0 0 0 0 2 0 3 0 0 0 0 0 0 17 5 2 0 0 0 2 2 0 0 0 0 0 0 0 3 0 0
2 7 3 2 0 0 0 0 0 0 0 0 0 0 0 0 0 0 0 0 0 0 3 0 0 0 18 7 1 6 16 0 0 1 0 7 0 0 0 0 0 0 0 0 0
1 6 1 0 0 0 0 0 0 0 0 0 0 0 8 1 0 1 0 0 0 0 0 1 0 11 40 19 12 10 12 31 5 1 0 0 0 0 0 0 0 0 0 0 0
0 2 0 0 0 0 0 0 0 0 0 0 0 0 2 1 1 1 0 0 0 0 0 3 11 55 11 5 1 8 2 4 23 18 1 0 1 0 0 0 0 0 0 0 0
0 0 0 0 0 0 0 0 0 0 0 0 0 0 4 0 0 0 0 0 0 0 0 0 10 43 1 0 0 5 6 0 2 0 0 2 0 0 0 0 0 0 0 0 0
1 0 0 0 0 0 0 0 0 0 0 0 0 0 1 2 0 0 0 0 0 0 2 0 17 16 3 0 0 7 1 6 0 0 0 0 0 0 0 0 0 0 0 0 0
0 0 0 0 0 0 0 0 0 0 0 0 0 0 0 2 0 0 0 0 0 0 0 0 2 2 0 0 0 0 1 0 0 0 0 0 0 0 0 0 0 0 0 0 0
0 0 0 0 0 0 0 0 0 0 0 0 0 0 0 1 5 1 0 0 0 0 0 0 0 1 0 0 0 0 0 0 0 0 0 0 0 0 0 0 0 0 0 0 0
0 0 0 0 0 0 0 0 0 0 0 0 0 0 0 0 10 0 0 0 0 0 0 0 0 0 0 2 0 0 0 0 0 0 0 0 0 0 0 0 0 0 0 0 0
0 0 0 0 0 0 0 0 0 0 0 0 0 0 0 2 9 1 0 0 2 0 0 0 2 0 0 1 0 0 0 0 0 0 0 0 0 0 0 0 0 0 0 0 0
0 0 0 0 0 0 0 0 0 0 0 0 0 0 0 1 0 0 0 0 5 18 0 6 4 0 0 0 0 0 0 0 0 0 0 0 0 0 0 0 0 0 0 0 0
0 0 0 0 0 0 0 0 0 0 0 0 0 0 0 0 0 0 0 0 0 1 0 3 0 1 0 0 0 0 0 0 0 0 0 1 0 0 0 0 0 0 0 0 0
0 0 0 0 0 0 0 0 0 0 0 0 0 0 0 0 0 0 0 0 0 0 0 0 0 0 0 0 0 0 0 0 0 0 0 0 0 0 0 0 0 0 0 0 0
0 0 0 0 0 0 0 0 0 0 0 0 0 0 0 0 0 0 0 0 0 0 1 0 0 0 0 0 0 0 0 0 0 0 0 0 0 0 0 0 0 0 0 0 0

GFSSW_con_sbcape_105.txt.gz
CAPE
12 11 14 22 35 22 16 21 24 19 27 11 10 23 17 19 9 0 0 0 0 60 31 0 0 0 0 0 26 72 62 7 0 10 23 0 0 0 0 16 63 171 528 900 1345
10 10 15 19 32 29 21 13 27 28 11 16 13 14 13 8 0 0 0 23 120 102 0 0 0 0 0 10 25 34 40 16 0 0 2 7 1 0 0 385 904 1124 1120 1308 1147
9 15 18 23 23 24 29 32 36 20 5 11 11 13 5 0 0 0 11 41 33 8 0 0 0 0 0 33 19 14 34 1 2 0 51 21 2 0 125 114 659 965 1249 1378 1117
7 14 11 17 21 26 28 30 36 15 10 13 9 17 1 0 0 0 0 1 0 0 0 0 0 0 6 11 9 59 0 0 0 57 43 5 57 23 61 6 0 2 1284 1133 1319
7 8 16 14 23 24 21 35 31 12 2 10 17 0 0 0 0 0 0 0 0 0 0 2 20 21 14 0 0 8 0 0 15 16 43 16 77 13 0 0 0 13 1306 1233 1372
10 13 19 20 18 18 25 27 24 10 3 1 21 0 0 0 0 0 0 0 0 0 0 16 42 24 25 3 3 3 33 0 4 60 0 35 28 17 0 0 0 120 873 1136 1240
9 11 16 19 15 17 21 35 19 12 1 8 19 0 0 0 0 0 0 0 0 0 0 5 43 41 2 7 3 0 21 48 58 45 5 19 4 34 1 0 0 0 0 44 892
10 9 13 20 17 15 18 24 11 0 0 21 18 0 0 0 0 0 0 0 0 0 8 71 0 41 17 6 1 29 64 28 29 57 18 0 3 0 0 0 0 0 0 0 0
6 4 13 14 13 14 22 17 3 0 0 9 0 0 0 0 0 0 0 0 0 7 16 115 17 39 22 7 0 9 0 35 54 45 59 1 4 13 12 0 0 0 0 0 0
2 4 8 6 14 14 11 0 0 0 0 0 0 0 0 0 0 0 0 0 0 0 2 0 0 21 27 28 0 6 26 33 26 54 43 2 0 3 0 2 0 0 0 0 0
3 1 6 9 11 14 0 0 0 0 0 0 0 0 0 0 0 0 0 0 0 0 0 0 0 0 0 34 16 17 6 7 3 22 18 0 0 0 9 0 0 0 0 0 0
3 0 3 10 9 4 0 0 0 0 0 0 0 0 0 0 0 0 0 0 0 0 0 0 0 0 0 23 16 18 10 0 2 0 37 23 0 2 17 10 47 0 0 0 0
1 0 4 8 3 0 0 0 0 0 0 0 0 0 0 0 1 0 0 0 0 0 0 0 0 0 0 14 10 2 3 1 0 13 0 8 9 17 27 21 13 0 0 0 0
0 0 7 6 0 0 0 0 0 0 0 0 0 0 0 0 0 0 0 1 0 0 0 0 0 0 2 45 1 4 0 0 0 1 13 1 7 4 1 13 2 0 0 0 0
0 0 8 5 0 0 0 0 0 0 0 0 0 0 0 0 0 2 0 0 7 0 0 0 0 2 30 0 3 8 14 0 0 9 2 4 0 0 0 6 1 0 0 0 0
0 1 7 1 0 0 0 0 0 0 0 0 0 0 4 0 0 0 0 0 0 0 1 0 0 10 14 11 12 8 28 8 3 6 0 0 0 0 0 0 0 0 0 0 0
0 4 3 0 0 0 0 0 0 0 0 0 0 0 1 3 0 0 0 0 0 0 0 1 8 6 15 6 3 2 5 25 0 0 0 0 2 0 0 0 0 0 0 0 0
2 7 3 0 0 0 0 0 0 0 0 0 0 0 0 1 0 0 0 0 0 2 0 0 6 29 3 1 0 2 8 0 0 0 1 0 0 0 0 0 0 0 0 0 0
12 0 0 0 0 0 0 0 0 0 0 0 0 0 0 4 0 0 0 0 0 0 8 0 0 11 0 0 0 2 1 7 0 0 0 0 0 0 0 0 0 0 0 0 0
0 0 0 0 0 0 0 0 0 0 0 0 0 0 0 3 0 0 0 0 0 0 0 0 0 0 1 0 0 1 1 0 0 0 0 0 0 0 0 0 0 0 0 0 0
0 0 0 0 0 0 0 0 0 0 0 0 0 0 0 2 0 0 0 0 0 0 0 0 0 0 0 0 0 0 0 0 0 0 0 0 0 0 0 0 0 0 0 0 0
0 0 0 0 0 0 0 0 0 0 0 0 0 0 0 0 7 0 0 0 0 0 0 0 0 0 0 0 0 0 0 0 0 0 0 0 0 0 0 0 0 0 0 0 0
0 0 0 0 0 0 0 0 0 0 0 0 0 0 0 1 0 1 0 0 0 0 0 0 0 0 0 0 0 0 0 0 0 0 0 0 0 0 0 0 0 0 0 0 0
0 0 0 0 0 0 0 0 0 0 0 0 0 0 0 1 0 0 0 0 4 13 10 11 7 0 0 0 0 0 0 0 0 0 0 0 0 0 0 0 0 0 0 0 0
0 0 0 0 0 0 0 0 0 0 0 0 0 0 0 0 0 0 0 0 0 0 0 4 0 11 0 0 0 0 0 0 0 0 0 0 0 0 0 0 0 0 0 0 0
0 0 0 0 0 0 0 0 0 0 0 0 0 0 0 0 0 0 0 0 0 0 0 0 0 0 0 0 0 0 0 0 0 0 0 0 0 0 0 0 0 0 0 0 0
0 0 0 0 0 0 0 0 0 0 0 0 0 0 0 0 0 0 0 0 0 0 0 0 0 0 0 0 0 0 0 0 0 0 0 0 0 0 0 0 0 0 0 0 0

GFSSW_con_sbcape_108.txt.gz
CAPE
12 12 13 17 29 33 34 27 16 25 34 11 14 11 19 24 6 0 0 0 0 17 58 0 0 0 0 0 16 42 61 20 5 0 0 13 30 0 0 0 5 669 549 798 1904
16 11 14 20 23 33 31 31 37 37 15 10 15 14 18 12 0 0 0 0 36 84 0 0 0 0 0 0 3 29 15 4 0 0 0 1 63 0 2 1 131 934 1169 1817 1753
15 13 13 13 19 19 28 30 38 41 13 6 15 14 11 2 0 0 8 8 45 15 0 0 0 0 0 0 0 7 9 0 0 0 6 3 88 67 11 19 5 790 1424 1858 1621
19 14 13 10 23 17 27 28 37 29 13 6 23 0 9 0 0 0 0 0 0 0 0 0 0 1 6 4 0 20 0 0 0 0 0 43 100 80 38 1 0 0 1392 1678 1151
12 13 13 16 14 19 13 28 31 18 11 0 25 1 0 0 0 0 0 0 0 0 0 0 11 20 11 0 0 28 0 0 0 0 0 56 50 53 2 0 0 0 562 1105 911
9 14 12 13 12 17 17 25 36 19 9 3 15 3 0 0 0 0 0 0 0 0 0 3 23 32 20 22 22 11 9 0 0 0 13 57 2 8 0 0 0 400 960 1000 1190
13 6 15 16 14 11 21 18 28 13 8 11 14 0 0 0 0 0 0 0 0 0 0 0 16 36 33 18 13 10 1 0 4 0 0 71 9 1 0 0 0 54 268 779 1210
15 5 15 18 11 10 15 20 16 2 0 1 17 0 0 0 0 0 0 0 0 0 0 29 8 17 36 18 3 33 9 11 1 0 0 11 1 0 0 0 3 0 0 8 219
18 15 3 21 11 13 13 14 4 1 0 4 0 0 0 0 0 0 0 0 0 0 0 41 1 13 45 8 1 22 39 8 33 0 7 35 1 0 0 9 3 0 0 0 0
18 15 1 16 7 10 11 0 0 0 0 0 0 0 0 0 0 0 0 0 0 0 0 0 0 0 1 27 0 2 10 0 20 0 2 12 0 4 0 31 16 1 0 0 0
17 17 3 9 10 8 0 0 0 0 0 0 0 0 0 0 0 0 0 0 0 0 1 0 0 0 0 0 42 18 6 8 7 59 11 35 0 0 12 19 14 23 0 0 0
23 4 9 3 14 4 0 0 0 0 0 0 0 0 0 0 0 0 0 0 0 0 0 0 0 0 0 0 23 13 8 3 2 3 49 16 3 9 6 13 13 14 0 0 0
17 2 7 2 15 0 0 0 0 0 0 0 0 0 0 0 0 0 0 0 0 0 0 0 0 0 0 0 17 5 9 1 20 108 60 18 38 32 20 33 4 0 0 0 0
11 9 9 12 0 0 0 0 0 0 0 0 0 0 0 0 0 0 0 0 0 0 0 0 0 0 7 3 13 1 0 28 85 20 36 4 6 27 17 18 6 12 0 0 0
5 1 17 9 0 0 0 0 0 0 0 0 0 0 0 0 0 0 0 0 0 0 0 0 0 2 9 19 6 12 6 2 4 0 42 0 0 4 5 0 2 0 0 0 0
3 0 34 0 0 0 0 0 0 0 0 0 0 0 0 0 0 0 0 0 0 0 0 0 0 0 3 8 4 5 22 5 0 0 0 1 0 0 4 0 0 0 0 0 0
2 0 23 0 0 0 0 0 0 0 0 0 0 0 0 0 0 0 0 0 0 0 0 1 1 7 8 8 2 2 0 1 6 0 0 0 0 0 0 0 0 0 0 0 0
0 2 18 0 0 0 0 0 0 0 0 0 0 1 0 0 0 0 0 0 0 3 0 0 1 16 4 1 1 0 0 0 0 0 0 0 0 0 0 0 0 0 0 0 0
7 0 0 0 0 0 0 0 0 0 0 0 0 0 1 1 0 0 0 0 0 0 12 1 0 3 0 0 3 5 0 1 0 0 0 0 0 0 0 0 0 0 0 0 0
2 1 1 0 0 0 0 0 0 0 0 0 0 0 0 4 0 0 0 0 0 0 0 0 0 0 1 0 4 3 1 0 0 0 0 0 0 0 0 0 0 0 0 0 0
0 0 4 0 0 0 0 0 0 0 0 0 0 0 0 5 0 0 0 0 0 0 0 0 0 0 0 0 0 0 0 0 0 0 0 0 0 0 0 0 0 0 0 0 0
0 2 2 0 0 0 0 0 0 0 0 0 0 0 0 3 0 0 0 0 0 0 0 0 0 0 0 0 0 0 0 0 0 0 0 0 0 0 0 0 0 0 0 0 0
0 6 0 0 0 0 0 0 0 0 0 0 0 0 0 1 0 0 0 0 0 0 1 1 0 0 0 0 0 0 0 0 0 0 1 0 0 0 0 0 0 0 0 0 0
0 0 1 0 0 0 0 0 0 0 0 0 0 0 0 2 0 0 0 0 0 0 16 2 3 0 0 0 0 0 0 0 0 0 0 0 0 0 0 0 0 0 0 0 0
0 0 0 0 0 0 0 0 0 0 0 0 0 0 0 0 0 0 0 0 0 0 0 0 0 0 0 0 0 0 0 0 0 0 0 0 0 0 0 0 0 0 0 0 0
0 0 0 0 0 0 0 0 0 0 0 0 0 0 0 0 0 0 0 0 0 0 0 0 0 0 0 0 0 0 0 0 0 0 0 0 0 0 0 0 0 0 0 0 0
0 0 0 0 0 0 0 0 0 0 0 0 0 0 0 0 0 0 0 0 0 0 0 0 0 0 0 0 0 0 0 0 0 0 0 0 0 0 0 0 0 0 0 0 0

GFSSW_con_sbcape_111.txt.gz
CAPE
6 0 10 17 30 29 46 28 22 19 21 10 16 18 18 22 5 0 0 0 0 13 12 0 0 0 0 0 23 39 49 24 1 3 0 0 0 2 3 0 0 4 459 693 1452
10 3 14 12 27 29 23 21 30 17 27 4 16 13 13 10 0 0 0 0 21 47 14 0 0 0 0 0 19 57 34 4 0 0 0 0 0 8 3 13 38 2 398 1196 1581
2 12 11 12 17 28 22 35 22 30 14 14 9 5 16 0 0 0 6 9 34 19 3 0 0 0 0 0 1 26 6 0 0 0 8 38 40 16 78 70 8 6 0 700 1720
13 9 2 9 18 15 21 18 18 26 5 5 15 3 0 0 0 0 0 0 0 0 0 0 0 0 2 0 0 17 0 0 0 0 14 32 48 81 105 7 0 0 0 0 1210
11 9 7 10 12 17 23 13 26 17 5 2 7 2 0 0 0 0 0 0 0 0 0 0 1 17 17 0 0 6 2 0 1 11 7 33 19 15 63 51 0 0 0 0 0
10 6 9 6 7 14 16 27 25 14 8 3 2 0 0 0 0 0 0 0 0 0 0 0 9 27 31 20 30 8 16 2 1 15 31 18 15 9 31 31 1 0 0 0 0
18 12 10 8 17 11 13 29 25 16 8 0 14 0 0 0 0 0 0 0 0 0 0 0 17 47 31 21 10 3 20 4 0 1 9 38 45 0 0 0 18 5 0 0 1
20 3 18 8 12 8 10 21 25 12 0 0 12 0 0 0 0 0 0 0 0 0 0 10 6 27 33 31 23 3 3 5 0 0 2 46 0 1 1 0 18 2 0 0 0
16 18 21 0 15 8 15 27 21 4 0 5 0 0 0 0 0 0 0 0 0 0 0 23 8 17 14 10 1 0 0 0 0 0 8 21 0 15 0 9 4 0 0 3 2
44 15 18 0 6 8 19 0 0 0 0 0 0 0 0 0 0 0 0 0 0 0 0 0 0 0 0 13 0 0 1 1 1 6 3 6 0 15 25 48 0 0 0 7 0
34 10 3 0 3 13 0 0 0 0 0 0 0 0 0 0 0 0 0 0 0 0 0 0 0 0 0 0 0 4 13 3 0 0 2 10 0 1 2 0 0 0 0 0 6
44 10 1 0 5 24 0 0 0 0 0 0 0 0 0 0 0 0 0 0 0 0 0 0 0 0 0 0 14 2 20 4 0 0 8 11 0 15 1 0 0 0 0 0 4
12 2 9 0 6 4 0 0 0 0 0 0 0 0 0 0 0 0 0 0 0 0 0 0 0 0 0 3 15 4 10 4 4 15 22 28 38 45 10 8 2 3 0 0 9
13 7 4 0 2 0 0 0 0 0 0 0 0 0 0 0 0 0 0 0 0 0 0 0 0 0 8 13 3 5 6 23 49 17 13 7 57 45 15 4 3 4 0 3 4
3 4 0 0 0 0 0 0 0 0 0 0 0 0 0 0 0 0 0 0 0 0 0 0 0 0 0 20 13 28 2 5 21 35 5 4 2 8 9 4 11 12 8 14 0
7 0 2 0 0 0 0 0 0 0 0 0 0 0 0 0 0 0 0 0 0 0 0 0 0 4 4 12 4 6 13 4 0 0 1 6 0 0 4 0 1 0 12 0 0
47 5 1 0 0 0 0 0 0 0 0 0 0 0 0 0 0 0 0 0 0 0 0 0 2 6 11 11 1 2 0 0 0 0 2 1 0 0 0 0 0 0 15 0 0
22 28 1 0 0 0 0 0 0 0 0 0 0 0 0 0 0 0 0 0 0 2 0 0 0 13 3 10 4 2 0 0 0 0 1 0 0 0 0 0 0 0 0 0 0
22 0 0 0 0 0 0 0 0 0 0 0 0 0 0 0 0 0 0 0 0 0 0 1 0 0 0 5 3 4 0 5 0 0 0 0 0 0 0 0 0 0 0 0 0
0 2 1 0 0 0 0 0 0 0 0 0 0 0 0 0 0 0 0 0 0 0 0 0 0 0 0 1 0 0 1 0 0 0 0 0 0 0 0 0 0 0 0 0 0
0 7 5 0 0 0 0 0 0 0 0 0 0 0 0 0 0 0 0 0 0 0 0 0 0 0 0 1 6 1 1 0 0 0 0 0 1 0 0 0 0 0 0 0 0
0 4 3 0 0 0 0 0 0 0 0 0 0 0 0 0 0 0 0 0 0 0 0 0 0 0 0 0 0 0 0 0 0 0 0 0 0 0 0 0 0 0 0 0 0
8 9 3 0 0 0 0 0 0 0 0 0 0 0 0 0 0 0 0 0 0 0 4 1 0 0 0 0 0 0 0 0 0 0 1 0 0 0 0 0 0 0 0 0 0
0 4 3 2 0 0 0 0 0 0 0 0 0 0 0 0 0 0 0 0 0 0 7 2 1 0 0 0 0 0 0 0 0 0 0 0 0 0 0 0 0 0 0 0 0
0 0 0 0 2 0 0 0 0 0 0 0 0 0 0 0 0 0 0 0 0 0 0 0 0 0 0 0 0 0 0 0 0 0 0 0 0 0 0 0 0 0 0 0 0
0 0 0 0 0 0 0 0 0 0 0 0 0 0 0 0 0 0 0 0 0 0 0 0 0 0 0 0 0 0 0 0 0 0 0 0 0 0 0 0 0 0 0 0 0
0 0 0 0 0 0 0 0 0 0 0 0 0 0 0 0 0 0 0 0 0 0 0 0 0 0 0 0 0 0 0 0 0 0 0 0 0 0 0 0 0 0 0 0 0

GFSSW_con_sbcape_114.txt.gz
CAPE
6 17 11 9 11 5 22 20 18 21 22 16 1 11 10 7 1 0 0 0 0 8 0 12 0 0 0 2 11 11 55 19 3 0 0 17 23 2 0 42 124 122 179 35 21
8 12 15 12 12 5 16 17 18 27 30 10 0 8 16 4 0 0 0 0 1 45 53 11 0 0 0 2 17 35 29 3 0 0 2 31 67 73 59 6 35 114 32 41 45
7 12 22 15 14 15 9 16 28 23 15 5 5 8 4 0 0 1 6 30 46 42 22 4 0 0 0 2 14 17 16 0 0 0 6 17 29 53 62 15 74 52 55 120 3
11 14 14 10 6 6 10 17 20 17 6 0 7 1 0 0 0 0 1 0 0 0 0 0 0 1 3 9 4 13 0 4 0 1 1 3 18 49 102 78 56 8 51 69 0
119 13 14 30 14 6 3 12 24 31 2 3 0 2 0 0 0 0 0 0 0 0 0 0 2 6 6 4 9 12 0 2 4 8 6 11 2 26 42 12 14 18 9 13 0
252 26 0 14 12 0 4 14 31 41 4 3 0 1 0 0 0 0 0 0 0 0 0 0 4 14 19 18 28 14 19 26 27 14 12 32 17 31 3 21 115 81 1 0 0
198 13 1 27 12 13 0 7 30 19 11 2 16 0 0 0 0 0 0 0 0 0 0 3 9 20 13 11 12 25 31 26 7 0 9 26 47 25 0 0 16 17 10 0 0
43 106 9 17 10 0 12 4 32 13 4 0 36 0 0 0 0 0 0 0 0 0 6 28 56 35 39 36 31 35 24 24 0 10 1 59 9 2 1 0 0 10 28 0 0
52 71 11 14 8 0 6 4 22 11 7 23 0 0 0 0 0 0 0 0 0 0 18 33 49 39 44 40 27 17 43 38 20 20 35 51 22 28 17 8 0 8 12 0 0
90 82 20 6 7 0 0 0 3 5 9 1 0 0 0 0 0 0 0 0 1 7 19 14 28 53 60 29 11 37 31 55 45 49 74 38 26 45 121 157 63 29 13 0 0
83 94 11 0 16 0 0 0 0 0 0 0 0 0 0 0 0 0 0 0 11 15 23 4 49 38 31 43 52 18 32 29 7 10 10 32 76 47 164 121 73 19 0 0 0
70 90 9 12 10 13 0 0 0 0 0 0 0 0 0 0 0 0 0 1 7 14 12 33 29 3 1 0 5 40 29 16 1 5 24 21 81 23 52 76 22 5 3 0 0
220 17 22 17 29 0 0 0 0 0 0 0 0 0 0 0 0 0 0 1 3 3 17 23 0 0 1 9 36 35 27 8 14 5 16 87 28 26 25 4 0 1 0 0 0
50 17 15 30 11 0 0 0 0 0 0 0 0 0 0 0 0 0 0 0 4 1 2 5 0 0 1 15 8 20 2 32 61 13 105 29 22 9 6 1 5 8 0 0 0
58 14 5 17 0 0 0 0 0 0 0 0 0 0 0 0 0 0 0 0 1 0 0 0 0 0 6 1 9 31 7 11 19 8 34 14 87 3 15 16 7 5 1 0 0
33 20 9 1 0 0 0 0 0 0 0 0 1 1 5 0 0 0 0 0 0 6 5 4 1 2 0 0 9 10 22 16 4 6 100 15 9 21 53 7 7 7 1 5 0
26 38 4 0 0 0 0 0 0 0 0 0 3 1 0 0 0 0 0 0 7 6 9 0 8 2 6 7 12 3 13 45 14 21 33 27 0 5 0 4 6 9 0 5 0
79 44 2 0 0 0 0 0 0 0 0 0 1 2 5 0 0 0 0 4 0 1 6 10 6 6 8 19 15 4 12 20 9 23 23 0 5 2 0 0 0 22 5 1 1
19 0 0 0 0 0 0 0 0 0 0 0 1 0 4 1 0 0 0 0 0 0 2 9 4 0 8 7 7 3 8 12 2 0 1 10 0 0 0 0 0 5 9 3 21
4 2 3 0 0 0 0 0 0 0 0 0 0 0 1 1 0 0 0 0 9 1 0 11 3 0 0 1 1 11 5 25 10 37 22 2 9 9 0 0 0 29 14 2 0
16 10 6 0 0 4 2 0 0 0 0 0 0 0 0 0 0 0 1 0 1 11 0 2 0 0 0 7 9 4 6 5 0 0 9 7 19 0 0 0 0 5 21 3 0
2 9 6 0 14 1 2 0 0 0 0 0 0 0 0 0 0 0 0 0 0 3 2 3 0 3 1 0 1 1 6 4 14 0 0 6 13 0 0 0 0 0 0 0 0
9 11 5 2 3 5 0 0 0 0 0 0 0 0 0 0 0 0 1 0 0 11 13 23 2 0 0 0 0 0 1 1 0 0 2 9 13 0 0 0 0 0 0 0 0
13 5 10 24 0 0 0 0 0 0 0 0 0 0 0 0 0 0 0 0 0 0 0 3 4 3 8 9 4 2 0 0 0 10 2 8 1 0 0 0 0 0 0 0 0
3 9 2 5 9 0 0 0 0 0 0 0 0 0 0 0 0 0 0 0 0 0 0 0 9 3 7 1 0 3 3 0 0 0 9 2 0 0 0 0 0 0 0 0 0
0 1 0 0 3 3 0 0 0 0 0 0 0 0 0 0 0 0 0 0 0 0 0 0 0 0 0 0 0 0 0 1 0 0 0 0 0 0 0 0 0 0 0 0 0
0 0 0 0 2 3 0 0 0 0 0 0 0 0 0 0 0 0 0 0 0 0 0 0 0 0 0 0 0 1 0 2 0 0 0 0 0 0 0 0 0 0 0 0 0

GFSSW_con_sbcape_117.txt.gz
CAPE
5 5 8 5 3 9 11 14 28 12 22 29 0 0 0 7 3 3 0 0 0 0 0 7 1 1 0 1 1 6 19 12 1 0 0 0 0 0 0 0 0 5 19 61 129
11 7 10 11 6 1 15 22 19 35 18 9 0 0 0 0 0 0 0 0 0 47 14 12 26 0 17 10 14 17 11 1 0 0 0 0 0 0 7 16 3 1 3 69 73
67 22 18 24 9 3 10 14 18 34 14 0 0 1 0 0 0 0 26 52 66 50 40 30 2 0 8 21 17 17 21 6 6 4 5 7 3 3 10 20 19 38 0 35 81
49 166 39 17 5 0 13 16 17 22 3 0 0 0 0 1 0 1 0 0 2 1 3 13 17 22 12 13 16 18 22 14 8 7 13 23 22 5 4 3 0 27 31 29 80
23 25 177 9 0 8 8 20 26 33 11 0 0 2 0 0 0 0 0 0 0 0 0 8 11 19 14 9 6 13 6 8 5 4 7 8 9 0 3 2 14 31 29 59 69
14 54 152 7 0 3 12 3 6 38 6 0 0 0 1 0 0 0 0 0 0 0 2 1 1 5 8 7 12 14 17 12 5 16 18 22 16 17 10 0 0 10 29 8 28
11 35 114 1 11 12 14 5 12 13 27 19 6 5 0 0 0 0 0 0 0 0 3 8 4 6 4 6 6 9 11 9 3 3 2 14 37 7 0 4 2 11 15 4 56
22 87 72 15 20 7 7 0 3 0 6 7 7 9 0 0 0 0 0 0 0 0 0 8 16 16 19 28 27 25 27 23 0 7 0 28 15 0 0 10 4 0 52 47 14
37 40 67 56 32 9 4 3 0 15 9 35 9 4 0 0 0 0 0 3 11 2 0 14 34 22 31 64 48 18 32 9 7 1 20 64 104 17 0 20 0 0 0 8 11
50 89 81 84 21 11 22 9 3 2 4 12 0 1 0 0 0 0 0 1 6 14 22 17 35 31 40 88 45 36 42 29 31 27 73 80 45 48 51 54 4 0 1 7 15
47 96 94 125 18 10 24 6 1 5 4 0 0 0 0 0 0 0 0 3 16 21 24 30 49 27 39 38 41 40 35 29 9 11 23 1 1 46 83 138 88 57 135 53 79
58 296 215 27 26 29 32 1 0 0 0 0 0 0 0 0 1 2 0 1 15 14 19 21 24 24 17 5 1 6 13 1 3 11 11 11 11 37 61 155 168 134 89 79 28
25 325 42 24 36 39 17 2 0 0 0 0 0 0 0 0 7 12 0 4 7 10 13 15 1 1 1 0 5 5 14 5 2 0 16 14 54 7 30 90 108 94 56 44 13
19 73 20 34 31 41 20 0 0 0 5 0 1 1 0 0 4 0 0 4 3 5 11 4 0 0 0 0 4 30 2 14 18 21 35 24 83 24 28 14 75 61 18 28 7
58 68 35 35 13 12 0 0 0 0 0 0 4 0 1 3 0 0 0 6 6 5 0 0 0 2 3 2 22 4 1 23 51 28 30 33 17 37 17 9 1 24 55 57 40
66 78 41 32 6 0 0 0 0 7 0 0 2 2 3 1 0 0 2 1 7 6 5 2 1 6 2 1 6 15 23 16 5 17 38 38 19 16 19 7 16 44 56 22 17
73 83 40 10 5 0 0 0 10 3 0 0 0 4 1 0 0 1 5 8 5 7 16 4 1 3 2 19 10 9 15 43 41 38 68 4 6 34 4 1 18 4 0 19 9
99 84 4 0 0 0 0 7 1 0 0 0 3 5 0 1 0 0 2 0 0 5 3 12 28 16 23 27 18 6 15 28 20 80 38 1 26 10 3 1 7 0 1 27 2
20 3 0 0 0 0 1 15 0 0 0 1 2 2 2 3 3 0 0 4 3 2 14 20 10 0 0 6 9 2 23 11 9 2 5 26 20 5 3 25 1 0 2 10 0
33 10 4 0 0 1 7 2 0 0 0 0 2 1 6 4 2 0 0 0 7 6 4 3 7 0 0 1 3 17 7 10 24 19 26 24 11 6 5 20 11 6 12 8 1
23 14 5 0 3 10 13 1 0 0 0 0 0 1 2 2 0 0 0 0 9 7 15 1 2 13 2 8 23 20 10 1 0 0 24 23 18 11 5 6 28 9 7 3 1
18 7 7 0 18 15 15 0 0 0 0 0 0 0 2 0 0 0 0 0 4 7 4 3 8 16 0 0 0 1 1 1 63 3 10 5 14 2 7 8 16 6 3 1 2
8 11 7 10 15 15 0 0 0 0 0 0 0 0 0 0 0 0 1 0 3 7 34 21 11 24 58 2 0 2 1 0 0 6 14 10 40 3 0 1 10 11 2 1 1
6 11 9 16 3 2 0 0 0 0 0 0 0 0 0 0 0 0 0 0 1 1 0 6 1 7 20 7 0 6 0 0 0 10 14 36 12 2 0 0 0 0 0 1 0
9 21 8 15 9 0 0 0 0 0 0 0 0 1 0 0 0 0 0 0 0 0 9 10 3 0 4 3 3 1 3 0 0 2 13 9 6 4 3 0 0 0 0 0 0
2 7 9 1 2 0 0 0 0 0 0 0 0 0 0 0 0 0 0 0 0 0 0 0 12 1 0 0 4 4 1 4 5 12 8 6 6 0 0 0 0 0 0 0 0
0 0 0 2 5 1 0 0 0 0 0 0 0 0 0 0 0 0 0 0 0 0 1 2 4 4 2 0 0 0 4 1 5 1 10 8 4 1 0 0 0 0 0 0 0